[[{"header":{"parameterUnit":"m.s-1","parameterCategory":1,"la1":30.6,"la2":28.766,"lo1":-90.7593,"lo2":-88.6598,"dy":0.0162,"dx":0.0183,"nx":116,"ny":114,"refTime":"2023-05-27T12:00:00:Z","depth":0,"parameterNumber":2,"parameterNumberName":"U-component_of_WINDS"},"data":[0.0,0.0,0.0,0.0,0.0,0.0,0.0,0.0,0.0,0.0,0.0,0.0,0.0,0.0,0.0,0.0,0.0,0.0,0.0,0.0,0.0,0.0,0.0,0.0,0.0,0.0,0.0,0.0,0.0,0.0,0.0,0.0,0.0,0.0,0.0,0.0,0.0,0.0,0.0,0.0,0.0,0.0,0.0,0.0,0.0,0.0,0.0,0.0,0.0,0.0,0.0,0.0,0.0,0.0,0.0,0.0,0.0,0.0,0.0,0.0,0.0,0.0,0.0,0.0,0.0,0.0,0.0,0.0,0.0,0.0,0.0,0.0,0.0,0.0,0.0,0.0,0.0,0.0,0.0,0.0,0.0,0.0,0.0,0.0,0.0,0.0,0.0,0.0,0.0,0.0,0.0,0.0,0.0,0.0,0.0,0.0,0.0,0.0,0.0,0.0,0.0,0.0,0.0,0.0,0.0,0.0,0.0,0.0,0.0,0.0,0.0,0.0,0.0,0.0,0.0,0.0,0.0,0.0,0.0,0.0,0.0,0.0,0.0,0.0,0.0,0.0,0.0,0.0,0.0,0.0,0.0,0.0,0.0,0.0,0.0,0.0,0.0,0.0,0.0,0.0,0.0,0.0,0.0,0.0,0.0,0.0,0.0,0.0,0.0,0.0,0.0,0.0,0.0,0.0,0.0,0.0,0.0,0.0,0.0,0.0,0.0,0.0,0.0,0.0,0.0,0.0,0.0,0.0,0.0,0.0,0.0,0.0,0.0,0.0,0.0,0.0,0.0,0.0,0.0,0.0,0.0,0.0,0.0,0.0,0.0,0.0,0.0,0.0,0.0,0.0,0.0,0.0,0.0,0.0,0.0,0.0,0.0,0.0,0.0,0.0,0.0,0.0,0.0,0.0,0.0,0.0,0.0,0.0,0.0,0.0,0.0,0.0,0.0,0.0,0.0,0.0,0.0,0.0,0.0,0.0,0.0,0.0,0.0,0.0,0.0,0.0,0.0,0.0,0.0,0.0,0.0,0.0,0.0,0.0,0.0,0.0,0.0,0.0,0.0,0.0,0.0,0.0,0.0,0.0,0.0,0.0,0.0,0.0,0.0,0.0,0.0,0.0,0.0,0.0,0.0,0.0,0.0,0.0,0.0,0.0,0.0,0.0,0.0,0.0,0.0,0.0,0.0,0.0,0.0,0.0,0.0,0.0,0.0,0.0,0.0,0.0,0.0,0.0,0.0,0.0,0.0,0.0,0.0,0.0,0.0,0.0,0.0,0.0,0.0,0.0,0.0,0.0,0.0,0.0,0.0,0.0,0.0,0.0,0.0,0.0,0.0,0.0,0.0,0.0,0.0,0.0,0.0,0.0,0.0,0.0,0.0,0.0,0.0,0.0,0.0,0.0,0.0,0.0,0.0,0.0,0.0,0.0,0.0,0.0,0.0,0.0,0.0,0.0,0.0,0.0,0.0,0.0,0.0,0.0,0.0,0.0,0.0,0.0,0.0,0.0,0.0,0.0,0.0,0.0,0.0,0.0,0.0,0.0,0.0,0.0,0.0,0.0,0.0,0.0,0.0,0.0,0.0,0.0,0.0,0.0,0.0,0.0,0.0,0.0,0.0,0.0,0.0,0.0,0.0,0.0,0.0,0.0,0.0,0.0,0.0,0.0,0.0,0.0,0.0,0.0,0.0,0.0,0.0,0.0,0.0,0.0,0.0,0.0,0.0,0.0,0.0,0.0,0.0,0.0,0.0,0.0,0.0,0.0,0.0,0.0,0.0,0.0,0.0,0.0,0.0,0.0,0.0,0.0,0.0,0.0,0.0,0.0,0.0,0.0,0.0,0.0,0.0,0.0,0.0,0.0,0.0,0.0,0.0,0.0,0.0,0.0,0.0,0.0,0.0,0.0,0.0,0.0,0.0,0.0,0.0,0.0,0.0,0.0,0.0,0.0,0.0,0.0,0.0,0.0,0.0,0.0,0.0,0.0,0.0,0.0,0.0,0.0,0.0,0.0,0.0,0.0,0.0,0.0,0.0,0.0,0.0,0.0,0.0,0.0,0.0,0.0,0.0,0.0,0.0,0.0,0.0,0.0,0.0,0.0,0.0,0.0,0.0,0.0,0.0,0.0,0.0,0.0,0.0,0.0,0.0,0.0,0.0,0.0,0.0,0.0,0.0,0.0,0.0,0.0,0.0,0.0,0.0,0.0,0.0,0.0,0.0,0.0,0.0,0.0,0.0,0.0,0.0,0.0,0.0,0.0,0.0,0.0,0.0,0.0,0.0,0.0,0.0,0.0,0.0,0.0,0.0,0.0,0.0,0.0,0.0,0.0,0.0,0.0,0.0,0.0,0.0,0.0,0.0,0.0,0.0,0.0,0.0,0.0,0.0,0.0,0.0,0.0,0.0,0.0,0.0,0.0,0.0,0.0,0.0,0.0,0.0,0.0,0.0,0.0,0.0,0.0,0.0,0.0,0.0,0.0,0.0,0.0,0.0,0.0,0.0,0.0,0.0,0.0,0.0,0.0,0.0,0.0,0.0,0.0,0.0,0.0,0.0,0.0,0.0,0.0,0.0,0.0,0.0,0.0,0.0,0.0,0.0,0.0,0.0,0.0,0.0,0.0,0.0,0.0,0.0,0.0,0.0,0.0,0.0,0.0,0.0,0.0,0.0,0.0,0.0,0.0,0.0,0.0,0.0,0.0,0.0,0.0,0.0,0.0,0.0,0.0,0.0,0.0,0.0,0.0,0.0,0.0,0.0,0.0,0.0,0.0,0.0,0.0,0.0,0.0,0.0,0.0,0.0,0.0,0.0,0.0,0.0,0.0,0.0,0.0,0.0,0.0,0.0,0.0,0.0,0.0,0.0,0.0,0.0,0.0,0.0,0.0,0.0,0.0,0.0,0.0,0.0,0.0,0.0,0.0,0.0,0.0,0.0,0.0,0.0,0.0,0.0,0.0,0.0,0.0,0.0,0.0,0.0,0.0,0.0,0.0,0.0,0.0,0.0,0.0,0.0,0.0,0.0,0.0,0.0,0.0,0.0,0.0,0.0,0.0,0.0,0.0,0.0,0.0,0.0,0.0,0.0,0.0,0.0,0.0,0.0,0.0,0.0,0.0,0.0,0.0,0.0,0.0,0.0,0.0,0.0,0.0,0.0,0.0,0.0,0.0,0.0,0.0,0.0,0.0,0.0,0.0,0.0,0.0,0.0,0.0,0.0,0.0,0.0,0.0,0.0,0.0,0.0,0.0,0.0,0.0,0.0,0.0,0.0,0.0,0.0,0.0,0.0,0.0,0.0,0.0,0.0,0.0,0.0,0.0,0.0,0.0,0.0,0.0,0.0,0.0,0.0,0.0,0.0,0.0,0.0,0.0,0.0,0.0,0.0,0.0,0.0,0.0,0.0,0.0,0.0,0.0,0.0,0.0,0.0,0.0,0.0,0.0,0.0,0.0,0.0,0.0,0.0,0.0,0.0,0.0,0.0,0.0,0.0,0.0,0.0,0.0,0.0,0.0,0.0,0.0,0.0,0.0,0.0,0.0,0.0,0.0,0.0,0.0,0.0,0.0,0.0,0.0,0.0,0.0,0.0,0.0,0.0,0.0,0.0,0.0,0.0,0.0,0.0,0.0,0.0,0.0,0.0,0.0,0.0,0.0,0.0,0.0,0.0,0.0,0.0,0.0,0.0,0.0,0.0,0.0,0.0,0.0,0.0,0.0,0.0,0.0,0.0,0.0,0.0,0.0,0.0,0.0,0.0,0.0,0.0,0.0,0.0,0.0,0.0,0.0,0.0,0.0,0.0,0.0,0.0,0.0,0.0,0.0,0.0,0.0,0.0,0.0,0.0,0.0,0.0,0.0,0.0,0.0,0.0,0.0,0.0,0.0,0.0,0.0,0.0,0.0,0.0,0.0,0.0,0.0,0.0,0.0,0.0,0.0,0.0,0.0,0.0,0.0,0.0,0.0,0.0,0.0,0.0,0.0,0.0,0.0,0.0,0.0,0.0,0.0,0.0,0.0,0.0,0.0,0.0,0.0,0.0,0.0,0.0,0.0,0.0,0.0,0.0,0.0,0.0,0.0,0.0,0.0,0.0,0.0,0.0,0.0,0.0,0.0,0.0,0.0,0.0,0.0,0.0,0.0,0.0,0.0,0.0,0.0,0.0,0.0,0.0,0.0,0.0,0.0,0.0,0.0,0.0,0.0,0.0,0.0,0.0,0.0,0.0,0.0,0.0,0.0,0.0,0.0,0.0,0.0,0.0,0.0,0.0,0.0,0.0,0.0,0.0,0.0,0.0,0.0,0.0,0.0,0.0,0.0,0.0,0.0,0.0,0.0,0.0,0.0,0.0,0.0,0.0,0.0,0.0,0.0,0.0,0.0,0.0,0.0,0.0,0.0,0.0,0.0,0.0,0.0,0.0,0.0,0.0,0.0,0.0,0.0,0.0,0.0,0.0,0.0,0.0,0.0,0.0,0.0,0.0,0.0,0.0,0.0,0.0,0.0,0.0,0.0,0.0,0.0,0.0,0.0,0.0,0.0,0.0,0.0,0.0,0.0,0.0,0.0,0.0,0.0,0.0,0.0,0.0,0.0,0.0,0.0,0.0,0.0,0.0,0.0,0.0,0.0,0.0,0.0,0.0,0.0,0.0,0.0,0.0,0.0,0.0,0.0,0.0,0.0,0.0,0.0,0.0,0.0,0.0,0.0,0.0,0.0,0.0,0.0,0.0,0.0,0.0,0.0,0.0,0.0,0.0,0.0,0.0,0.0,0.0,0.0,0.0,0.0,0.0,0.0,0.0,0.0,0.0,0.0,0.0,0.0,0.0,0.0,0.0,0.0,0.0,0.0,0.0,0.0,0.0,0.0,0.0,0.0,0.0,0.0,0.0,0.0,0.0,0.0,0.0,0.0,0.0,0.0,0.0,0.0,0.0,0.0,0.0,0.0,0.0,0.0,0.0,0.0,0.0,0.0,0.0,0.0,0.0,0.0,0.0,0.0,0.0,0.0,0.0,0.0,0.0,0.0,0.0,0.0,0.0,0.0,0.0,0.0,0.0,0.0,0.0,0.0,0.0,0.0,0.0,0.0,0.0,0.0,0.0,0.0,0.0,0.0,0.0,0.0,0.0,0.0,0.0,0.0,0.0,0.0,0.0,0.0,0.0,0.0,0.0,0.0,0.0,0.0,0.0,0.0,0.0,0.0,0.0,0.0,0.0,0.0,0.0,0.0,0.0,0.0,0.0,0.0,0.0,0.0,0.0,0.0,0.0,0.0,0.0,0.0,0.0,0.0,0.0,0.0,0.0,0.0,0.0,0.0,0.0,0.0,0.0,0.0,0.0,0.0,0.0,0.0,0.0,0.0,0.0,0.0,0.0,0.0,0.0,0.0,0.0,0.0,0.0,0.0,0.0,0.0,0.0,0.0,0.0,0.0,0.0,0.0,0.0,0.0,0.0,0.0,0.0,0.0,0.0,0.0,0.0,0.0,0.0,0.0,0.0,0.0,0.0,0.0,0.0,0.0,0.0,0.0,0.0,0.0,0.0,0.0,0.0,0.0,0.0,0.0,0.0,0.0,0.0,0.0,0.0,0.0,0.0,0.0,0.0,0.0,0.0,0.0,0.0,0.0,0.0,0.0,0.0,0.0,0.0,0.0,0.0,0.0,0.0,0.0,0.0,0.0,0.0,0.0,0.0,0.0,0.0,0.0,0.0,0.0,0.0,0.0,0.0,0.0,0.0,0.0,0.0,0.0,0.0,0.0,0.0,0.0,0.0,0.0,0.0,0.0,0.0,0.0,0.0,0.0,0.0,0.0,0.0,0.0,0.0,0.0,0.0,0.0,0.0,0.0,0.0,0.0,0.0,0.0,0.0,0.0,0.0,0.0,0.0,0.0,0.0,0.0,0.0,0.0,0.0,0.0,0.0,0.0,0.0,0.0,0.0,0.0,0.0,0.0,0.0,0.0,0.0,0.0,0.0,0.0,0.0,0.0,0.0,0.0,0.0,0.0,0.0,0.0,0.0,0.0,0.0,0.0,0.0,0.0,0.0,0.0,0.0,0.0,0.0,0.0,0.0,0.0,0.0,0.0,0.0,0.0,0.0,0.0,-0.5238,0.0,0.0,0.0,0.0,0.0,0.0,0.0,0.0,0.0,0.0,0.0,0.0,0.0,0.0,0.0,0.0,0.0,0.0,0.0,0.0,0.0,0.0,0.0,0.0,0.0,0.0,0.0,0.0,0.0,0.0,0.0,0.0,0.0,0.0,0.0,0.0,0.0,0.0,-0.6498,-0.6458,-0.6392,-0.6288,-0.637,-0.6446,-0.654,0.0,0.0,0.0,0.0,0.0,0.0,0.0,0.0,0.0,0.0,0.0,0.0,0.0,0.0,0.0,0.0,0.0,0.0,0.0,0.0,0.0,0.0,0.0,0.0,0.0,0.0,0.0,0.0,0.0,0.0,0.0,0.0,0.0,0.0,0.0,0.0,0.0,0.0,0.0,0.0,0.0,0.0,0.0,0.0,0.0,0.0,0.0,0.0,0.0,0.0,0.0,0.0,0.0,0.0,0.0,0.0,0.0,0.0,0.0,0.0,0.0,0.0,0.0,0.0,0.0,0.0,0.0,0.0,0.0,0.0,0.0,-0.5305,0.0,0.0,0.0,0.0,0.0,0.0,0.0,0.0,0.0,0.0,0.0,0.0,0.0,0.0,0.0,0.0,0.0,0.0,0.0,0.0,0.0,0.0,0.0,-0.4812,-0.5436,-0.6312,-0.6412,-0.6412,0.0,0.0,0.0,0.0,0.0,0.0,-0.6442,-0.6394,-0.6438,-0.6578,-0.6464,-0.6371,-0.6334,-0.6148,-0.6252,-0.6565,-0.6309,0.0,0.0,0.0,0.0,0.0,0.0,0.0,0.0,0.0,0.0,0.0,0.0,0.0,0.0,0.0,0.0,0.0,0.0,0.0,0.0,0.0,0.0,0.0,0.0,0.0,0.0,0.0,0.0,0.0,0.0,0.0,0.0,0.0,0.0,0.0,0.0,0.0,0.0,0.0,0.0,0.0,0.0,0.0,0.0,0.0,0.0,0.0,0.0,0.0,0.0,0.0,0.0,0.0,0.0,0.0,0.0,0.0,0.0,0.0,0.0,0.0,0.0,0.0,-0.5756,-0.5749,-0.5751,-0.581,-0.6028,-0.6388,-0.5887,-0.5678,-0.5718,-0.5538,0.0,0.0,0.0,0.0,0.0,0.0,0.0,0.0,0.0,0.0,0.0,0.0,0.0,0.0,0.0,0.0,0.0,0.0,0.0,0.0,0.0,-0.5602,-0.6237,-0.6387,-0.6412,-0.6412,-0.6412,0.0,0.0,0.0,0.0,0.0,-0.6566,-0.6344,-0.6318,-0.6525,-0.6168,-0.6016,-0.6037,-0.5736,-0.5764,-0.6098,-0.617,-0.6295,-0.644,0.0,0.0,0.0,0.0,0.0,0.0,0.0,0.0,0.0,0.0,0.0,0.0,0.0,0.0,0.0,0.0,0.0,0.0,0.0,0.0,0.0,0.0,0.0,0.0,0.0,0.0,0.0,0.0,0.0,0.0,0.0,0.0,0.0,0.0,0.0,0.0,0.0,0.0,0.0,0.0,0.0,-0.5571,-0.5593,0.0,0.0,0.0,0.0,0.0,0.0,0.0,0.0,0.0,0.0,0.0,0.0,0.0,-0.5886,-0.5886,-0.5906,-0.59,-0.59,-0.6159,-0.6305,-0.6305,-0.6581,-0.6773,-0.6815,-0.6745,0.0,-0.6636,-0.661,0.0,0.0,0.0,0.0,0.0,0.0,0.0,0.0,0.0,0.0,0.0,0.0,0.0,0.0,0.0,0.0,0.0,0.0,0.0,0.0,0.0,-0.3692,-0.4566,-0.5162,-0.5869,-0.6234,-0.6132,-0.6256,0.0,0.0,0.0,-0.6572,-0.6719,-0.6498,-0.6322,-0.6207,-0.6038,-0.5955,-0.5948,-0.5787,-0.5789,-0.5946,-0.6013,-0.617,-0.6393,-0.6381,0.0,0.0,0.0,0.0,0.0,0.0,0.0,0.0,0.0,0.0,0.0,0.0,0.0,0.0,0.0,0.0,0.0,0.0,0.0,0.0,0.0,0.0,0.0,0.0,0.0,0.0,0.0,0.0,0.0,0.0,0.0,0.0,0.0,0.0,0.0,0.0,0.0,0.0,0.0,-0.5639,-0.572,-0.572,-0.5735,-0.5802,0.0,0.0,0.0,0.0,0.0,0.0,0.0,0.0,0.0,-0.5886,-0.5937,-0.5963,-0.5963,-0.6231,-0.6353,-0.6351,-0.6726,-0.6915,-0.6915,-0.7074,-0.7197,-0.7352,-0.7352,-0.7452,-0.7549,-0.7027,-0.6659,-0.6481,0.0,0.0,0.0,0.0,-0.7161,-0.7179,0.0,0.0,0.0,0.0,0.0,0.0,0.0,0.0,0.0,0.0,0.0,0.0,-0.1507,-0.2759,-0.3887,-0.4713,-0.5657,-0.6111,-0.5928,-0.6185,-0.6323,-0.6264,-0.6512,-0.6722,-0.6844,-0.6612,-0.6329,-0.5947,-0.5973,-0.5936,-0.5886,-0.5886,-0.5886,-0.5886,-0.5886,-0.6045,-0.6284,-0.6305,-0.6341,-0.6354,0.0,0.0,0.0,0.0,0.0,0.0,0.0,0.0,0.0,0.0,0.0,0.0,0.0,0.0,0.0,0.0,0.0,0.0,0.0,0.0,0.0,0.0,0.0,0.0,0.0,0.0,0.0,0.0,0.0,0.0,0.0,0.0,0.0,0.0,0.0,0.0,0.0,-0.5757,-0.5825,-0.5847,-0.589,-0.5922,0.0,0.0,0.0,0.0,0.0,0.0,-0.5984,-0.5984,-0.6017,-0.611,-0.6145,-0.6214,-0.6339,-0.6664,-0.6857,-0.6857,-0.7242,-0.7399,-0.7399,-0.7495,-0.7623,-0.7813,-0.7813,-0.7975,-0.8151,-0.7452,-0.7089,-0.7034,-0.7364,-0.7434,-0.7364,-0.7783,-0.7949,-0.7965,0.0,0.0,0.0,0.0,0.0,0.0,0.0,0.0,0.0,0.0,0.0,-0.2498,-0.262,-0.4554,-0.59,-0.6082,-0.6156,-0.6141,-0.6004,-0.6293,-0.6461,-0.6381,-0.6637,-0.685,-0.6975,-0.6659,-0.6262,-0.5804,-0.5861,-0.5908,-0.5886,-0.5886,-0.5886,-0.5886,-0.5886,-0.591,-0.5923,-0.5869,-0.5979,-0.6194,-0.6072,0.0,0.0,0.0,0.0,0.0,0.0,0.0,0.0,0.0,0.0,0.0,0.0,0.0,0.0,0.0,0.0,0.0,0.0,0.0,0.0,0.0,0.0,0.0,0.0,0.0,0.0,0.0,0.0,0.0,0.0,0.0,0.0,0.0,0.0,0.0,0.0,0.0,0.0,-0.5966,-0.5937,0.0,0.0,0.0,0.0,-0.5982,-0.5986,-0.605,-0.6161,-0.62,-0.6328,-0.6652,-0.6658,-0.6851,-0.7235,-0.7269,-0.7274,-0.7271,-0.7557,-0.7682,-0.7685,-0.801,-0.817,-0.817,-0.817,-0.817,-0.8202,-0.8153,-0.7888,-0.7603,-0.7944,-0.7782,-0.7452,-0.7907,-0.8074,-0.8094,0.0,0.0,0.0,0.0,0.0,0.0,0.0,0.0,0.0758,0.0682,-0.0518,-0.1374,-0.1409,-0.3393,-0.4738,-0.4794,-0.5538,-0.5926,-0.5767,-0.6179,-0.6404,-0.6332,-0.6718,-0.6857,-0.6695,-0.6442,-0.6165,-0.587,-0.5902,-0.5886,-0.5886,-0.5886,-0.5886,-0.5886,-0.5886,-0.5886,-0.5884,-0.5882,-0.5895,-0.5953,-0.6064,-0.6197,0.0,0.0,0.0,0.0,0.0,0.0,0.0,0.0,0.0,0.0,0.0,0.0,0.0,0.0,0.0,0.0,0.0,0.0,0.0,0.0,0.0,0.0,0.0,0.0,0.0,0.0,0.0,0.0,0.0,0.0,0.0,0.0,0.0,0.0,0.0,0.0,0.0,-0.593,-0.5957,0.0,-0.6127,-0.6106,-0.622,-0.6543,-0.6492,-0.6598,-0.6885,-0.6919,-0.6954,-0.7082,-0.7115,-0.7215,-0.7377,-0.7671,-0.7807,-0.7807,-0.8131,-0.8295,-0.8295,-0.8396,-0.8462,-0.8462,-0.8462,-0.8462,-0.8462,-0.8462,-0.8283,-0.802,-0.8226,-0.8199,-0.8079,-0.8323,-0.8429,-0.8435,0.0,0.0,0.0,0.0,0.0,0.0,0.0,0.0,0.0862,0.0231,-0.0607,-0.1324,-0.176,-0.3484,-0.4603,-0.4629,-0.542,-0.5869,-0.5775,-0.6196,-0.646,-0.65,-0.6824,-0.6812,-0.6421,-0.6281,-0.6094,-0.5886,-0.5886,-0.5886,-0.5886,-0.5886,-0.5886,-0.5886,-0.5886,-0.5886,-0.5886,-0.5886,-0.5882,-0.5855,-0.6,-0.6061,-0.6089,0.0,0.0,0.0,0.0,0.0,0.0,0.0,0.0,0.0,0.0,0.0,0.0,0.0,0.0,0.0,0.0,0.0,0.0,0.0,0.0,0.0,0.0,0.0,0.0,0.0,0.0,0.0,0.0,0.0,0.0,0.0,0.0,0.0,0.0,-0.5988,-0.6016,-0.6018,-0.6046,-0.6163,-0.6414,-0.6393,-0.6576,-0.7035,-0.698,-0.7052,-0.7347,-0.7382,-0.7447,-0.7574,-0.7613,-0.7683,-0.7815,-0.812,-0.8256,-0.8256,-0.8487,-0.8587,-0.8587,-0.8587,-0.8587,-0.8587,-0.8587,-0.8587,-0.8587,-0.8587,-0.8494,-0.8329,-0.8443,-0.8475,-0.8484,-0.856,-0.8587,-0.8587,0.0,0.0,0.0,0.0,0.0,0.0,0.053,0.1086,0.0947,-0.0848,-0.1621,-0.2505,-0.3861,-0.5072,-0.5821,-0.588,-0.5916,-0.5964,-0.6106,-0.6352,-0.6626,-0.6896,-0.6942,-0.6725,-0.6223,-0.6197,-0.6097,-0.5886,-0.5886,-0.5886,-0.5886,-0.5886,-0.5886,-0.5886,-0.5886,-0.5886,-0.5886,-0.5886,-0.5886,-0.588,-0.5821,-0.5962,-0.6175,0.0,0.0,0.0,0.0,0.0,0.0,0.0,0.0,0.0,0.0,0.0,0.0,0.0,0.0,0.0,0.0,0.0,0.0,0.0,0.0,0.0,0.0,0.0,0.0,0.0,0.0,0.0,0.0,0.0,0.0,0.0,0.0,0.0,-0.6038,-0.6129,-0.6212,-0.6302,-0.6237,-0.6414,-0.6871,-0.6796,-0.6909,-0.7397,-0.7437,-0.745,-0.7522,-0.7526,-0.7724,-0.8092,-0.8125,-0.8256,-0.8587,-0.8587,-0.859,-0.8592,-0.8592,-0.8595,-0.8598,-0.8598,-0.8598,-0.8598,-0.8598,-0.8598,-0.8598,-0.8598,-0.8598,-0.8598,-0.859,-0.8587,-0.8587,-0.8587,-0.8587,-0.8587,0.0,0.0,0.0,0.0,0.0,0.0,0.0732,0.1035,0.0793,-0.0636,-0.1557,-0.2567,-0.3865,-0.5121,-0.589,-0.5884,-0.6131,-0.6231,-0.6164,-0.6693,-0.7002,-0.6984,-0.6611,-0.6348,-0.6193,-0.6055,-0.5951,-0.5886,-0.5886,-0.5886,-0.5886,-0.5886,-0.5886,-0.5886,-0.5886,-0.5886,-0.5886,-0.5886,-0.5886,-0.5884,-0.589,-0.5899,-0.5893,0.0,0.0,0.0,0.0,0.0,0.0,0.0,0.0,0.0,0.0,0.0,0.0,0.0,0.0,0.0,0.0,0.0,0.0,0.0,0.0,0.0,0.0,0.0,0.0,0.0,0.0,0.0,0.0,0.0,0.0,0.0,-0.6306,-0.6247,-0.6157,-0.6166,-0.6222,-0.6215,-0.6513,-0.6745,-0.6878,-0.7116,-0.745,-0.7877,-0.7913,-0.8025,-0.8287,-0.8289,-0.8356,-0.8456,-0.8456,-0.8523,-0.8587,-0.8587,-0.8633,-0.8754,-0.8754,-0.8766,-0.8819,-0.8819,-0.8819,-0.8819,-0.8819,-0.8819,-0.8819,-0.8819,-0.8819,-0.88,-0.8655,-0.8587,-0.8587,-0.8587,-0.8587,-0.8587,0.0,0.0,0.0,0.0,0.0,0.0,0.0505,0.0783,0.0386,-0.1433,-0.2047,-0.2993,-0.4803,-0.5667,-0.6162,-0.6318,-0.6461,-0.6515,-0.6531,-0.7027,-0.7256,-0.7093,-0.6838,-0.6559,-0.6287,-0.6315,-0.6183,-0.5943,-0.6098,-0.6116,-0.6027,-0.6027,-0.6027,-0.6027,-0.6027,-0.6027,-0.6025,-0.5959,-0.5943,-0.5941,-0.5902,-0.5886,-0.5833,-0.5826,-0.5749,-0.5666,-0.5628,-0.5082,-0.4486,-0.522,0.0,0.0,0.0,0.0,0.0,0.0,0.0,0.0,0.0,0.0,0.0,0.0,0.0,0.0,0.0,0.0,0.0,0.0,0.0,0.0,0.0,0.0,0.0,0.0,-0.6508,-0.6584,-0.6529,-0.6523,-0.6523,-0.6523,-0.6898,-0.7233,-0.7403,-0.7621,-0.7891,-0.8289,-0.8323,-0.839,-0.8587,-0.8636,-0.8697,-0.8697,-0.8715,-0.8739,-0.8739,-0.8739,-0.8774,-0.8845,-0.8845,-0.8849,-0.8916,-0.8916,-0.8916,-0.8916,-0.8916,-0.8916,-0.8916,-0.8916,-0.8916,0.0,0.0,0.0,0.0,0.0,-0.8739,-0.8739,0.0,0.0,0.0,0.0,0.0,0.0,0.0076,0.0328,-0.0285,-0.2694,-0.2884,-0.3703,-0.6146,-0.6403,-0.6528,-0.687,-0.6803,-0.6849,-0.7053,-0.7335,-0.7386,-0.723,-0.7302,-0.7079,-0.6464,-0.6756,-0.6653,-0.6116,-0.6437,-0.6484,-0.6308,-0.6278,-0.6246,-0.6246,-0.6212,-0.6212,-0.6208,-0.6069,-0.6036,-0.603,-0.5949,-0.5935,-0.5908,-0.5827,-0.5796,-0.5786,-0.5675,-0.5526,-0.5436,-0.5573,0.0,0.0,0.0,0.0,0.0,0.0,0.0,0.0,0.0,0.0,0.0,0.0,0.0,0.0,0.0,0.0,0.0,0.0,0.0,0.0,0.0,0.0,0.0,0.0,-0.6757,-0.7051,-0.7051,-0.7085,-0.7118,-0.7051,-0.7357,-0.7694,-0.8058,-0.8123,-0.8295,-0.8606,-0.8609,-0.8614,-0.8628,0.0,0.0,0.0,0.0,-0.8916,-0.8916,-0.8916,-0.8924,-0.8938,-0.8938,-0.8943,-0.8957,-0.8957,-0.8957,-0.8957,-0.8957,-0.8957,-0.8957,-0.8957,-0.8957,-0.8954,-0.8927,-0.8916,-0.8916,-0.8916,-0.8916,-0.8916,0.0,0.0,0.0,0.0,0.0,0.0,0.0025,-0.0454,-0.1346,-0.2803,-0.3527,-0.4534,-0.6209,-0.6403,-0.6528,-0.687,-0.7012,-0.7239,-0.7549,-0.7365,-0.7295,-0.7347,-0.7131,-0.6931,-0.6806,-0.6979,-0.7,-0.6894,-0.7073,-0.7125,-0.7079,-0.6761,-0.6601,-0.6601,-0.631,-0.6212,-0.6212,-0.6161,-0.6155,-0.6153,-0.6137,-0.6045,-0.5884,-0.5898,-0.5892,-0.5888,-0.5841,-0.5158,-0.4383,-0.5416,-0.4875,-0.3949,-0.5119,-0.5265,0.0,0.0,0.0,0.0,0.0,0.0,0.0,0.0,0.0,0.0,0.0,0.0,0.0,0.0,0.0,0.0,0.0,0.0,0.0,-0.6839,-0.7121,-0.739,-0.739,-0.7691,-0.7758,-0.7457,-0.7758,-0.8025,-0.8092,-0.8356,-0.8563,-0.8762,-0.877,-0.8777,-0.8841,-0.887,-0.8881,-0.8881,-0.8906,-0.8916,-0.8916,-0.8916,-0.8965,-0.9065,0.0,0.0,-0.9237,-0.9237,-0.9237,-0.9237,-0.9237,-0.9237,-0.9237,-0.9237,-0.9237,-0.9217,-0.8992,-0.8916,-0.8916,-0.8916,-0.8916,-0.8916,0.0,0.0,0.0,0.0,0.0,0.0,0.0,-0.0807,-0.1831,-0.2992,-0.398,-0.5113,-0.6552,-0.6711,-0.6831,-0.716,-0.7285,-0.7455,-0.7698,-0.7549,-0.7509,-0.7653,-0.7477,-0.7352,-0.7255,-0.7494,-0.7481,-0.7239,-0.7485,-0.7542,-0.74,-0.7206,-0.7107,-0.7107,-0.6941,-0.6843,-0.6839,-0.6627,-0.6543,-0.6539,-0.6297,-0.6127,-0.5984,-0.5229,-0.5417,-0.5955,-0.5229,-0.5006,-0.5156,-0.5776,-0.5108,-0.4224,-0.5445,-0.5018,-0.4169,0.0,0.0,0.0,0.0,0.0,0.0,0.0,0.0,0.0,0.0,0.0,0.0,0.0,0.0,-0.7032,-0.6997,0.0,-0.7346,-0.7212,-0.7522,-0.7791,-0.7791,-0.8174,-0.8288,-0.7866,-0.8123,-0.838,-0.8441,-0.8612,-0.8728,-0.8853,-0.8861,-0.8854,-0.8914,-0.8973,-0.9008,-0.9008,-0.9063,-0.9092,-0.9092,-0.9092,-0.9122,-0.9184,-0.9184,-0.9247,-0.9304,-0.9304,-0.9304,-0.9304,-0.9304,-0.9304,-0.9304,-0.9304,-0.9304,-0.9294,-0.9138,-0.9092,-0.9092,-0.9092,-0.9092,-0.9092,0.0,0.0,0.0,0.0,0.0,0.0,0.0,-0.0908,-0.2003,-0.3105,-0.4219,-0.5414,-0.6812,-0.6983,-0.7142,-0.746,-0.7511,-0.7595,-0.7695,-0.7722,-0.7774,-0.7897,-0.7903,-0.7837,-0.771,-0.7984,-0.7941,-0.7596,-0.7878,-0.7934,-0.7724,-0.7658,-0.7627,-0.7627,-0.7526,-0.7493,-0.7488,-0.7141,-0.7008,-0.6966,-0.6523,-0.6362,-0.6166,-0.4347,-0.472,-0.6019,-0.4538,-0.4762,-0.5729,-0.547,-0.4634,-0.3958,-0.5021,-0.3933,-0.2532,-0.3977,-0.4305,0.0,0.0,0.0,0.0,0.0,0.0,0.0,0.0,-0.3945,-0.4879,-0.6086,-0.6653,-0.7006,-0.7299,-0.7502,-0.7627,-0.7627,-0.7976,-0.8223,-0.8223,-0.8561,-0.8667,-0.8303,-0.8492,-0.8696,-0.8796,-0.8804,-0.8856,-0.8943,-0.8952,-0.8962,-0.8984,-0.9079,-0.913,-0.913,-0.9256,-0.9304,-0.9304,-0.9304,-0.9304,-0.9304,-0.9304,-0.9304,-0.9304,-0.9304,-0.9304,-0.9304,-0.9304,-0.9304,-0.9304,-0.9304,-0.9304,-0.9304,-0.9304,-0.9304,-0.9304,-0.9304,-0.9304,-0.9304,0.0,0.0,0.0,0.0,0.0,0.0,0.0,0.0,-0.1968,-0.3,-0.4159,-0.5389,-0.6676,-0.6937,-0.7142,-0.746,-0.7619,-0.7687,-0.7701,-0.7796,-0.7889,-0.7903,-0.7903,-0.796,-0.8051,-0.8128,-0.8215,-0.8288,-0.8453,-0.8507,-0.8454,-0.8156,-0.8025,-0.8025,-0.7658,-0.7493,-0.7491,-0.7448,-0.7443,-0.7407,-0.7058,-0.6918,-0.6583,-0.354,-0.3979,-0.6019,-0.4538,-0.4119,-0.4054,-0.28,-0.2285,-0.2189,-0.2349,-0.2206,-0.2344,-0.3925,-0.3646,-0.3152,-0.4698,-0.326,-0.1137,-0.0384,-0.0193,-0.0259,0.0,-0.2411,-0.4403,-0.4896,-0.6056,-0.7102,-0.7407,-0.7784,-0.8025,-0.8025,-0.841,-0.8716,-0.8716,-0.8822,-0.8857,-0.8809,-0.8841,-0.8881,-0.8895,-0.8895,-0.8949,-0.9071,-0.9079,-0.9122,-0.9258,-0.9277,-0.9285,-0.9285,-0.9296,-0.9304,-0.9304,-0.9304,-0.9304,-0.9304,-0.9304,-0.9304,-0.9304,-0.9304,-0.9304,-0.9304,-0.9304,-0.9304,-0.9304,-0.9304,-0.9304,-0.9304,-0.9304,-0.9304,-0.9304,-0.9304,-0.9304,-0.9304,0.0,0.0,0.0,0.0,0.0,0.0,0.0,0.0,-0.201,-0.313,-0.4262,-0.5467,-0.6774,-0.7042,-0.7223,-0.7476,-0.7565,-0.7655,-0.7821,-0.7875,-0.7903,-0.7903,-0.7903,-0.7993,-0.8155,-0.8177,-0.8296,-0.8516,-0.8565,-0.8587,-0.8587,-0.8456,-0.839,-0.839,-0.8223,-0.8156,-0.8123,-0.7925,-0.7352,-0.6543,-0.6211,-0.5542,-0.4637,-0.3091,-0.3201,-0.3957,-0.2484,-0.2509,0.0,-0.2576,-0.2381,-0.2318,-0.2106,-0.2208,-0.2392,-0.2247,-0.2563,-0.2895,-0.2625,-0.1022,0.0673,0.1139,0.111,0.0753,-0.0132,-0.1421,-0.2677,-0.3652,-0.5203,-0.641,-0.6543,-0.7636,-0.8493,-0.8493,-0.8694,-0.8841,-0.8841,-0.8946,-0.9022,-0.9022,-0.9082,-0.9095,-0.903,-0.9022,-0.9071,-0.919,-0.9234,-0.9256,-0.9302,-0.9304,-0.9304,-0.9304,-0.9304,-0.9304,-0.9304,-0.9304,-0.9304,-0.9304,-0.9304,-0.9304,-0.9304,-0.9304,-0.9304,-0.9304,-0.9304,-0.9304,-0.9304,-0.9304,-0.9304,-0.9304,-0.9304,-0.9304,-0.9304,-0.9304,-0.9304,-0.9304,0.0,0.0,0.0,0.0,0.0,0.0,0.0,0.0,0.0,0.0,-0.3623,-0.4752,-0.6377,-0.6937,-0.7267,-0.7422,-0.747,-0.7606,-0.784,-0.7883,-0.7903,-0.7903,-0.7903,-0.7986,-0.8196,-0.8204,-0.8318,-0.8587,-0.8587,-0.8587,-0.8587,-0.8587,-0.8587,-0.8587,-0.8184,-0.7984,-0.7951,-0.7314,-0.6441,-0.5432,-0.5101,-0.4333,-0.3294,-0.2554,-0.2247,-0.2103,-0.0924,-0.1184,-0.2039,-0.1736,-0.1636,-0.1607,-0.1297,-0.1426,-0.1542,-0.0971,-0.1794,-0.249,-0.0713,0.0518,0.1392,0.1708,0.162,0.1193,0.0099,-0.0629,-0.1429,-0.2516,-0.4109,-0.5465,-0.6005,-0.7233,-0.8336,-0.8749,-0.8887,-0.8968,-0.8968,-0.9071,-0.9147,-0.9147,-0.9256,-0.9272,-0.9155,-0.9147,-0.9179,-0.9299,-0.9304,-0.9304,-0.9304,-0.9304,-0.9304,-0.9304,-0.9304,-0.9304,-0.9304,-0.9304,-0.9304,-0.9304,-0.9304,-0.9304,-0.9304,-0.9304,-0.9304,-0.9304,-0.9304,-0.9304,-0.9304,-0.9304,-0.9304,-0.9304,-0.9304,-0.9304,-0.9304,-0.9304,-0.9304,-0.9304,0.0,0.0,0.0,0.0,0.0,0.0,0.0,0.0,0.0,0.0,0.0,0.0,0.0,-0.6482,-0.7231,-0.7303,-0.7422,-0.7573,-0.7698,-0.784,-0.7903,-0.7903,-0.7903,-0.7986,-0.8196,-0.8204,-0.8318,-0.8587,-0.8587,-0.8587,-0.8587,-0.8587,-0.8587,-0.8554,-0.7114,-0.6475,-0.6374,-0.4999,-0.4395,-0.4326,-0.3995,-0.3829,-0.3594,-0.1814,-0.1134,-0.1088,-0.0658,-0.0526,-0.0394,0.0648,0.1,0.1003,0.0985,0.0989,0.069,-0.0905,-0.1704,-0.1673,0.0,0.0511,0.0615,0.0952,0.1066,0.111,0.1042,-0.0067,-0.1209,-0.1579,-0.2819,-0.442,-0.6233,-0.6611,-0.7157,-0.8665,-0.9014,-0.9092,-0.9092,-0.9226,-0.9299,-0.9299,-0.9302,-0.9302,-0.9299,-0.9299,-0.9299,-0.9304,-0.9304,-0.9304,-0.9304,-0.9304,-0.9304,-0.9304,-0.9304,-0.9304,-0.9304,-0.9304,-0.9304,-0.9304,-0.9304,-0.9304,-0.9304,-0.9304,-0.9304,-0.9304,-0.9304,-0.9304,-0.9304,-0.9304,-0.9304,-0.9304,-0.9304,-0.9304,-0.9304,-0.9304,-0.9304,-0.9304,0.0,0.0,0.0,0.0,0.0,0.0,0.0,0.0,0.0,0.0,0.0,0.0,0.0,0.0,0.0,0.0,-0.688,-0.7454,-0.769,-0.7736,-0.7823,-0.79,-0.7903,-0.7979,-0.8143,-0.8161,-0.7823,-0.7078,-0.7113,-0.6675,-0.5733,-0.5733,-0.5733,-0.5733,-0.5233,-0.4999,-0.4964,-0.4495,-0.3725,-0.2821,-0.2721,-0.2117,-0.1175,-0.0366,-0.0033,-0.0033,0.0,0.016,0.0224,0.0573,0.0704,0.0744,0.1017,0.0923,0.0558,-0.0227,-0.0577,-0.051,0.0291,0.0489,0.0591,0.0966,0.0872,0.0707,0.0707,0.0136,-0.0409,-0.0512,-0.1688,-0.2852,-0.3511,-0.5336,-0.6902,-0.7435,-0.8487,-0.9247,-0.9247,-0.928,-0.9304,-0.9304,-0.9304,-0.9304,-0.9304,-0.9304,0.0,-0.9304,-0.9304,-0.9304,-0.9304,-0.9304,-0.9304,-0.9304,-0.9304,-0.9304,-0.9304,-0.9304,-0.9304,-0.9304,-0.9304,-0.9304,-0.9304,-0.9304,-0.9304,-0.9304,-0.9304,-0.9304,-0.9304,-0.9304,-0.9304,-0.9304,-0.9304,-0.9304,-0.9304,-0.9304,-0.9304,-0.9304,0.0,0.0,0.0,0.0,0.0,0.0,0.0,0.0,0.0,0.0,0.0,0.0,0.0,0.0,0.0,0.0,0.0,-0.6306,-0.6617,-0.6995,-0.728,-0.7349,-0.7695,-0.796,-0.8083,-0.813,-0.7778,-0.6976,-0.6582,-0.5894,-0.4994,-0.4517,-0.4293,-0.4293,-0.3758,-0.3524,-0.349,-0.2987,-0.2211,-0.1335,-0.1335,-0.0799,0.0033,0.023,0.0326,0.0,0.0318,0.0315,0.0314,0.0315,0.0318,0.0354,0.0622,0.0527,0.0263,0.0065,0.0,0.0032,0.0263,0.0329,0.0397,0.0637,0.0505,0.0337,0.0305,0.0171,0.0,0.0,-0.0734,-0.1517,-0.2081,-0.4307,-0.6067,-0.6067,-0.7402,-0.8477,-0.8473,-0.8464,-0.8695,-0.9235,-0.9304,-0.9304,-0.9304,-0.9304,-0.9304,-0.9304,-0.9304,-0.9304,-0.9304,-0.9304,-0.9304,-0.9304,-0.9304,-0.9304,-0.9304,-0.9304,-0.9304,-0.9304,-0.9304,-0.9304,-0.9304,-0.9304,-0.9304,-0.9304,-0.9304,-0.9304,-0.9304,-0.9304,-0.9304,-0.9304,-0.9304,-0.9304,-0.9304,-0.9304,-0.9304,-0.9304,0.0,0.0,0.0,0.0,0.0,0.0,0.0,0.0,0.0,0.0,0.0,0.0,0.0,0.0,0.0,0.0,0.0,0.0,-0.4652,-0.5699,-0.6304,-0.6308,-0.7221,-0.779,-0.7897,-0.7918,-0.7917,-0.7896,-0.6677,-0.6037,-0.5941,-0.4691,-0.4084,-0.4017,-0.2615,-0.1979,-0.1912,-0.0571,0.0,0.0,0.0,0.0,0.0,0.0,0.0,0.0,0.0,0.0,0.0,0.0,0.0,0.0,0.0033,0.0,0.0,0.0,0.0,0.0,0.0,0.0,0.0,0.0,0.0,0.0,0.0,0.0,0.0,0.0,0.0,-0.043,-0.193,-0.3572,-0.4693,-0.4693,-0.6063,-0.7115,-0.7101,-0.7127,-0.7663,-0.9135,-0.9304,-0.9304,-0.9304,-0.9304,-0.9304,-0.9304,0.0,-0.9304,-0.9304,-0.9304,-0.9304,-0.9304,-0.9304,-0.9304,-0.9304,-0.9304,-0.9304,-0.9304,-0.9304,-0.9304,-0.9304,-0.9304,-0.9304,-0.9304,-0.9304,-0.9304,-0.9304,-0.9304,-0.9304,-0.9304,-0.9304,-0.9304,-0.9304,-0.9304,-0.9304,-0.9304,0.0,0.0,0.0,0.0,0.0,0.0,0.0,0.0,0.0,0.0,0.0,0.0,0.0,0.0,0.0,0.0,0.0,0.0,-0.4302,-0.483,-0.517,-0.5198,-0.5488,-0.5574,-0.535,-0.5444,-0.486,-0.3582,-0.3292,-0.2622,-0.1588,-0.1269,-0.1108,-0.1076,-0.0718,-0.0522,-0.0522,-0.0163,0.0,0.0,0.0,0.0,0.0,0.0,0.0,0.0,0.0,0.0,0.0,0.0,0.0,0.0033,0.03,0.0201,0.0,0.0,0.0,0.0,0.0,0.0,0.0,0.0,0.0,0.0,0.0,0.0,0.0,0.0,0.0,-0.0109,-0.0508,-0.2833,-0.4693,-0.4693,-0.6962,-0.8718,-0.8726,-0.8711,-0.8863,-0.9271,-0.9304,-0.9304,-0.9304,-0.9304,-0.9304,0.0,-0.9304,-0.9304,-0.9304,-0.9304,-0.9304,-0.9304,-0.9304,-0.9304,-0.9304,-0.9304,-0.9304,-0.9304,-0.9304,-0.9304,-0.9304,-0.9304,-0.9304,-0.9304,-0.9304,-0.9304,-0.9304,-0.9304,-0.9304,-0.9304,-0.9304,-0.9304,-0.9304,-0.9304,-0.9304,-0.9304,0.0,0.0,0.0,0.0,0.0,0.0,0.0,0.0,0.0,0.0,0.0,0.0,0.0,0.0,0.0,0.0,0.0,0.0,0.0,-0.3345,-0.3717,-0.375,-0.4339,-0.4593,-0.4404,-0.4582,-0.4138,-0.3048,-0.2489,-0.1769,-0.0854,-0.0289,0.0,0.0,0.0,0.0,0.0,0.0,0.0,0.0,0.0,0.0,0.0,0.0,0.0,0.0,0.0,0.0094,0.0255,0.0418,0.049,0.0499,0.0705,0.0505,0.0236,0.0236,0.0101,0.0,0.0,0.0,0.0,0.0,0.0,0.0,0.0,0.0,0.0,0.0,0.0,0.0,0.0,-0.2559,-0.4483,-0.3776,-0.6268,-0.8302,-0.8292,-0.829,-0.8557,-0.9238,-0.9304,-0.9304,-0.9304,-0.9304,-0.9304,-0.9304,-0.9304,-0.9304,-0.9304,-0.9304,-0.9304,-0.9304,-0.9304,-0.9304,-0.9304,-0.9304,-0.9304,-0.9304,-0.9304,-0.9304,-0.9304,-0.9304,-0.9304,-0.9304,0.0,-0.9304,-0.9304,-0.9304,-0.9304,-0.9304,-0.9304,-0.9304,-0.9304,-0.9304,-0.9304,-0.9304,0.0,0.0,0.0,0.0,0.0,0.0,0.0,0.0,0.0,0.0,0.0,0.0,0.0,0.0,0.0,0.0,0.0,0.0,0.0,0.0,-0.2203,-0.2203,-0.331,-0.3918,-0.388,-0.4102,-0.4081,-0.3816,-0.2662,-0.1967,-0.1697,-0.0539,0.0,0.0,0.0,0.0,0.0,0.0,0.0,0.0,0.0,0.0,0.0,0.0,0.0,0.0,0.0,0.0221,0.055,0.0953,0.1099,0.1111,0.1144,0.0909,0.0572,0.0505,0.0303,0.0067,0.0,0.0,0.0,0.0,0.0,0.0,0.0,0.0,0.0,0.0,0.0,0.0,0.0,-0.2385,-0.398,-0.2807,-0.5101,-0.707,-0.728,-0.7303,-0.7803,-0.9135,-0.9304,-0.9304,-0.9304,-0.9304,-0.9304,-0.9304,-0.9304,-0.9304,-0.9304,-0.9304,-0.9304,-0.9304,-0.9304,-0.9304,-0.9304,-0.9304,-0.9304,-0.9304,-0.9304,-0.9304,-0.9304,-0.9321,-0.9329,-0.9329,-0.9345,0.0,-0.9353,-0.9353,-0.9353,-0.9353,-0.9353,-0.9353,-0.9353,-0.9353,-0.9353,-0.9353,0.0,0.0,0.0,0.0,0.0,0.0,0.0,0.0,0.0,0.0,0.0,0.0,0.0,0.0,0.0,0.0,0.0,0.0,0.0,0.0,0.0,-0.1154,-0.1373,-0.1376,-0.1102,-0.119,-0.1089,-0.0765,-0.054,-0.0396,-0.0339,-0.0124,0.0,0.0,0.0,0.0,0.0,0.0,0.0,0.0,0.0,0.0,0.0,0.0,0.0,0.0,0.0,0.0225,0.0551,0.0964,0.1108,0.1144,0.1414,0.1279,0.0942,0.0606,0.0471,0.0337,0.0067,0.0,0.0,0.0,0.0,0.0,0.0,0.0,0.0,0.0,0.0,0.0,0.0,-0.1496,-0.3059,-0.4124,-0.5801,-0.7434,-0.8724,-0.8884,-0.9,-0.9271,-0.9304,-0.9304,-0.9304,-0.9304,-0.9304,-0.9304,-0.9304,-0.9304,-0.9304,-0.9304,-0.9304,-0.9304,-0.9304,-0.9304,-0.9304,-0.9304,-0.9304,-0.9304,-0.9304,-0.9304,-0.9307,-0.941,-0.9454,-0.9459,-0.96,0.0,-0.9643,-0.9643,-0.9643,-0.9643,-0.9643,-0.9643,-0.9643,-0.9643,-0.9643,-0.9643,0.0,0.0,0.0,0.0,0.0,0.0,0.0,0.0,0.0,0.0,0.0,0.0,0.0,0.0,0.0,0.0,0.0,0.0,0.0,0.0,0.0,-0.0421,-0.0565,-0.0568,-0.0398,-0.0606,-0.0555,-0.0206,0.0,-0.0151,0.0,0.0,0.0,0.0,0.0,0.0,0.0,0.0,0.0,0.0,0.0,0.0,0.0,0.0,0.0,0.0,0.0,0.0223,0.0545,0.0726,0.1032,0.1433,0.178,0.1649,0.1279,0.0909,0.0673,0.0437,0.0101,0.0,0.0,0.0,0.0,0.0,0.0,0.0,0.0,0.0,0.0,0.0,0.0,-0.1244,-0.2559,-0.3334,-0.5465,-0.7251,-0.7995,-0.8796,-0.9304,-0.9304,-0.9304,-0.9304,-0.9304,-0.9304,-0.9304,-0.9304,-0.9304,-0.9304,-0.9304,-0.9304,-0.9304,-0.9304,-0.9304,-0.9304,-0.9304,-0.9304,-0.9304,-0.9304,-0.937,-0.94,-0.9402,-0.9527,-0.9619,-0.9622,-0.9682,0.0,-0.9706,-0.9706,-0.9706,-0.9706,-0.9706,-0.9706,-0.9706,-0.9706,-0.9706,-0.9706,0.0,0.0,0.0,0.0,0.0,0.0,0.0,0.0,0.0,0.0,0.0,0.0,0.0,0.0,0.0,0.0,0.0,0.0,0.0,0.0,0.0,0.0,0.0,0.0,-0.0316,0.0,0.0,-0.0326,-0.03,0.0,0.0,0.0,0.0,0.0,0.0,0.0,0.0,0.0,0.0,0.0,0.0,0.0,0.0,0.0,0.0,0.0,0.0,0.0158,0.0414,0.049,0.0891,0.1426,0.1845,0.1851,0.1649,0.1212,0.0875,0.0538,0.0202,0.0068,0.0,0.0,0.0,0.0,0.0,0.0,0.0,0.0,0.0,0.0,0.0,-0.0991,-0.1908,-0.2251,-0.4392,-0.6243,-0.6916,-0.8061,-0.8941,-0.9266,-0.9304,-0.9304,-0.9304,-0.9304,-0.9304,-0.9304,-0.9304,-0.9304,-0.9304,-0.9304,-0.9304,-0.9304,-0.9304,-0.9304,-0.9304,-0.9332,-0.9343,-0.9345,-0.9468,-0.9527,-0.953,-0.9652,-0.9707,-0.9707,-0.9772,0.0,0.0,-0.9745,-0.9745,-0.9745,-0.9745,-0.9745,-0.9745,-0.9745,-0.9745,-0.9745,0.0,0.0,0.0,0.0,0.0,0.0,0.0,0.0,0.0,0.0,0.0,0.0,0.0,0.0,0.0,0.0,0.0,0.0,0.0,0.0,0.0,0.0,0.0,0.0,0.0,0.0,0.0,-0.003,-0.003,0.0,0.0,0.0,0.0,0.0,0.0,0.0,0.0,0.0,0.0,0.0,0.0,0.0,0.0,0.0,0.0,0.0,0.0,0.0032,0.0097,0.0393,0.0532,0.0672,0.1076,0.1649,0.202,0.1313,0.1077,0.0942,0.0572,0.0238,0.0,0.0,0.0,0.0,0.0,0.0,0.0,0.0,0.0,0.0,0.0,-0.011,-0.0659,-0.2077,-0.2535,-0.3726,-0.6585,-0.711,-0.7743,-0.9121,-0.9304,-0.9304,-0.9304,-0.9304,-0.9304,-0.9304,-0.9304,-0.9304,-0.9304,-0.9304,-0.9304,-0.9304,-0.9304,-0.9304,-0.9304,-0.9416,-0.947,-0.947,-0.963,-0.969,-0.9695,-0.9769,-0.9783,-0.9788,-0.9902,0.0,0.0,-0.9987,-0.9987,-0.9987,-0.9987,-0.9987,-0.9987,-0.9987,-0.9987,-0.9987,0.0,0.0,0.0,0.0,0.0,0.0,0.0,0.0,0.0,0.0,0.0,0.0,0.0,0.0,0.0,0.0,0.0,0.0,0.0,0.0,0.0,0.0,0.0,0.0,0.0,0.0,0.0,0.0,0.0,0.0,0.0,0.0,0.0,0.0,0.0,0.0,0.0,0.0,0.0,0.0,0.0,0.0,0.0,0.0,0.0,0.0,0.0,0.0,0.0032,0.0161,0.0327,0.0494,0.0435,0.0942,0.1481,0.1178,0.1111,0.101,0.0606,0.041,0.0244,0.0035,0.0,0.0,0.0,0.0,0.0,0.0,0.0,0.0,0.0,0.0,-0.0183,-0.0816,-0.1689,-0.2748,-0.4001,-0.5011,-0.6199,-0.7714,-0.7924,-0.8285,-0.9196,-0.9304,-0.9304,-0.9304,-0.9304,-0.9304,-0.9304,-0.9304,-0.9304,-0.9304,-0.9375,-0.9413,-0.9413,-0.9536,-0.9633,-0.9635,-0.9715,-0.9769,-0.9775,-0.9856,-0.9907,-0.991,-0.9962,0.0,0.0,-0.998,-0.998,-0.998,-0.998,-0.998,-0.998,-0.998,-0.998,-0.998,0.0,0.0,0.0,0.0,0.0,0.0,0.0,0.0,0.0,0.0,0.0,0.0,0.0,0.0,0.0,0.0,0.0,0.0,0.0,0.0,0.0,0.0,0.0,0.0,0.0,0.0,0.0,0.0,0.0,0.0,0.0,0.0,0.0,0.0,0.0,0.0,0.0,0.0,0.0,0.0,0.0,0.0,0.0,0.0,0.0,0.0,0.0,0.0,0.0,0.0,0.0,0.0326,0.0067,0.037,0.0808,0.0909,0.101,0.101,0.0606,0.0515,0.0421,0.007,0.0,0.0,0.0,0.0,0.0,0.0,0.0,0.0,0.0,0.0,0.0,0.0,-0.0919,-0.1764,-0.2223,-0.3266,-0.4588,-0.6144,-0.6321,-0.6934,-0.8471,-0.9049,-0.9304,-0.9304,-0.9304,-0.9304,-0.9304,-0.9337,-0.9356,-0.9356,-0.944,-0.9503,-0.9578,-0.9661,-0.9718,-0.972,-0.9837,-0.9853,-0.9856,-0.9943,-0.998,-0.998,-0.998,0.0,0.0,-0.998,-0.998,-0.998,-0.998,-0.998,-0.998,-0.998,-0.998,-0.998,0.0,0.0,0.0,0.0,0.0,0.0,0.0,0.0,0.0,0.0,0.0,0.0,0.0,0.0,0.0,0.0,0.0,0.0,0.0,0.0,0.0,0.0,0.0,0.0,0.0,0.0,0.0,0.0,0.0,0.0,0.0,0.0,0.0,0.0,0.0,0.0,0.0,0.0,0.0,0.0,0.0,0.0,0.0,0.0,0.0,0.0,0.0,0.0,0.0,0.0,0.0,0.0,0.0,0.0,0.0067,0.0404,0.0774,0.101,0.0606,0.0515,0.0421,0.007,0.0,0.0,0.0,0.0,0.0,0.0,0.0,0.0,0.0,0.0,0.0,0.0,0.0,-0.0552,-0.2073,-0.2318,-0.2929,-0.4519,-0.474,-0.5343,-0.6877,-0.8396,-0.9304,-0.9304,-0.9304,0.0,-0.9304,-0.9419,-0.9487,-0.9487,-0.9487,-0.9581,-0.9703,-0.978,-0.9796,-0.9799,-0.9921,-0.998,-0.998,-0.998,-0.998,0.0,0.0,0.0,0.0,-0.998,-0.998,-0.998,-0.998,-0.998,-0.998,-0.998,-0.998,-0.998,0.0,0.0,0.0,0.0,0.0,0.0,0.0,0.0,0.0,0.0,0.0,0.0,0.0,0.0,0.0,0.0,0.0,0.0,0.0,0.0,0.0,0.0,0.0,0.0,0.0,0.0,0.0,0.0,0.0,0.0,0.0,0.0,0.0,0.0,0.0,0.0,0.0,0.0,0.0,0.0,0.0,0.0,0.0,0.0,0.0,0.0,0.0,0.0,0.0,0.0,0.0,0.0,0.0,0.0,0.0,0.0135,0.0404,0.0673,0.0538,0.0512,0.0415,0.0069,0.0,0.0,0.0,0.0,0.0,0.0,0.0,0.0,0.0,0.0,0.0,0.0,0.0,-0.0184,-0.0642,-0.1634,-0.291,-0.4494,-0.6575,-0.8029,-0.8507,-0.9013,-0.9304,-0.9304,-0.9304,-0.934,-0.9424,-0.9465,-0.9487,-0.9487,-0.9642,-0.9707,-0.9783,-0.9864,-0.9924,-0.9924,-0.9964,-0.998,-0.998,-0.998,-0.998,0.0,0.0,0.0,0.0,-0.998,-0.998,-0.998,-0.998,-0.998,-0.998,-0.998,-0.998,-0.998,0.0,0.0,0.0,0.0,0.0,0.0,0.0,0.0,0.0,0.0,0.0,0.0,0.0,0.0,0.0,0.0,0.0,0.0,0.0,0.0,0.0,0.0,0.0,0.0,0.0,0.0,0.0,0.0,0.0,0.0,0.0,0.0,0.0,0.0,0.0,0.0,0.0,0.0,0.0,0.0,0.0,0.0,0.0,0.0,0.0,0.0,0.0,0.0,0.0,0.0,0.0,0.0,0.0,0.0,0.0,0.0,0.0135,0.0303,0.0303,0.0408,0.0412,0.0069,0.0,0.0,0.0,0.0,0.0,0.0,0.0,0.0,0.0,0.0,0.0,0.0,0.0,-0.0221,-0.0787,-0.1705,-0.2912,-0.4527,-0.6917,-0.8432,-0.8432,-0.8977,-0.9304,-0.9304,-0.9345,-0.9408,-0.9484,-0.9571,-0.962,-0.962,-0.9723,-0.9821,-0.9867,-0.9943,-0.998,-0.998,-0.998,-0.998,-0.998,-0.998,-0.998,0.0,0.0,0.0,0.0,-1.0175,-1.0136,-1.0019,-1.0175,-1.0136,-0.998,-0.998,-1.0097,-1.0214,0.0,0.0,0.0,0.0,0.0,0.0,0.0,0.0,0.0,0.0,0.0,0.0,0.0,0.0,0.0,0.0,0.0,0.0,0.0,0.0,0.0,0.0,0.0,0.0,0.0,0.0,0.0,0.0,0.0,0.0,0.0,0.0,0.0,0.0,0.0,0.0,0.0,0.0,0.0,0.0,0.0,0.0,0.0,0.0,0.0,0.0,0.0,0.0,0.0,0.0,0.0,0.0,0.0,0.0,0.0,0.0,0.0,0.0,0.0,0.0238,0.0377,0.0069,0.0,0.0,0.0,0.0,0.0,0.0,0.0,0.0,0.0,0.0,0.0,0.0,0.0,-0.055,-0.2074,-0.2485,-0.3188,-0.4699,-0.6223,-0.7125,-0.7016,-0.8396,-0.9307,-0.9315,-0.9421,-0.9495,-0.9511,-0.968,-0.9804,-0.9813,-0.9813,-0.9867,-0.998,-0.998,-0.998,-0.998,-0.998,-0.998,-0.998,-1.0022,-1.0022,0.0,0.0,0.0,0.0,-1.0447,-1.0408,-1.0136,-1.0486,-1.0408,-1.0097,-1.0097,-1.033,-1.0638,0.0,0.0,0.0,0.0,0.0,0.0,0.0,0.0,0.0,0.0,0.0,0.0,0.0,0.0,0.0,0.0,0.0,0.0,0.0,0.0,0.0,0.0,0.0,0.0,0.0,0.0,0.0,0.0,0.0,0.0,0.0,0.0,0.0,0.0,0.0,0.0,0.0,0.0,0.0,0.0,0.0,0.0,0.0,0.0,0.0,0.0,0.0,0.0,0.0,0.0,0.0,0.0,0.0,0.0,0.0,0.0,0.0,0.0,0.0,0.0,0.0101,0.0034,0.0,0.0,0.0,0.0,0.0,0.0,0.0,0.0,0.0,0.0,0.0,0.0,0.0,-0.055,-0.2074,-0.4374,-0.6017,-0.6432,-0.7826,-0.8288,-0.7125,-0.8396,-0.9343,-0.9435,-0.947,-0.9565,-0.9707,-0.9769,-0.9842,-0.9934,-0.9937,-0.9951,-0.998,-0.998,-0.998,-0.998,-0.998,-0.998,-1.0019,-1.033,-1.0291,0.0,0.0,0.0,-1.0486,-1.0563,-1.0758,-1.099,-1.1107,-1.1068,-1.099,-1.099,-1.1068,-1.1146,0.0,0.0,0.0,0.0,0.0,0.0,0.0,0.0,0.0,0.0,0.0,0.0,0.0,0.0,0.0,0.0,0.0,0.0,0.0,0.0,0.0,0.0,0.0,0.0,0.0,0.0,0.0,0.0,0.0,0.0,0.0,0.0,0.0,0.0,0.0,0.0,0.0,0.0,0.0,0.0,0.0,0.0,0.0,0.0,0.0,0.0,0.0,0.0,0.0,0.0,0.0,0.0,0.0,0.0,0.0,0.0,0.0,0.0,0.0,0.0,0.0,0.0,0.0,0.0,0.0,0.0,0.0,0.0,0.0,0.0,0.0,-0.0583,-0.0838,-0.0109,-0.0583,-0.1351,-0.2168,-0.441,-0.6193,-0.6912,-0.7743,-0.8177,-0.8068,-0.8974,-0.9571,-0.9515,-0.9686,-0.9797,-0.9788,-0.9853,-0.9913,-0.998,-0.998,-0.998,-0.998,-1.0175,-1.0175,-0.998,-1.0175,-1.0291,-1.0291,-1.0486,-1.0602,0.0,0.0,0.0,-1.0952,-1.1107,-1.1223,-1.1301,-1.1495,-1.1456,-1.1301,-1.1301,-1.1417,-1.1572,0.0,0.0,0.0,0.0,0.0,0.0,0.0,0.0,0.0,0.0,0.0,0.0,0.0,0.0,0.0,0.0,0.0,0.0,0.0,0.0,0.0,0.0,0.0,0.0,0.0,0.0,0.0,0.0,0.0,0.0,0.0,0.0,0.0,0.0,0.0,0.0,0.0,0.0,0.0,0.0,0.0,0.0,0.0,0.0,0.0,0.0,0.0,0.0,0.0,0.0,0.0,0.0,0.0,0.0,0.0,0.0,0.0,0.0,0.0,0.0,0.0,0.0,0.0,0.0,0.0,0.0,0.0,0.0,0.0,-0.0073,-0.0292,-0.1239,-0.1602,-0.051,-0.1639,-0.2766,-0.2983,-0.4401,-0.5818,-0.6869,-0.7268,-0.7849,-0.8938,-0.9643,-0.9926,-0.9727,-1.0036,-1.0158,-0.9935,-0.9962,-1.0022,-1.0097,-1.0097,-1.0136,-1.0214,-1.0486,-1.0447,-1.0214,-1.0525,-1.0716,-1.0716,-1.0755,-1.0987,-1.1301,0.0,0.0,-1.1417,-1.1766,-1.1727,-1.1533,-1.1843,-1.1766,-1.1495,-1.1495,-1.1688,-1.1998,0.0,0.0,0.0,0.0,0.0,0.0,0.0,0.0,0.0,0.0,0.0,0.0,0.0,0.0,0.0,0.0,0.0,0.0,0.0,0.0,0.0,0.0,0.0,0.0,0.0,0.0,0.0,0.0,0.0,0.0,0.0,0.0,0.0,0.0,0.0,0.0,0.0,0.0,0.0,0.0,0.0,0.0,0.0,0.0,0.0,0.0,0.0,0.0,0.0,0.0,0.0,0.0,0.0,0.0,0.0,0.0,0.0,0.0,0.0,0.0,0.0,0.0,0.0,0.0,0.0,0.0,0.0,0.0,0.0,-0.0401,-0.1712,-0.1057,-0.0693,-0.1784,-0.3276,-0.4802,-0.6107,-0.7632,-0.8213,-0.7125,-0.8463,-0.9044,-0.7955,-0.9498,-1.0611,-1.0673,-1.0538,-1.0477,-1.0487,-1.0164,-1.0175,-1.0486,-1.0525,-1.0719,-1.1107,-1.0758,-1.0758,-1.1107,-1.1146,-1.1184,-1.1184,-1.1533,-1.1533,-1.1301,0.0,-1.1805,-1.1805,-1.1882,-1.2076,-1.2308,-1.2385,-1.2385,-1.2308,-1.2308,-1.2347,-1.2424,0.0,0.0,0.0,0.0,0.0,0.0,0.0,0.0,0.0,0.0,0.0,0.0,0.0,0.0,0.0,0.0,0.0,0.0,0.0,0.0,0.0,0.0,0.0,0.0,0.0,0.0,0.0,0.0,0.0,0.0,0.0,0.0,0.0,0.0,0.0,0.0,0.0,0.0,0.0,0.0,0.0,0.0,0.0,0.0,0.0,0.0,0.0,0.0,0.0,0.0,0.0,0.0,0.0,0.0,0.0,0.0,0.0,0.0,0.0,0.0,0.0,0.0,0.0,0.0,0.0,0.0,0.0,0.0,0.0,-0.0474,-0.2002,-0.2439,-0.3057,-0.4581,-0.4764,-0.4947,-0.5673,-0.6362,-0.6942,-0.7268,-0.81,-0.8812,-0.924,-1.0328,-1.1008,-1.1,-1.0878,-1.0815,-1.0982,-1.0563,-1.0525,-1.0952,-1.099,-1.1184,-1.1611,-1.1417,-1.1301,-1.1301,-1.1533,-1.1611,-1.165,-1.1805,-1.1921,-1.196,0.0,-1.2231,-1.2231,-1.2231,-1.2347,-1.2501,-1.2501,-1.2501,-1.2501,-1.2501,-1.2501,-1.2501,0.0,0.0,0.0,0.0,0.0,0.0,0.0,0.0,0.0,0.0,0.0,0.0,0.0,0.0,0.0,0.0,0.0,0.0,0.0,0.014,0.0084,0.0084,0.0028,0.0,0.0,0.0,0.0,0.0,0.0,0.0,0.0,0.0,0.0,0.0,0.0,0.0,0.0,0.0,0.0,0.0,0.0,0.0,0.0,0.0,0.0,0.0,0.0,0.0,0.0,0.0,0.0,0.0,0.0,0.0,0.0,0.0,0.0,0.0,0.0,0.0,0.0,0.0,0.0,0.0,0.0,0.0,0.0,0.0,0.0,-0.0474,-0.2002,-0.3602,-0.5093,-0.6253,-0.5782,-0.5383,-0.5853,-0.5925,-0.6505,-0.8097,-0.8353,-0.9052,-1.0682,-1.1239,-1.1442,-1.1394,-1.1288,-1.1273,-1.1411,-1.1029,-1.0952,-1.1417,-1.1456,-1.165,-1.2037,-1.2037,-1.1882,-1.1572,-1.1882,-1.2037,-1.2037,-1.2037,-1.2192,-1.2501,-1.2501,-1.2501,-1.2501,-1.2501,-1.2501,-1.2501,-1.2501,-1.2501,-1.2501,-1.2501,-1.2501,-1.2501,0.0,0.0,0.0,0.0,0.0,0.0,0.0,0.0,0.0,0.0,0.0,0.0,0.0,0.0,0.0,0.0,0.0,0.0,0.0,0.0533,0.0364,0.0364,0.014,0.0,0.0,0.0,0.0,0.0,0.0,0.0,0.0,0.0,0.0,0.0,0.0,0.0,0.0,0.0,0.0,0.0,0.0,0.0,0.0,0.0,0.0,0.0,0.0,0.0,0.0,0.0,0.0,0.0,0.0,0.0,0.0,0.0,0.0,0.0,0.0,0.0,0.0,0.0,0.0,0.0,0.0,0.0,0.0,0.0,0.0,-0.0474,-0.2002,-0.3602,-0.4731,-0.4838,-0.5963,-0.7451,-0.926,-0.9516,-0.9732,-1.0236,-1.0567,-1.0879,-1.1234,-1.174,-1.2074,-1.2201,-1.1987,-1.1834,-1.1843,-1.1456,-1.1456,-1.1843,-1.1843,-1.2037,-1.2463,-1.2463,-1.2424,-1.2424,-1.2424,-1.2463,-1.2463,-1.2463,-1.2463,-1.2501,-1.2501,-1.2501,-1.2501,-1.2501,-1.2501,-1.2501,-1.2501,-1.2501,-1.2501,-1.2501,-1.2501,-1.2501,0.0,0.0,0.0,0.0,0.0,0.0,0.0,0.0,0.0,0.0,0.0,0.0,0.0,0.0,0.0,0.0,0.0,0.0,0.0,0.0785,0.0701,0.0701,0.0421,0.0252,0.0252,0.0084,0.0,0.0,0.0,0.0,0.0,0.0,0.0,0.0,0.0,0.0,0.0,0.0,0.0,0.0,0.0,0.0,0.0,0.0,0.0,0.0,0.0,0.0,0.0,0.0,0.0,0.0,0.0,0.0,0.0,0.0,0.0,0.0,0.0,0.0,0.0,0.0,0.0,0.0,0.0,0.0,0.0,0.0,0.0,-0.0474,-0.2002,-0.44,-0.6145,-0.6145,-0.7415,-0.8757,-0.9771,-0.9915,-1.0134,-1.075,-1.1042,-1.1334,-1.1777,-1.2077,-1.2264,-1.241,-1.2085,-1.1998,-1.2269,-1.1882,-1.1843,-1.2269,-1.2269,-1.2347,-1.2501,-1.2501,-1.2501,-1.2501,-1.2501,-1.2501,-1.2501,-1.2501,-1.2501,-1.2501,-1.2501,-1.2501,-1.2501,-1.2501,-1.2501,-1.2501,-1.2501,-1.2501,-1.2501,-1.2501,-1.2501,-1.2501,0.0,0.0,0.0,0.0,0.0,0.0,0.0,0.0,0.0,0.0,0.0,0.0,0.0,0.0,0.0,0.0,0.0,0.0,0.1177,0.1093,0.1037,0.1037,0.0729,0.0562,0.0565,0.0283,0.0085,0.0,0.0,0.0,0.0,0.0,0.0,0.0,0.0,0.0,0.0,0.0,0.0,0.0,0.0,0.0,0.0,0.0,0.0,0.0,0.0,0.0,0.0,0.0,0.0,0.0,0.0,0.0,0.0,0.0,0.0,0.0,0.0,0.0,0.0,0.0,0.0,0.0,0.0,0.0,0.0,0.0,0.0,-0.0474,-0.2002,-0.4473,-0.6435,-0.6908,-0.8288,-0.9485,-1.0023,-1.0095,-1.035,-1.1116,-1.1345,-1.1633,-1.2047,-1.2237,-1.2349,-1.2491,-1.2231,-1.2192,-1.2501,-1.2231,-1.2231,-1.2501,-1.2501,-1.2501,-1.2501,-1.2501,-1.2501,-1.2501,-1.2501,-1.2501,-1.2501,-1.2501,-1.2501,-1.2501,-1.2501,-1.2501,-1.2501,-1.2501,-1.2501,-1.2501,-1.2501,-1.2501,-1.2501,-1.2501,-1.2501,-1.2501,0.0,0.0,0.0,0.0,0.0,0.0,0.0,0.0,0.0,0.0,0.0,0.0,0.0,0.0,0.0,0.0,0.0,0.0,0.1795,0.1486,0.1318,0.1318,0.1038,0.0905,0.0891,0.0575,0.0261,0.0,0.0,0.0,0.0,0.0,0.0,0.0,0.0,0.0,0.0,0.0,0.0,0.0,0.0,0.0,0.0,0.0,0.0,0.0,0.0,0.0,0.0,0.0,0.0,0.0,0.0,0.0,0.0,0.0,0.0,0.0,0.0,0.0,0.0,0.0,0.0,0.0,0.0,0.0,0.0,0.0,0.0,-0.0474,-0.2002,-0.3638,-0.5238,-0.6761,-0.8288,-0.959,-1.0383,-1.0491,-1.0782,-1.1512,-1.1709,-1.1894,-1.2084,-1.2203,-1.2349,-1.2491,-1.2501,-1.2501,-1.2501,-1.2501,-1.2501,-1.2501,-1.2501,-1.2501,-1.2501,-1.2501,-1.2501,-1.2501,-1.2501,-1.2501,-1.2501,-1.2501,-1.2501,-1.2501,-1.2501,-1.2501,-1.2501,-1.2501,-1.2501,-1.2501,-1.2501,-1.2501,-1.2501,-1.2501,-1.2501,-1.2501,0.0,0.0,0.0,0.0,0.0,0.0,0.0,0.0,0.0,0.0,0.0,0.0,0.0,0.0,0.0,0.0,0.0,0.0,0.1795,0.1711,0.1663,0.1655,0.1398,0.1265,0.1257,0.0976,0.0567,0.0,0.0,0.0,0.0,0.0,0.0,0.0,0.0,0.0,0.0,0.0,0.0,0.0,0.0,0.0,0.0,0.0,0.0,0.0,0.0,0.0,0.0,0.0,0.0,0.0,0.0,0.0,0.0,0.0,0.0,0.0,0.0,0.0,0.0,0.0,0.0,0.0,0.0,0.0,0.0,0.0,-0.0875,-0.1748,-0.222,-0.4509,-0.6471,-0.6944,-0.8288,-0.959,-1.0383,-1.0491,-1.0782,-1.1512,-1.184,-1.2013,-1.2094,-1.2329,-1.2457,-1.2498,-1.2501,-1.2501,-1.2501,-1.2501,-1.2501,-1.2501,-1.2501,-1.2501,-1.2501,-1.2501,-1.2501,-1.2501,-1.2501,-1.2501,-1.2501,-1.2501,-1.2501,-1.2501,-1.2501,-1.2501,-1.2501,-1.2501,-1.2501,-1.2501,-1.2501,-1.2501,-1.2501,-1.2501,-1.2501,-1.2501,0.0,0.0,0.0,0.0,0.0,0.0,0.0,0.0,0.0,0.0,0.1874,0.1874,0.0,0.0,0.0,0.0,0.0,0.0,0.1795,0.1795,0.1803,0.1793,0.1633,0.1511,0.1397,0.1148,0.0731,0.0213,0.0213,0.0122,0.0,0.0,0.0,0.0,0.0,0.0,0.0,0.0,0.0,0.0,0.0,0.0,0.0,0.0,0.0,0.0,0.0,0.0,0.0,0.0,0.0,0.0,0.0,0.0,0.0,0.0,0.0,0.0,0.0,0.0,0.0,0.0,-0.0461,-0.0931,-0.0899,-0.0435,0.0,0.0,-0.1239,-0.2511,-0.3129,-0.5309,-0.7197,-0.7815,-0.883,-0.9771,-1.0419,-1.0603,-1.0949,-1.1589,-1.1915,-1.2125,-1.2183,-1.2366,-1.2501,-1.2501,-1.2501,-1.2501,-1.2501,-1.2501,-1.2501,-1.2501,-1.2501,-1.2501,-1.2501,-1.2501,-1.2501,-1.2501,-1.2501,-1.2501,-1.2501,-1.2501,-1.2501,-1.2501,-1.2501,-1.2501,-1.2501,-1.2501,-1.2501,-1.2501,-1.2501,-1.2501,-1.2501,-1.2501,-1.2501,-1.2501,0.0,0.0,0.0,0.0,0.0,0.0,0.0,0.0,0.0,0.0,0.1892,0.1881,0.0,0.0,0.0,0.0,0.0,0.0,0.0,0.1795,0.1796,0.1799,0.1802,0.17,0.145,0.1226,0.0926,0.0556,0.0494,0.0306,0.0,0.0,0.0,0.0,0.0,0.0,0.0,0.0,0.0,0.0,0.0,0.0,0.0,0.0,0.0,0.0,0.0,0.0,0.0,0.0,0.0,0.0,0.0,0.0,0.0,0.0,0.0,0.0,0.0,0.0,0.0,0.0,-0.1046,-0.2116,-0.225,-0.1202,-0.0219,-0.0219,-0.1566,-0.3165,-0.4657,-0.6181,-0.7668,-0.9085,-0.9627,-1.0023,-1.0455,-1.0786,-1.1198,-1.1723,-1.1959,-1.2156,-1.2254,-1.241,-1.2501,-1.2501,-1.2501,-1.2501,-1.2501,-1.2501,-1.2501,-1.2501,-1.2501,-1.2501,-1.2501,-1.2501,-1.2501,-1.2501,-1.2501,-1.2501,-1.2501,-1.2501,-1.2501,-1.2501,-1.2501,-1.2501,-1.2501,-1.2501,-1.2501,-1.2501,-1.2501,-1.2501,-1.2501,-1.2501,-1.2501,-1.2501,0.0,0.0,0.0,0.0,0.0,0.0,0.0,0.0,0.0,0.0,0.0,0.0,0.0,0.0,0.0,0.0,0.0,0.0,0.0,0.1795,0.1806,0.1801,0.1853,0.1869,0.1874,0.1819,0.1482,0.0895,0.037,0.0062,0.0,0.0,0.0,0.0,0.0,0.0,0.0,0.0,0.0,0.0,0.0,0.0,0.0,0.0,0.0,0.0,0.0,0.0,0.0,0.0,0.0,0.0,0.0,0.0,0.0,0.0,0.0,0.0,0.0,0.0,0.0,0.0,-0.0253,-0.0799,-0.2037,-0.2039,-0.182,-0.182,-0.4037,-0.6107,-0.6435,-0.7776,-0.8904,-0.923,-0.9627,-1.0023,-1.0455,-1.0786,-1.1162,-1.1588,-1.1898,-1.2111,-1.2145,-1.2349,-1.2501,-1.2501,-1.2501,-1.2501,-1.2501,-1.2501,-1.2501,-1.2501,-1.2501,-1.2501,-1.2501,-1.2501,-1.2501,0.0,-1.2501,-1.2501,-1.2501,-1.2501,-1.2501,-1.2501,-1.2501,-1.2501,-1.2501,-1.2501,-1.2501,-1.2501,-1.2501,-1.2501,-1.2501,-1.2501,-1.2501,-1.2501,0.0,0.0,0.0,0.0,0.0,0.0,0.0,0.0,0.0,0.0,0.0,0.0,0.0,0.0,0.0,0.0,0.0,0.0,0.0,0.0,0.1808,0.181,0.1855,0.1924,0.1954,0.1815,0.1513,0.0988,0.0494,0.0154,0.0,0.0,0.0,0.0,0.0,0.0,0.0,0.0,0.0,0.0,0.0,0.0,0.0,0.0,0.0,0.0,0.0,0.0,0.0,0.0,0.0,0.0,0.0,0.0,0.0,0.0,0.0,0.0,0.0,0.0,-0.0355,-0.1869,-0.1124,-0.062,-0.2912,-0.2838,-0.2511,-0.3275,-0.5345,-0.7016,-0.7016,-0.8249,-0.9304,-0.9304,-0.9807,-1.0275,-1.0452,-1.0966,-1.1391,-1.1675,-1.1921,-1.2128,-1.22,-1.2372,-1.2501,-1.2501,-1.2501,-1.2501,-1.2501,-1.2501,-1.2501,-1.2501,-1.2501,-1.2501,-1.2501,-1.2501,-1.2501,-1.2501,-1.2501,-1.2501,-1.2501,-1.2501,-1.2501,-1.2501,-1.2501,-1.2501,-1.2501,-1.2501,-1.2501,-1.2501,-1.2501,-1.2501,-1.2501,-1.2501,-1.2501,-1.2501,0.0,0.0,0.0,0.0,0.0,0.0,0.0,0.0,0.0,0.0,0.0,0.0,0.0,0.0,0.0,0.0,0.0,0.0,0.0,0.0,0.0,0.1818,0.1877,0.1908,0.1908,0.1687,0.142,0.108,0.0741,0.0401,0.0093,0.0031,0.0,0.0,0.0,0.0,0.0,0.0,0.0,0.0,0.0,0.0032,0.0096,0.0033,0.0033,0.0066,0.0034,0.0,0.0,0.0,0.0,0.0,0.0,0.0,0.0,0.0,0.0,0.0,0.0,0.0,-0.0637,-0.3221,-0.1931,-0.0766,-0.3639,-0.3238,-0.2838,-0.4692,-0.6108,-0.7087,-0.7342,-0.843,-0.9304,-0.9304,-0.9987,-1.0491,-1.0491,-1.1145,-1.1627,-1.1742,-1.1952,-1.2149,-1.224,-1.2403,-1.2501,-1.2501,-1.2501,-1.2501,-1.2501,-1.2501,-1.2501,-1.2501,-1.2501,-1.2501,-1.2501,-1.2501,-1.2501,-1.2501,-1.2501,-1.2501,-1.2501,-1.2501,-1.2501,-1.2501,-1.2501,-1.2501,-1.2501,-1.2501,-1.2501,-1.2501,-1.2501,-1.2501,-1.2501,-1.2501,-1.2501,-1.2501,0.0,0.0,0.0,0.0,0.0,0.0,0.0,0.0,0.0,0.0,0.2008,0.1963,0.0,0.0,0.0,0.0,0.0,0.0,0.1813,0.0,0.0,0.1879,0.1909,0.1939,0.197,0.1944,0.176,0.142,0.1111,0.0772,0.0432,0.0123,0.0,0.0,0.0,0.0,0.0,0.0,0.0,0.0,0.0,0.0162,0.0393,0.0099,0.0166,0.0403,0.0101,0.0,0.0,0.0,0.0,0.0,0.0,0.0,0.0,0.0,0.0,0.0,0.0,0.0,-0.0107,-0.0509,-0.0328,-0.0474,-0.2221,-0.2438,-0.3128,-0.607,-0.6869,-0.7415,-0.8757,-0.9157,-0.9304,-0.9304,-0.9987,-1.0491,-1.0491,-1.1145,-1.1626,-1.1611,-1.1894,-1.2108,-1.2128,-1.2338,-1.2501,-1.2501,-1.2501,-1.2501,-1.2501,-1.2501,-1.2501,-1.2501,-1.2501,-1.2501,-1.2501,-1.2501,-1.2501,-1.2501,-1.2501,-1.2501,-1.2501,-1.2501,-1.2501,-1.2501,-1.2501,-1.2501,-1.2501,-1.2501,-1.2501,-1.2501,-1.2501,-1.2501,-1.2501,-1.2501,-1.2501,-1.2501,0.0,0.0,0.0,0.0,0.0,0.0,0.0,0.0,0.0,0.0,0.0,0.1965,0.0,0.0,0.0,0.1912,0.1896,0.188,0.1866,0.1866,0.1872,0.1885,0.1915,0.1907,0.1951,0.1968,0.1737,0.122,0.1063,0.0722,0.0222,0.0063,0.0,0.0,0.0,0.0,0.0,0.0,0.0,0.0032,0.0195,0.036,0.0495,0.0598,0.0703,0.0774,0.0404,0.0269,0.0236,0.0067,0.0,0.0,0.0,0.0,0.0,0.0,0.0,0.0,0.0,0.0,-0.0215,-0.109,-0.0656,-0.0401,-0.1966,-0.1639,-0.1639,-0.3891,-0.5091,-0.6435,-0.8868,-0.9304,-0.9304,-0.9304,-0.9771,-1.0239,-1.0455,-1.093,-1.1368,-1.1584,-1.1806,-1.1965,-1.2091,-1.2257,-1.2416,-1.2494,-1.2501,-1.2501,-1.2501,-1.2501,-1.2501,-1.2501,-1.2501,-1.2501,-1.2501,-1.2501,-1.2501,-1.2501,-1.2501,-1.2501,-1.2501,-1.2501,-1.2501,-1.2501,-1.2501,-1.2501,-1.2501,-1.2501,-1.2501,-1.2501,-1.2501,-1.2501,-1.2501,-1.2501,-1.2501,-1.2501,0.0,0.0,0.0,0.0,0.0,0.0,0.0,0.0,0.0,0.0,0.0,0.0,0.0,0.0,0.0,0.0,0.1922,0.1906,0.1898,0.1897,0.1897,0.1897,0.1903,0.1923,0.1923,0.189,0.1633,0.1111,0.0953,0.0607,0.0129,0.0032,0.0,0.0,0.0,0.0,0.0,0.0,0.0065,0.0163,0.0395,0.0596,0.0796,0.1006,0.1144,0.1178,0.0774,0.0572,0.0471,0.0202,0.0067,0.0,0.0,0.0,0.0,0.0,0.0,0.0,0.0,0.0,-0.0284,-0.1444,-0.0834,-0.0291,-0.1456,-0.0838,-0.0438,-0.1966,-0.3566,-0.5528,-0.8213,-0.9049,-0.9304,-0.9304,-0.9627,-0.9987,-1.0311,-1.0714,-1.1116,-1.1404,-1.1672,-1.1877,-1.1993,-1.2179,-1.2335,-1.244,-1.2481,-1.2501,-1.2501,-1.2501,-1.2501,-1.2501,-1.2501,-1.2501,-1.2501,-1.2501,-1.2501,-1.2501,-1.2501,-1.2501,-1.2501,-1.2501,-1.2501,-1.2501,-1.2501,-1.2501,-1.2501,-1.2501,-1.2501,-1.2501,-1.2501,-1.2501,-1.2501,-1.2501,-1.2501,-1.2501,0.0,0.0,0.0,0.0,0.0,0.0,0.0,0.0,0.0,0.0,0.0,0.0,0.2006,0.2005,0.2005,0.2005,0.2003,0.196,0.1901,0.1898,0.1898,0.1898,0.1953,0.0,0.1982,0.1692,0.1512,0.1482,0.0838,0.0516,0.0452,0.0161,0.0,0.0,0.0,0.0,0.0,0.0,0.0197,0.0461,0.0501,0.0908,0.1513,0.1211,0.1313,0.1515,0.1178,0.0808,0.0,0.0,0.0,0.0,0.0,0.0,0.0,0.0,0.0,0.0,0.0,0.0,-0.0035,-0.0107,-0.0072,-0.0036,-0.0109,-0.0073,-0.0438,-0.1966,-0.3566,-0.5201,-0.6835,-0.8324,-0.9304,-0.9304,-0.9627,-0.9915,-0.9915,-1.0534,-1.1008,-1.1044,-1.1491,-1.1797,-1.1803,-1.2115,-1.2294,-1.2301,-1.2427,-1.2501,-1.2501,-1.2501,-1.2501,-1.2501,-1.2501,-1.2501,-1.2501,-1.2501,-1.2501,-1.2501,-1.2501,-1.2501,-1.2501,-1.2501,-1.2501,-1.2501,-1.2501,-1.2501,-1.2501,-1.2501,-1.2501,-1.2501,-1.2501,-1.2501,-1.2501,-1.2501,-1.2501,-1.2501,0.0,0.0,0.0,0.0,0.0,0.0,0.0,0.0,0.0,0.0,0.0,0.0,0.0,0.2008,0.2008,0.2008,0.1993,0.1999,0.1957,0.2005,0.2016,0.2016,0.2036,0.1952,0.1695,0.1576,0.1295,0.085,0.0621,0.0394,0.0166,0.0066,0.0,0.0,0.0,0.0,0.0,0.0,0.02,0.0535,0.0772,0.1178,0.1616,0.175,0.1885,0.1953,0.1548,0.0,0.0,0.0,0.0,0.0,0.0,0.0,0.0269,0.0067,0.0,0.0,0.0,0.0,0.0,0.0,0.0,0.0,0.0,0.0,-0.0146,-0.0693,-0.2076,-0.3638,-0.5238,-0.7596,-0.9304,-0.9304,-0.9413,-0.959,-0.9879,-1.035,-1.075,-1.0972,-1.1411,-1.1695,-1.1786,-1.1891,-1.2077,-1.2277,-1.2338,-1.2406,-1.2498,-1.2501,-1.2501,-1.2501,-1.2501,-1.2501,-1.2501,-1.2501,-1.2501,-1.2501,-1.2501,-1.2501,-1.2501,-1.2501,-1.2501,-1.2501,-1.2501,-1.2501,-1.2501,-1.2501,-1.2501,-1.2501,-1.2501,-1.2501,-1.2501,-1.2501,-1.2501,-1.2501,0.0,0.0,0.0,0.0,0.0,0.0,0.0,0.0,0.1905,0.1945,0.0,0.0,0.0,0.0,0.2011,0.199,0.2007,0.2022,0.2033,0.2084,0.2096,0.2096,0.1976,0.1819,0.1526,0.1305,0.0953,0.0498,0.0398,0.0233,0.0,0.0,0.0,0.0,0.0,0.0,0.0,0.0,0.0269,0.074,0.0976,0.138,0.1818,0.2087,0.2188,0.2155,0.0,0.0,0.0,0.0,0.0,0.0,0.0,0.0,0.0,0.0101,0.0,0.0,0.0,0.0,0.0,0.0,0.0,0.0,0.0,0.0,-0.0145,-0.0656,-0.2003,-0.342,-0.4511,-0.7234,-0.9304,-0.9304,-0.9304,-0.9374,-0.9663,-1.0023,-1.0422,-1.0786,-1.1185,-1.1476,-1.1715,-1.1766,-1.1878,-1.2121,-1.2233,0.0,-1.2427,-1.2474,-1.2501,-1.2501,-1.2501,-1.2501,-1.2501,-1.2501,-1.2501,-1.2501,-1.2501,-1.2501,-1.2501,-1.2501,-1.2501,-1.2501,-1.2501,-1.2501,-1.2501,-1.2501,-1.2501,-1.2501,-1.2501,-1.2501,-1.2501,-1.2501,-1.2501,-1.2501,0.0,0.0,0.0,0.0,0.0,0.0,0.0,0.0,0.1913,0.2005,0.0,0.0,0.0,0.0,0.0,0.2018,0.1989,0.2034,0.2096,0.2098,0.2099,0.2099,0.1767,0.1583,0.1583,0.0869,0.0505,0.0471,0.0168,0.0,0.0,0.0,0.0,0.0,0.0,0.0,0.0,0.0,0.0404,0.1078,0.1111,0.1549,0.219,0.2189,0.2188,0.0,0.2188,0.1953,0.0,0.1616,0.0,0.0,0.0,0.0,0.0,0.0,0.0,0.0,0.0,0.0,0.0,0.0,0.0,0.0,0.0,0.0,-0.0431,-0.1924,-0.3456,-0.4585,-0.4693,-0.7161,-0.9193,-0.9232,-0.9268,-0.9304,-0.9304,-0.9663,-1.0023,-1.0455,-1.0786,-1.1152,-1.1548,-1.1709,-1.179,-1.1793,-1.2108,-1.2281,-1.2291,-1.2423,-1.2501,-1.2501,-1.2501,-1.2501,-1.2501,-1.2501,-1.2501,-1.2501,-1.2501,-1.2501,-1.2501,-1.2501,-1.2501,-1.2501,-1.2501,-1.2501,-1.2501,-1.2501,-1.2501,-1.2501,-1.2501,-1.2501,-1.2501,-1.2501,-1.2501,-1.2501,0.0,0.0,0.0,0.0,0.0,0.1985,0.1962,0.1964,0.1975,0.0,0.0,0.0,0.2069,0.2071,0.2075,0.2082,0.2071,0.2088,0.2096,0.215,0.203,0.1763,0.1636,0.1338,0.0803,0.0605,0.037,0.0135,0.0034,0.0,0.0,0.0,0.0,0.0,0.0,0.0,0.0,0.0,0.0271,0.0683,0.098,0.1354,0.1809,0.2095,0.0,0.0,0.0,0.2121,0.202,0.0,0.1986,0.1818,0.0,0.0,0.0,0.0,0.0,0.0,0.0,0.0,0.0,0.0,0.0,0.0,0.0,0.0,-0.0109,-0.0546,-0.0984,-0.2003,-0.4293,-0.5383,-0.6326,-0.7451,-0.8577,-0.9304,-0.9304,-0.9663,-0.9951,-1.0059,-1.0606,-1.1044,-1.1152,-1.1473,-1.1685,0.0,-1.1874,-1.2054,-1.2277,-1.2423,-1.2501,-1.2501,-1.2501,-1.2501,-1.2501,-1.2501,-1.2501,-1.2501,-1.2501,-1.2501,-1.2501,-1.2501,-1.2501,-1.2501,-1.2501,-1.2501,-1.2501,-1.2501,-1.2501,-1.2501,-1.2501,-1.2501,-1.2501,-1.2501,-1.2501,-1.2501,0.0,0.0,0.0,0.0,0.1968,0.2008,0.2008,0.2008,0.1987,0.0,0.0,0.0,0.2093,0.2096,0.2102,0.2114,0.2099,0.2114,0.2127,0.2179,0.202,0.1616,0.1481,0.1111,0.0505,0.037,0.0202,0.0,0.0,0.0,0.0,0.0,0.0,0.0,0.0,0.0,0.0,0.0,0.0203,0.0511,0.0743,0.1082,0.143,0.1654,0.1818,0.0,0.0,0.0,0.2188,0.2188,0.2188,0.0,0.0,0.0,0.0,0.0,0.0,0.0,0.0,0.0,0.0,0.0,0.0,0.0,0.0,0.0,-0.018,-0.0836,-0.0948,-0.153,-0.3347,-0.4257,-0.4766,-0.5017,-0.6904,-0.8321,-0.8321,-0.8538,-0.9008,-0.9807,-1.0278,-1.0606,-1.0786,-1.1113,-1.1365,-1.1448,-1.169,-1.1965,-1.2274,-1.2369,-1.244,-1.2501,-1.2501,-1.2501,-1.2501,-1.2501,-1.2501,-1.2501,-1.2501,-1.2501,-1.2501,-1.2501,-1.2501,-1.2501,-1.2501,-1.2501,-1.2501,-1.2501,-1.2501,-1.2501,-1.2501,-1.2501,-1.2501,-1.2501,-1.2501,-1.2501,0.0,0.0,0.1907,0.191,0.1963,0.2013,0.2017,0.2017,0.1996,0.0,0.2031,0.2044,0.2103,0.2107,0.2118,0.2112,0.2114,0.2125,0.2119,0.2121,0.1953,0.1481,0.1178,0.0841,0.0437,0.0168,0.0,0.0,0.0,0.0,0.0,0.0,0.0,0.0,0.0,0.0,0.0,0.0,0.0168,0.0438,0.0472,0.0708,0.1046,0.108,0.1281,0.1548,0.1548,0.1784,0.2155,0.2188,0.2155,0.0,0.0,0.0,0.0,0.0,0.0069,0.0034,0.0,0.0,0.0,0.0,0.0,0.0,0.0,0.0,-0.0388,-0.1768,-0.203,-0.2102,-0.2283,-0.3477,-0.3949,-0.2536,-0.4639,-0.6604,-0.6942,-0.7161,-0.7885,-0.9627,-0.9879,-1.0023,-1.0383,-1.0786,-1.1008,-1.1008,-1.1494,-1.1915,-1.2227,-1.2271,-1.2349,-1.2474,-1.2491,-1.2501,-1.2501,-1.2501,-1.2501,-1.2501,-1.2501,-1.2501,-1.2501,-1.2501,-1.2501,-1.2501,-1.2501,-1.2501,-1.2501,-1.2501,-1.2501,-1.2501,-1.2501,-1.2501,-1.2501,-1.2501,-1.2501,-1.2501,0.0,0.1947,0.1975,0.1966,0.2006,0.2018,0.2075,0.2079,0.209,0.2088,0.2113,0.2163,0.217,0.217,0.2172,0.2179,0.2179,0.2048,0.175,0.1717,0.1414,0.074,0.0639,0.0437,0.0101,0.0034,0.0,0.0,0.0,0.0,0.0,0.0,0.0,0.0,0.0,0.0,0.0,0.0,0.0034,0.0135,0.0375,0.0548,0.065,0.0993,0.1156,0.1212,0.1212,0.1414,0.175,0.2087,0.1986,0.1687,0.0,0.0,0.0,0.0,0.0,0.0,0.0,0.0,0.0,0.0,0.0,0.0,0.0,0.0,-0.007,-0.0388,-0.0459,-0.0812,-0.2081,-0.2573,-0.2679,-0.2362,-0.2809,-0.4095,-0.6642,-0.8068,-0.8977,-0.9377,-0.9699,-0.9915,-1.0023,-1.0606,-1.1008,-1.1008,-1.1494,-1.182,-1.1881,-1.2155,-1.2301,-1.2332,-1.244,-1.2501,-1.2501,-1.2501,-1.2501,-1.2501,-1.2501,-1.2501,-1.2501,-1.2501,-1.2501,-1.2501,-1.2501,-1.2501,-1.2501,-1.2501,-1.2501,-1.2501,-1.2501,-1.2501,-1.2501,-1.2501,-1.2501,-1.2501,0.1938,0.1987,0.2007,0.2036,0.2041,0.2046,0.2093,0.2096,0.2107,0.2106,0.2169,0.2121,0.1919,0.2087,0.2188,0.2188,0.2188,0.202,0.1616,0.1616,0.1279,0.0538,0.0505,0.0337,0.0,0.0,0.0,0.0,0.0,0.0,0.0,0.0,0.0,0.0,0.0,0.0,0.0,0.0,0.0,0.0,0.017,0.0238,0.0272,0.0476,0.0643,0.0808,0.0808,0.1144,0.1616,0.1818,0.1894,0.0,0.0,0.1519,0.1283,0.0,0.0515,0.0412,0.0,0.0,0.0,0.0,0.0,0.0,0.0,0.0,0.0,0.0,0.0,-0.0245,-0.1016,-0.1156,-0.1156,-0.1156,-0.1805,-0.2854,-0.4422,-0.6021,-0.7306,-0.8068,-0.901,-0.959,-0.959,-1.0134,-1.0609,-1.0972,-1.0734,-1.0908,-1.1753,-1.205,-1.221,-1.2288,-1.2427,-1.2501,-1.2501,-1.2501,-1.2501,-1.2501,-1.2501,-1.2501,-1.2501,-1.2501,-1.2501,-1.2501,-1.2501,-1.2501,-1.2501,-1.2501,-1.2501,-1.2501,-1.2501,-1.2501,-1.2501,-1.2501,-1.2501,-1.2501,0.1977,0.2023,0.2037,0.21,0.2105,0.2107,0.2113,0.2049,0.1992,0.2015,0.2039,0.1986,0.175,0.202,0.2188,0.2188,0.2188,0.1986,0.1548,0.1515,0.1178,0.0437,0.0404,0.0269,0.0,0.0,0.0,0.0,0.0,0.0,0.0,0.0,0.0,0.0,0.0,0.0,0.0,0.0,0.0,0.0,0.0,0.0,0.0,0.0,0.0169,0.0405,0.0472,0.0875,0.1414,0.1553,0.1771,0.1961,0.1798,0.1669,0.0,0.0,0.0,0.0,0.0,0.0,0.0,0.0,0.0,0.0,0.0,0.0,0.0,0.0,0.0,0.0,0.0,0.0,0.0,0.0,0.0,0.0,0.0,-0.3233,0.0,-0.6386,-0.7646,-0.8422,-0.8403,-0.8832,-0.9383,-1.0059,-0.9598,-0.9888,-1.1265,-1.1784,-1.2125,-1.224,-1.2386,-1.2474,-1.2501,-1.2501,-1.2501,-1.2501,-1.2501,-1.2501,-1.2501,-1.2501,-1.2501,-1.2501,-1.2501,-1.2501,-1.2501,-1.2501,-1.2501,-1.2501,-1.2501,-1.2501,-1.2501,-1.2501,-1.2501,-1.2501,0.1985,0.204,0.21,0.2099,0.2104,0.2113,0.2174,0.1876,0.1642,0.1645,0.1648,0.1784,0.2087,0.2188,0.2188,0.2188,0.2188,0.1919,0.1212,0.1144,0.0841,0.0101,0.0067,0.0034,0.0,0.0,0.0,0.0,0.0,0.0,0.0,0.0,0.0,0.0,0.0,0.0,0.0,0.0,0.0,0.0,0.0,0.0,0.0,0.0,0.0035,0.0103,0.0406,0.0538,0.0742,0.0,0.1476,0.1346,0.0,0.1719,0.1176,0.0,0.0,0.0,0.0,0.0,0.0,0.0,0.0,0.0,0.0,0.0,0.0,0.0,0.0,0.0,0.0,0.0,0.0,0.0,0.0,0.0,-0.0271,-0.159,-0.3162,-0.4777,-0.5128,-0.5215,-0.5225,-0.586,-0.6459,-0.6896,-0.8331,-0.9325,-0.9557,-1.1003,-1.1928,-1.2121,-1.2237,-1.2376,-1.2501,-1.2501,-1.2501,-1.2501,-1.2501,-1.2501,-1.2501,-1.2501,-1.2501,-1.2501,-1.2501,-1.2501,-1.2501,-1.2501,-1.2501,-1.2501,-1.2501,-1.2501,-1.2501,-1.2501,-1.2501,-1.2501,0.2071,0.2081,0.21,0.2163,0.1968,0.1805,0.1849,0.1548,0.1212,0.0976,0.1178,0.1279,0.1212,0.1582,0.1784,0.1582,0.0,0.1548,0.0,0.0,0.0538,0.0034,0.0,0.0,0.0,0.0,0.0,0.0,0.0,0.0,0.0,0.0,0.0,0.0,0.0,0.0,0.0,0.0,0.0,0.0,0.0,0.0,0.0,0.0,0.0,0.0034,0.0169,0.0337,0.0539,0.0,0.1064,0.0,0.0,0.0,0.0,0.0,0.0,0.0,0.0,0.0,0.0,0.0,0.0,0.0,0.0,0.0,0.0,0.0,0.0,0.0,0.0,0.0,0.0,0.0,0.0,0.0,0.0,0.0,-0.1541,0.0,0.0,0.0,-0.4708,-0.4564,-0.5278,0.0,-0.6901,-0.7762,-1.0488,-1.0541,-1.0899,-1.1888,-1.2162,-1.2318,-1.2379,-1.2461,-1.2501,-1.2501,-1.2501,-1.2501,-1.2501,-1.2501,-1.2501,-1.2501,-1.2501,-1.2501,-1.2501,-1.2501,-1.2501,-1.2501,-1.2501,-1.2501,-1.2501,-1.2501,-1.2501,-1.2501,0.212,0.2122,0.2095,0.205,0.1784,0.1548,0.1313,0.1077,0.0841,0.0538,0.074,0.0875,0.0673,0.1144,0.138,0.1111,0.1313,0.1178,0.0,0.0,0.0338,0.0,0.0,0.0,0.0,0.0,0.0,0.0,0.0,0.0,0.0,0.0,0.0,0.0,0.0,0.0,0.0,0.0,0.0,0.0,0.0,0.0,0.0,0.0,0.0,0.0,0.0,0.0168,0.037,0.0507,0.0652,0.0,0.1061,0.0,0.0,0.0,0.0,0.0,0.0069,0.0,0.0,0.0,0.0,0.0,0.0,0.0,0.0,0.0,0.0,0.0,0.0,0.0,0.0,0.0,0.0,0.0,0.0,0.0,0.0,0.0,0.0,0.0,0.0,-0.2973,-0.3821,0.0,0.0,-0.6659,-1.0161,-0.9778,-0.999,-1.1131,-1.141,-1.1787,-1.2291,-1.2393,-1.2464,-1.2501,-1.2501,-1.2501,-1.2501,-1.2501,-1.2501,-1.2501,-1.2501,-1.2501,-1.2501,-1.2501,-1.2501,-1.2501,-1.2501,-1.2501,-1.2501,-1.2501,-1.2501,-1.2501,0.2181,0.2187,0.2086,0.1683,0.1616,0.1346,0.0639,0.0538,0.0505,0.0505,0.0505,0.0673,0.1043,0.0,0.0,0.0,0.0,0.0942,0.0538,0.0,0.0341,0.0,0.0,0.0,0.0,0.0,0.0,0.0,0.0,0.0,0.0,0.0,0.0,0.0,0.0,0.0,0.0,0.0,0.0,0.0,0.0,0.0,0.0,0.0,0.0,0.0,0.0,0.0,0.0,0.0479,0.0344,0.0,0.0,0.0,0.0,0.0,0.0,0.0,0.0,0.0,0.0,0.0,0.0,0.0,0.0,0.0,0.0,0.0,0.0,0.0,0.0,0.0,0.0,0.0,0.0,0.0,0.0,0.0,0.0,0.0,0.0,0.0,0.0,-0.0421,-0.1446,0.0,-0.5276,0.0,-0.711,-0.8531,-0.9387,-0.9578,-0.9592,-1.0457,-1.2288,-1.2294,-1.2366,-1.2501,-1.2501,-1.2501,-1.2501,-1.2501,-1.2501,-1.2501,-1.2501,-1.2501,-1.2501,-1.2501,-1.2501,-1.2501,-1.2501,-1.2501,-1.2501,-1.2501,-1.2501,-1.2501,0.1849,0.1818,0.175,0.1616,0.1212,0.0709,0.0238,0.0171,0.0171,0.0171,0.0169,0.0,0.0,0.0572,0.0606,0.0,0.0,0.0538,0.0202,0.017,0.0,0.0,0.0,0.0,0.0,0.0,0.0,0.0,0.0,0.0,0.0,0.0,0.0,0.0,0.0,0.0,0.0,0.0,0.0,0.0,0.0,0.0,0.0,0.0,0.0,0.0,0.0,0.0,0.0,0.0169,0.0102,0.0034,0.0308,0.0207,0.0035,0.0173,0.0103,0.0,0.0,0.0,0.0,0.0,0.0,0.0,0.0,0.0,0.0,0.0,0.0,0.0,0.0,0.0,0.0,0.0,0.0,0.0,0.0,0.0,0.0,0.0,0.0,0.0,0.0,0.0,0.0,0.0,-0.3236,0.0,-0.65,-0.6395,-0.6732,-0.7817,-0.792,-0.8284,-0.8917,-0.9066,-0.916,-0.9195,-0.9193,-0.9773,-1.0862,-1.0862,-1.145,-1.2501,-1.2501,-1.2501,-1.2501,-1.2501,-1.2501,-1.2501,-1.2501,-1.2501,-1.2501,-1.2501,-1.2501,-1.2501,0.1481,0.1313,0.1212,0.1212,0.071,0.0238,0.0034,0.0,0.0,0.0,0.0,0.0,0.0,0.0,0.0236,0.0,0.0202,0.0236,0.0,0.0,0.0,0.0,0.0,0.0,0.0,0.0,0.0,0.0,0.0,0.0,0.0,0.0,0.0,0.0,0.0,0.0,0.0,0.0,0.0,0.0,0.0,0.0,0.0,0.0,0.0,0.0,0.0,0.0,0.0,0.0,0.0,0.0,0.0,0.0,0.0,0.0,0.0,0.0,0.0,0.0,0.0,0.0,0.0,0.0,0.0,0.0,0.0,0.0,0.0,0.0,0.0,0.0,0.0,0.0,0.0,0.0,0.0,0.0,0.0,0.0,0.0,0.0,0.0,0.0,0.0,-0.2779,-0.2445,-0.3186,0.0,0.0,-0.5017,-0.6139,-0.6263,-0.6597,-0.718,-0.7336,-0.7429,-0.7495,-0.7517,-0.8065,-0.9148,-0.9734,-1.0591,-1.1643,-1.2227,-1.2501,-1.2501,-1.2501,-1.2501,-1.2501,-1.2501,-1.2501,-1.2501,-1.2501,-1.2501,-1.2501,0.1147,0.0742,0.0472,0.0472,0.0205,0.0,0.0,0.0,0.0,0.0,0.0,0.0,0.0,0.0,0.0,0.0,0.0,0.0,0.0,0.0,0.0,0.0,0.0,0.0,0.0,0.0,0.0,0.0,0.0,0.0,0.0,0.0,0.0,0.0,0.0,0.0,0.0,0.0,0.0,0.0,0.0,0.0,0.0,0.0,0.0,0.0,0.0,0.0,0.0,0.0,0.0,0.0,0.0,0.0,0.0,0.0,0.0,0.0,0.0,0.0,0.0,0.0,0.0,0.0,0.0,0.0,0.0,0.0,0.0,0.0,0.0,0.0,0.0,0.0,0.0,0.0,0.0,0.0,0.0,0.0,0.0,0.0,0.0,0.0,-0.0764,-0.2631,-0.2779,-0.312,0.0,0.0,-0.4181,-0.4584,-0.4584,-0.534,-0.6951,-0.6955,-0.7045,-0.7251,-0.7259,-0.731,-0.7429,-0.9029,-0.9812,-0.9967,-1.1643,-1.2385,-1.2385,-1.2463,-1.2501,-1.2501,-1.2501,-1.2501,-1.2501,-1.2501,-1.2501,-1.2501,0.0729,0.0382,0.0139,0.0139,0.007,0.0,0.0,0.0,0.0,0.0,0.0,0.0,0.0,0.0,0.0,0.0,0.0,0.0,0.0,0.0,0.0,0.0,0.0,0.0,0.0,0.0,0.0,0.0,0.0,0.0,0.0,0.0,0.0,0.0,0.0,0.0,0.0,0.0,0.0,0.0,0.0,0.0,0.0,0.0,0.0,0.0,0.0,0.0,0.0,0.0,0.0,0.0,0.0,0.0,0.0,0.0,0.0,0.0,0.0,0.0,0.0,0.0,0.0,0.0,0.0,0.0,0.0,0.0,0.0,0.0,0.0,0.0,0.0,0.0,0.0,0.0,0.0,0.0,0.0,0.0,0.0,0.0,0.0,0.0,-0.021,-0.0704,-0.1031,-0.1402,0.0,0.0,0.0,-0.2914,-0.2914,-0.3137,-0.3548,-0.362,-0.3649,-0.371,-0.3743,-0.4434,-0.5641,-0.6082,-0.6965,-0.8253,-0.9928,-1.063,-1.0746,-1.1995,-1.2501,-1.2501,-1.2501,-1.2501,-1.2501,-1.2501,-1.2501,-1.2501,0.0351,0.0141,0.0,0.0,0.0,0.0,0.0,0.0,0.0,0.0,0.0,0.0,0.0,0.0,0.0,0.0,0.0,0.0,0.0,0.0,0.0,0.0,0.0,0.0,0.0,0.0,0.0,0.0,0.0,0.0,0.0,0.0,0.0,0.0,0.0,0.0,0.0,0.0,0.0,0.0,0.0,0.0,0.0,0.0,0.0,0.0,0.0,0.0,0.0,0.0,0.0,0.0,0.0,0.0,0.0,0.0,0.0,0.0,0.0,0.0,0.0,0.0,0.0,0.0,0.0,0.0,0.0,0.0,0.0,0.0,0.0,0.0,0.0,0.0,0.0,0.0,0.0,0.0,0.0,0.0,0.0,0.0,0.0,0.0,0.0,0.0,-0.0353,-0.0747,0.0,0.0,0.0,-0.2278,-0.229,-0.2296,-0.2296,-0.235,-0.2365,-0.2415,-0.2451,-0.2975,-0.3928,-0.465,-0.5532,-0.6499,-0.8175,-0.9306,-1.0083,-1.102,-1.1837,-1.2501,-1.2501,-1.2501,-1.2501,-1.2501,-1.2501,-1.2501,0.0071,0.0,0.0,0.0,0.0,0.0,0.0,0.0,0.0,0.0,0.0,0.0,0.0,0.0,0.0,0.0,0.0,0.0,0.0,0.0,0.0,0.0,0.0,0.0,0.0,0.0,0.0,0.0,0.0,0.0,0.0,0.0,0.0,0.0,0.0,0.0,0.0,0.0,0.0,0.0,0.0,0.0,0.0,0.0,0.0,0.0,0.0,0.0,0.0,0.0,0.0,0.0,0.0,0.0,0.0,0.0,0.0,0.0,0.0,0.0,0.0,0.0,0.0,0.0,0.0,0.0,0.0,0.0,0.0,0.0,0.0,0.0,0.0,0.0,0.0,0.0,0.0,0.0,0.0,0.0,0.0,0.0,0.0,0.0,0.0,0.0,-0.0315,0.0,0.0,0.0,0.0,-0.2296,-0.2284,-0.2296,-0.2296,0.0,-0.2346,-0.2372,-0.2413,-0.2443,-0.2534,-0.3998,-0.4682,-0.477,-0.6456,-0.8136,-0.9695,-0.9928,-1.0982,-1.2501,-1.2501,-1.2501,-1.2501,-1.2501,-1.2501,-1.2501,0.0,0.0,0.0,0.0,0.0,0.0,0.0,0.0,0.0,0.0,0.0,0.0,0.0,0.0,0.0,0.0,0.0,0.0,0.0,0.0,0.0,0.0,0.0,0.0,0.0,0.0,0.0,0.0,0.0,0.0,0.0,0.0,0.0,0.0,0.0,0.0,0.0,0.0,0.0,0.0,0.0,0.0,0.0,0.0,0.0,0.0,0.0,0.0,0.0,0.0,0.0,0.0,0.0,0.0,0.0,0.0,0.0,0.0,0.0,0.0,0.0,0.0,0.0,0.0,0.0,0.0,0.0,0.0,0.0,0.0,0.0,0.0,0.0,0.0,0.0,0.0,0.0,0.0,0.0,0.0,0.0,0.0,0.0,0.0,0.0,0.0,0.0,0.0,0.0,0.0,0.0,0.0,-0.2294,0.0,0.0,0.0,-0.2299,-0.2304,-0.2366,-0.2421,-0.2433,-0.2789,-0.2933,-0.3018,-0.4722,-0.638,-0.8059,-0.9423,-1.0982,-1.2501,-1.2501,-1.2501,-1.2501,-1.2501,-1.2501,-1.2501,0.0,0.0,0.0,0.0,0.0,0.0,0.0,0.0,0.0,0.0,0.0,0.0,0.0,0.0,0.0,0.0,0.0,0.0,0.0,0.0,0.0,0.0,0.0,0.0,0.0,0.0,0.0,0.0,0.0,0.0,0.0,0.0,0.0,0.0,0.0,0.0,0.0,0.0,0.0,0.0,0.0,0.0,0.0,0.0,0.0,0.0,0.0,0.0,0.0,0.0,0.0,0.0,0.0,0.0,0.0,0.0,0.0,0.0,0.0,0.0,0.0,0.0,0.0,0.0,0.0,0.0,0.0,0.0,0.0,0.0,0.0,0.0,0.0,0.0,0.0,0.0,0.0,0.0,0.0,0.0,0.0,0.0,0.0,0.0,0.0,0.0,0.0,0.0,0.0,0.0,0.0,0.0,0.0,0.0,0.0,0.0,0.0,-0.2297,-0.2348,-0.2363,-0.2416,-0.2446,-0.2477,-0.2547,-0.3334,-0.5142,-0.771,-1.0241,-1.176,-1.2501,-1.2501,-1.2501,-1.2501,-1.2501,-1.2501,-1.2501,0.0,0.0,0.0,0.0,0.0,0.0,0.0,0.0,0.0,0.0,0.0,0.0,0.0,0.0,0.0,0.0,0.0,0.0,0.0,0.0,0.0,0.0,0.0,0.0,0.0,0.0,0.0,0.0,0.0,0.0,0.0,0.0,0.0,0.0,0.0,0.0,0.0,0.0,0.0,0.0,0.0,0.0,0.0,0.0,0.0,0.0,0.0,0.0,0.0,0.0,0.0,0.0,0.0,0.0,0.0,0.0,0.0,0.0,0.0,0.0,0.0,0.0,0.0,0.0,0.0,0.0,0.0,0.0,0.0,0.0,0.0,0.0,0.0,0.0,0.0,0.0,0.0,0.0,0.0,0.0,0.0,0.0,0.0,0.0,0.0,0.0,0.0,0.0,0.0,0.0,0.0,0.0,0.0,-0.2287,-0.2287,0.0,-0.2296,-0.2296,-0.2296,-0.2345,-0.2369,-0.2413,-0.2442,-0.2489,-0.2502,-0.442,-0.7749,-1.0746,-1.2189,-1.2501,-1.2501,-1.2501,-1.2501,-1.2501,-1.2501,-1.2501,0.0,0.0,0.0,0.0,0.0,0.0,0.0,0.0,0.0,0.0,0.0,0.0,0.0,0.0,0.0,0.0,0.0,0.0,0.0,0.0,0.0,0.0,0.0,0.0,0.0,0.0,0.0,0.0,0.0,0.0,0.0,0.0,0.0,0.0,0.0,0.0,0.0,0.0,0.0,0.0,0.0,0.0,0.0,0.0,0.0,0.0,0.0,0.0,0.0,0.0,0.0,0.0,0.0,0.0,0.0,0.0,0.0,0.0,0.0,0.0,0.0,0.0,0.0,0.0,0.0,0.0,0.0,0.0,0.0,0.0,0.0,0.0,0.0,0.0,0.0,0.0,0.0,0.0,0.0,0.0,0.0,0.0,0.0,0.0,0.0,0.0,0.0,0.0,0.0,0.0,0.0,-0.229,0.0,-0.2294,-0.2294,-0.2284,-0.2296,-0.2296,-0.2296,-0.2297,-0.2301,-0.2365,-0.2418,-0.2427,-0.2483,-0.442,-0.7632,-0.9462,-1.1137,-1.2501,-1.2501,-1.2501,-1.2501,-1.2501,-1.2501,-1.2501,0.0,0.0,0.0,0.0,0.0,0.0,0.0,0.0,0.0,0.0,0.0,0.0,0.0,0.0,0.0,0.0,0.0,0.0,0.0,0.0,0.0,0.0,0.0,0.0,0.0,0.0,0.0,0.0,0.0,0.0,0.0,0.0,0.0,0.0,0.0,0.0,0.0,0.0,0.0,0.0,0.0,0.0,0.0,0.0,0.0,0.0,0.0,0.0,0.0,0.0,0.0,0.0,0.0,0.0,0.0,0.0,0.0,0.0,0.0,0.0,0.0,0.0,0.0,0.0,0.0,0.0,0.0,0.0,0.0,0.0,0.0,0.0,0.0,0.0,0.0,0.0,0.0,0.0,0.0,0.0,0.0,0.0,0.0,0.0,0.0,0.0,0.0,0.0,0.0,0.0,0.0,-0.2004,0.0,-0.2316,-0.2316,-0.2291,-0.2296,-0.2296,-0.2296,-0.2296,-0.2297,-0.2345,-0.2361,-0.2456,-0.3544,-0.5324,-0.763,-0.9317,-1.0982,-1.2501,-1.2501,-1.2501,-1.2501,-1.2501,-1.2501,-1.2501,0.0,0.0,0.0,0.0,0.0,0.0,0.0,0.0,0.0,0.0,0.0,0.0,0.0,0.0,0.0,0.0,0.0,0.0,0.0,0.0,0.0,0.0,0.0,0.0,0.0,0.0,0.0,0.0,0.0,0.0,0.0,0.0,0.0,0.0,0.0,0.0,0.0,0.0,0.0,0.0,0.0,0.0,0.0,0.0,0.0,0.0,0.0,0.0,0.0,0.0,0.0,0.0,0.0,0.0,0.0,0.0,0.0,0.0,0.0,0.0,0.0,0.0,0.0,0.0,0.0,0.0,0.0,0.0,0.0,0.0,0.0,0.0,0.0,0.0,0.0,0.0,0.0,0.0,0.0,0.0,0.0,0.0,0.0,0.0,0.0,0.0,0.0,0.0,0.0,0.0,0.0,0.0,0.0,0.0,0.0,-0.2292,-0.2296,-0.2296,-0.2296,-0.2296,-0.2296,-0.2296,-0.235,-0.2455,-0.3705,-0.5196,-0.6846,-0.8025,-0.9816,-1.176,-1.176,-1.2072,-1.2501,-1.2501,-1.2501,-1.2501,0.0,0.0,0.0,0.0,0.0,0.0,0.0,0.0,0.0,0.0,0.0,0.0,0.0,0.0,0.0,0.0,0.0,0.0,0.0,0.0,0.0,0.0,0.0,0.0,0.0,0.0,0.0,0.0,0.0,0.0,0.0,0.0,0.0,0.0,0.0,0.0,0.0,0.0,0.0,0.0,0.0,0.0,0.0,0.0,0.0,0.0,0.0,0.0,0.0,0.0,0.0,0.0,0.0,0.0,0.0,0.0,0.0,0.0,0.0,0.0,0.0,0.0,0.0,0.0,0.0,0.0,0.0,0.0,0.0,0.0,0.0,0.0,0.0,0.0,0.0,0.0,0.0,0.0,0.0,0.0,0.0,0.0,0.0,0.0,0.0,0.0,0.0,0.0,0.0,0.0,0.0,-0.2255,-0.2291,0.0,-0.2291,-0.2283,-0.2296,-0.2296,-0.2296,-0.2296,-0.2296,-0.2296,-0.235,-0.2415,-0.2416,-0.3427,-0.5039,-0.5039,-0.7044,-1.0045,-1.0045,-1.1056,-1.2501,-1.2501,-1.2501,-1.2501,0.0,0.0,0.0,0.0,0.0,0.0,0.0,0.0,0.0,0.0,0.0,0.0,0.0,0.0,0.0,0.0,0.0,0.0,0.0,0.0,0.0,0.0,0.0,0.0,0.0,0.0,0.0,0.0,0.0,0.0,0.0,0.0,0.0,0.0,0.0,0.0,0.0,0.0,0.0,0.0,0.0,0.0,0.0,0.0,0.0,0.0,0.0,0.0,0.0,0.0,0.0,0.0,0.0,0.0,0.0,0.0,0.0,0.0,0.0,0.0,0.0,0.0,0.0,0.0,0.0,0.0,0.0,0.0,0.0,0.0,0.0,0.0,0.0,0.0,0.0,0.0,0.0,0.0,0.0,0.0,0.0,0.0,0.0,0.0,0.0,0.0,0.0,0.0,0.0,0.0,0.0,0.0,-0.2165,0.0,-0.2283,-0.2292,-0.2296,-0.2296,-0.2296,-0.2296,-0.2296,-0.2296,-0.2301,-0.2348,-0.2369,-0.3357,-0.4921,-0.4922,-0.627,-0.8309,-0.8309,-0.862,-0.9073,-0.9073,-0.9073,-0.9267,0.0,0.0,0.0,0.0,0.0,0.0,0.0,0.0,0.0,0.0,0.0,0.0,0.0,0.0,0.0,0.0,0.0,0.0,0.0,0.0,0.0,0.0,0.0,0.0,0.0,0.0,0.0,0.0,0.0,0.0,0.0,0.0,0.0,0.0,0.0,0.0,0.0,0.0,0.0,0.0,0.0,0.0,0.0,0.0,0.0,0.0,0.0,0.0,0.0,0.0,0.0,0.0,0.0,0.0,0.0,0.0,0.0,0.0,0.0,0.0,0.0,0.0,0.0,0.0,0.0,0.0,0.0,0.0,0.0,0.0,0.0,0.0,0.0,0.0,0.0,0.0,0.0,0.0,0.0,0.0,0.0,0.0,0.0,0.0,0.0,0.0,0.0,0.0,0.0,0.0,0.0,-0.1982,-0.2178,0.0,-0.2296,-0.2296,-0.2296,-0.2296,-0.2296,-0.2296,-0.2296,-0.2296,-0.2296,-0.2297,-0.2353,-0.2958,-0.3973,-0.3966,-0.4986,-0.653,-0.6561,-0.6951,-0.7507,-0.7503,-0.7515,-0.7632,0.0,0.0,0.0,0.0,0.0,0.0,0.0,0.0,0.0,0.0,0.0,0.0,0.0,0.0,0.0,0.0,0.0,0.0,0.0,0.0,0.0,0.0,0.0,0.0,0.0,0.0,0.0,0.0,0.0,0.0,0.0,0.0,0.0,0.0,0.0,0.0,0.0,0.0,0.0,0.0,0.0,0.0,0.0,0.0,0.0,0.0,0.0,0.0,0.0,0.0,0.0,0.0,0.0,0.0,0.0,0.0,0.0,0.0,0.0,0.0,0.0,0.0,0.0,0.0,0.0,0.0,0.0,0.0,0.0,0.0,0.0,0.0,0.0,0.0,0.0,0.0,0.0,0.0,0.0,0.0,0.0,0.0,0.0,0.0,0.0,0.0,0.0,0.0,0.0,0.0,-0.1584,-0.2295,-0.2296,-0.2296,-0.2296,-0.2296,-0.2296,-0.2296,-0.2296,-0.2296,-0.2296,-0.2296,-0.2296,-0.2296,-0.2296,-0.2349,-0.2375,-0.2375,-0.3324,-0.4719,-0.4812,-0.5756,-0.715,-0.7162,-0.7154,-0.7156,0.0,0.0,0.0,0.0,0.0,0.0,0.0,0.0,0.0,0.0,0.0,0.0,0.0,0.0,0.0,0.0,0.0,0.0,0.0,0.0,0.0,0.0,0.0,0.0,0.0,0.0,0.0,0.0,0.0,0.0,0.0,0.0,0.0,0.0,0.0,0.0,0.0,0.0,0.0,0.0,0.0,0.0,0.0,0.0,0.0,0.0,0.0,0.0,0.0,0.0,0.0,0.0,0.0,0.0,0.0,0.0,0.0,0.0,0.0,0.0,0.0,0.0,0.0,0.0,0.0,0.0,0.0,0.0,0.0,0.0,0.0,0.0,0.0,0.0,0.0,0.0,0.0,0.0,0.0,0.0,0.0,0.0,0.0,0.0,0.0,0.0,0.0,0.0,0.0,-0.1505,-0.1871,-0.2295,-0.2296,-0.2296,-0.2296,-0.2296,-0.2296,-0.2296,-0.2296,-0.2296,-0.2296,-0.2296,-0.2296,-0.2296,-0.2296,-0.23,-0.2307,-0.2307,-0.2582,-0.2984,-0.2994,-0.324,-0.3614,-0.366,-0.3676,-0.3875,0.0,0.0,0.0,0.0,0.0,0.0,0.0,0.0,0.0,0.0,0.0,0.0,0.0,0.0,0.0,0.0,0.0,0.0,0.0,0.0,0.0,0.0,0.0,0.0,0.0,0.0,0.0,0.0,0.0,0.0,0.0,0.0,0.0,0.0,0.0,0.0,0.0,0.0,0.0,0.0,0.0,0.0,0.0,0.0,0.0,0.0,0.0,0.0,0.0,0.0,0.0,0.0,0.0,0.0,0.0,0.0,0.0,0.0,0.0,0.0,0.0,0.0,0.0,0.0,0.0,0.0,0.0,0.0,0.0,0.0,0.0,0.0,0.0,0.0,0.0,0.0,0.0,0.0,0.0,0.0,0.0,0.0,0.0,0.0,-0.0073,-0.0253,-0.065,0.0,-0.1444,-0.184,-0.21,-0.2296,-0.2296,-0.2296,-0.2296,-0.2296,-0.2296,-0.2296,-0.2296,-0.2296,-0.2296,-0.2296,-0.2296,-0.2296,-0.2296,-0.2296,-0.2296,-0.2296,-0.2306,-0.2359,-0.2373,-0.2388,-0.2406,-0.2437,-0.2457,-0.2625,0.0,0.0,0.0,0.0,0.0,0.0,0.0,0.0,0.0,0.0,0.0,0.0,0.0,0.0,0.0,0.0,0.0,0.0,0.0,0.0,0.0,0.0,0.0,0.0,0.0,0.0,0.0,0.0,0.0,0.0,0.0,0.0,0.0,0.0,0.0,0.0,0.0,0.0,0.0,0.0,0.0,0.0,0.0,0.0,0.0,0.0,0.0,0.0,0.0,0.0,0.0,0.0,0.0,0.0,0.0,0.0,0.0,0.0,0.0,0.0,0.0,0.0,0.0,0.0,0.0,0.0,0.0,0.0,0.0,0.0,0.0,0.0,0.0,0.0,0.0,0.0,0.0,0.0,0.0,0.0,0.0,0.0,0.0,0.0,-0.0182,-0.0584,-0.0985,-0.1386,-0.1785,-0.2114,-0.2296,-0.2296,-0.2296,-0.2296,-0.2296,-0.2296,-0.2296,-0.2296,-0.2296,-0.2296,-0.2296,-0.2296,-0.2296,-0.2296,-0.2296,-0.2296,-0.2296,-0.2296,-0.2296,-0.2299,-0.2361,-0.2371,-0.2375,-0.2405,-0.2433,-0.2494,0.0,0.0,0.0,0.0,0.0,0.0,0.0,0.0,0.0,0.0,0.0,0.0,0.0,0.0,0.0,0.0,0.0,0.0,0.0,0.0,0.0,0.0,0.0,0.0,0.0,0.0,0.0,0.0,0.0,0.0,0.0,0.0,0.0,0.0,0.0,0.0,0.0,0.0,0.0,0.0,0.0,0.0,0.0,0.0,0.0,0.0,0.0,0.0,0.0,0.0,0.0,0.0,0.0,0.0,0.0,0.0,0.0,0.0,0.0,0.0,0.0,0.0,0.0,0.0,0.0,0.0,0.0,0.0,0.0,0.0,0.0,0.0,0.0,0.0,0.0,0.0,0.0,0.0,0.0,0.0,0.0,0.0,0.0,0.0,-0.0182,-0.0584,-0.0985,-0.1386,-0.1785,-0.2114,-0.2296,-0.2296,-0.2296,-0.2296,-0.2296,-0.2296,-0.2296,-0.2296,-0.2296,-0.2296,-0.2296,-0.2296,-0.2296,-0.2296,-0.2296,-0.2296,-0.2296,-0.2296,-0.2296,-0.2297,-0.2301,-0.2303,-0.2307,-0.2374,-0.2426,-0.2433,0.0,0.0,0.0,0.0,0.0,0.0,0.0,0.0,0.0,0.0,0.0,0.0,0.0,0.0,0.0,0.0,0.0,0.0,0.0,0.0,0.0,0.0,0.0,0.0,0.0,0.0,0.0,0.0,0.0,0.0,0.0,0.0,0.0,0.0,0.0,0.0,0.0,0.0,0.0,0.0,0.0,0.0,0.0,0.0,0.0,0.0,0.0,0.0,0.0,0.0,0.0,0.0,0.0,0.0,0.0,0.0,0.0,0.0,0.0,0.0,0.0,0.0,0.0,0.0,0.0,0.0,0.0,0.0,0.0,0.0,0.0,0.0,0.0,0.0,0.0,0.0,0.0,0.0,0.0,0.0,0.0,0.0,0.0,0.0,-0.0255,-0.0876,-0.1095,-0.1459,-0.2041,-0.2223,-0.2296,-0.2296,-0.2296,-0.2296,-0.2296,-0.2296,-0.2296,-0.2296,-0.2296,-0.2296,-0.2296,-0.2296,-0.2296,-0.2296,-0.2296,-0.2296,-0.2296,-0.2296,-0.2296,-0.2296,-0.2296,-0.2296,-0.2298,-0.2348,-0.2364,-0.2417,0.0,0.0,0.0,0.0,0.0,0.0,0.0,0.0,0.0,0.0,0.0,0.0,0.0,0.0,0.0,0.0,0.0,0.0,0.0,0.0,0.0,0.0,0.0,0.0,0.0,0.0,0.0,0.0,0.0,0.0,0.0,0.0,0.0,0.0,0.0,0.0,0.0,0.0,0.0,0.0,0.0,0.0,0.0,0.0,0.0,0.0,0.0,0.0,0.0,0.0,0.0,0.0,0.0,0.0,0.0,0.0,0.0,0.0,0.0,0.0,0.0,0.0,0.0,0.0,0.0,0.0,0.0,0.0,0.0,0.0,0.0,0.0,0.0,0.0,0.0,0.0,0.0,0.0,0.0,0.0,0.0,0.0,0.0,0.0,-0.0328,-0.1131,-0.1204,-0.1532,-0.226,-0.2296,-0.2296,-0.2296,-0.2296,-0.2296,-0.2296,-0.2296,-0.2296,-0.2296,-0.2296,-0.2296,-0.2296,-0.2296,-0.2296,-0.2296,-0.2296,-0.2296,-0.2296,-0.2296,-0.2296,-0.2296,-0.2296,-0.2296,-0.2296,-0.2296,-0.2348,-0.2367,0.0,0.0,0.0,0.0,0.0,0.0,0.0,0.0,0.0,0.0,0.0,0.0,0.0,0.0,0.0,0.0,0.0,0.0,0.0,0.0,0.0,0.0,0.0,0.0,0.0,0.0,0.0,0.0,0.0,0.0,0.0,0.0,0.0,0.0,0.0,0.0,0.0,0.0,0.0,0.0,0.0,0.0,0.0,0.0,0.0,0.0,0.0,0.0,0.0,0.0,0.0,0.0,0.0,0.0,0.0,0.0,0.0,0.0,0.0,0.0,0.0,0.0,0.0,0.0,0.0,0.0,0.0,0.0,0.0,0.0,0.0,0.0,0.0,0.0,0.0,0.0,0.0,0.0,0.0,0.0,0.0,0.0,0.0,0.0,-0.0328,-0.1131,-0.1204,-0.1532,-0.226,-0.2296,-0.2296,-0.2296,-0.2296,-0.2296,-0.2296,-0.2296,-0.2296,-0.2296,-0.2296,-0.2296,-0.2296,-0.2296,-0.2296,-0.2296,-0.2296,-0.2296,-0.2296,-0.2296,-0.2296,-0.2296,-0.2296,-0.2296,-0.2296,-0.2296,-0.2297,-0.2299,0.0,0.0,0.0,0.0,0.0,0.0,0.0,0.0,0.0,0.0,0.0,0.0,0.0,0.0,0.0,0.0,0.0,0.0,0.0,0.0,0.0,0.0,0.0,0.0,0.0,0.0,0.0,0.0,0.0,0.0,0.0,0.0,0.0,0.0,0.0,0.0,0.0,0.0,0.0,0.0,0.0,0.0,0.0,0.0,0.0,0.0,0.0,0.0,0.0,0.0,0.0,0.0,0.0,0.0,0.0,0.0,0.0,0.0,0.0,0.0,0.0,0.0,0.0,0.0,0.0,0.0,0.0,0.0,0.0,0.0,0.0,0.0,0.0,0.0,0.0,0.0,0.0,0.0,0.0,0.0,0.0,0.0,0.0,0.0,-0.0219,-0.0803,-0.1058,-0.1423,-0.1968,-0.2187,-0.2296,-0.2296,-0.2296,-0.2296,-0.2296,-0.2296,-0.2296,-0.2296,-0.2296,-0.2296,-0.2296,-0.2296,-0.2296,-0.2296,-0.2296,-0.2296,-0.2296,-0.2296,-0.2296,-0.2296,-0.2296,-0.2296,-0.2296,-0.2296,-0.2296,-0.2296,0.0,0.0,0.0,0.0,0.0,0.0,0.0,0.0,0.0,0.0,0.0,0.0,0.0,0.0,0.0,0.0,0.0,0.0,0.0,0.0,0.0,0.0,0.0,0.0,0.0,0.0,0.0,0.0,0.0,0.0,0.0,0.0,0.0,0.0,0.0,0.0,0.0,0.0,0.0,0.0,0.0,0.0,0.0,0.0,0.0,0.0,0.0,0.0,0.0,0.0,0.0,0.0,0.0,0.0,0.0,0.0,0.0,0.0,0.0,0.0,0.0,0.0,0.0,0.0,0.0,0.0,0.0,0.0,0.0,0.0,0.0,0.0,0.0,0.0,0.0,0.0,0.0,0.0,0.0,0.0,0.0,0.0,0.0,0.0,-0.0182,-0.0584,-0.0839,-0.124,-0.1785,-0.2114,-0.2296,-0.2296,-0.2296,-0.2296,-0.2296,-0.2296,-0.2296,-0.2296,-0.2296,-0.2296,-0.2296,-0.2296,-0.2296,-0.2296,-0.2296,-0.2296,-0.2296,-0.2296,-0.2296,-0.2296,-0.2296,-0.2296,-0.2296,-0.2296,-0.2296,-0.2296,0.0,0.0,0.0,0.0,0.0,0.0,0.0,0.0,0.0,0.0,0.0,0.0,0.0,0.0,0.0,0.0,0.0,0.0,0.0,0.0,0.0,0.0,0.0,0.0,0.0,0.0,0.0,0.0,0.0,0.0,0.0,0.0,0.0,0.0,0.0,0.0,0.0,0.0,0.0,0.0,0.0,0.0,0.0,0.0,0.0,0.0,0.0,0.0,0.0,0.0,0.0,0.0,0.0,0.0,0.0,0.0,0.0,0.0,0.0,0.0,0.0,0.0,0.0,0.0,0.0,0.0,0.0,0.0,0.0,0.0,0.0,0.0,0.0,0.0,0.0,0.0,0.0,0.0,0.0,0.0,0.0,0.0,0.0,0.0,-0.0182,-0.0547,-0.0584,-0.0948,-0.1749,-0.2114,-0.2296,-0.2296,-0.2296,-0.2296,-0.2296,-0.2296,-0.2296,-0.2296,-0.2296,-0.2296,-0.2296,-0.2296,-0.2296,-0.2296,-0.2296,-0.2296,-0.2296,-0.2296,-0.2296,-0.2296,-0.2296,-0.2296,-0.2296,-0.2296,-0.2296,-0.2296,0.0,0.0,0.0,0.0,0.0,0.0,0.0,0.0,0.0,0.0,0.0,0.0,0.0,0.0,0.0,0.0,0.0,0.0,0.0,0.0,0.0,0.0,0.0,0.0,0.0,0.0,0.0,0.0,0.0,0.0,0.0,0.0,0.0,0.0,0.0,0.0,0.0,0.0,0.0,0.0,0.0,0.0,0.0,0.0,0.0,0.0,0.0,0.0,0.0,0.0,0.0,0.0,0.0,0.0,0.0,0.0,0.0,0.0,0.0,0.0,0.0,0.0,0.0,0.0,0.0,0.0,0.0,0.0,0.0,0.0,0.0,0.0,0.0,0.0,0.0,0.0,0.0,0.0,0.0,0.0,0.0,0.0,0.0,0.0,-0.0036,-0.0182,-0.0693,-0.1131,-0.1349,-0.1969,-0.2187,-0.1968,-0.2187,-0.2296,-0.2296,-0.2296,-0.2296,-0.2296,-0.2296,-0.2296,-0.2296,-0.2296,-0.2296,-0.2296,-0.2296,-0.2296,-0.2296,-0.2296,-0.2296,-0.2296,-0.2296,-0.2296,-0.2296,-0.2296,-0.2296,-0.2296,0.0,0.0,0.0,0.0,0.0,0.0,0.0,0.0,0.0,0.0,0.0,0.0,0.0,0.0,0.0,0.0,0.0,0.0,0.0,0.0,0.0,0.0,0.0,0.0,0.0,0.0,0.0,0.0,0.0,0.0,0.0,0.0,0.0,0.0,0.0,0.0,0.0,0.0,0.0,0.0,0.0,0.0,0.0,0.0,0.0,0.0,0.0,0.0,0.0,0.0,0.0,0.0,0.0,0.0,0.0,0.0,0.0,0.0,0.0,0.0,0.0,0.0,0.0,0.0,0.0,0.0,0.0,0.0,0.0,0.0,0.0,0.0,0.0,0.0,0.0,0.0,0.0,0.0,0.0,0.0,0.0,0.0,0.0,0.0,0.0,0.0,-0.0584,-0.0949,-0.0949,-0.1677,-0.2005,-0.1822,-0.2114,-0.2296,-0.2296,-0.2296,-0.2296,-0.2296,-0.2296,-0.2296,-0.2296,-0.2296,-0.2296,-0.2296,-0.2296,-0.2296,-0.2296,-0.2296,-0.2296,-0.2296,-0.2296,-0.2296,-0.2296,-0.2296,-0.2296,-0.2296,0.0,0.0,0.0,0.0,0.0,0.0,0.0,0.0,0.0,0.0,0.0,0.0,0.0,0.0,0.0,0.0,0.0,0.0,0.0,0.0,0.0,0.0,0.0,0.0,0.0,0.0,0.0,0.0,0.0,0.0,0.0,0.0,0.0,0.0,0.0,0.0,0.0,0.0,0.0,0.0,0.0,0.0,0.0,0.0,0.0,0.0,0.0,0.0,0.0,0.0,0.0,0.0,0.0,0.0,0.0,0.0,0.0,0.0,0.0,0.0,0.0,0.0,0.0,0.0,0.0,0.0,0.0,0.0,0.0,0.0,0.0,0.0,0.0,0.0,0.0,0.0,0.0,0.0,0.0,0.0,0.0,0.0,0.0,0.0,0.0,0.0,-0.0365,-0.0584,-0.0547,-0.1349,-0.1785,-0.175,-0.2114,-0.2296,-0.2296,-0.2296,-0.2296,-0.2296,-0.2296,-0.2296,-0.2296,-0.2296,-0.2296,-0.2296,-0.2296,-0.2296,-0.2296,-0.2296,-0.2296,-0.2296,-0.2296,-0.2296,-0.2296,-0.2296,-0.2296,-0.2296,0.0,0.0,0.0,0.0,0.0,0.0,0.0,0.0,0.0,0.0,0.0,0.0,0.0,0.0,0.0,0.0,0.0,0.0,0.0,0.0,0.0,0.0,0.0,0.0,0.0,0.0,0.0,0.0,0.0,0.0,0.0,0.0,0.0,0.0,0.0,0.0,0.0,0.0,0.0,0.0,0.0,0.0,0.0,0.0,0.0,0.0,0.0,0.0,0.0,0.0,0.0,0.0,0.0,0.0,0.0,0.0,0.0,0.0,0.0,0.0,0.0,0.0,0.0,0.0,0.0,0.0,0.0,0.0,0.0,0.0,0.0,0.0,0.0,0.0,0.0,0.0,0.0,0.0,0.0,0.0,0.0,0.0,0.0,0.0,0.0,0.0,-0.0365,-0.0474,-0.0146,-0.1203,-0.164,-0.135,-0.1969,-0.2296,-0.2296,-0.2296,-0.2296,-0.2296,-0.2296,-0.2296,-0.2296,-0.2296,-0.2296,-0.2296,-0.2296,-0.2296,-0.2296,-0.2296,-0.2296,-0.2296,-0.2296,-0.2296,-0.2296,-0.2296,-0.2296,-0.2296,0.0,0.0,0.0,0.0,0.0,0.0,0.0,0.0,0.0,0.0,0.0,0.0,0.0,0.0,0.0,0.0,0.0,0.0,0.0,0.0,0.0,0.0,0.0,0.0,0.0,0.0,0.0,0.0,0.0,0.0,0.0,0.0,0.0,0.0,0.0,0.0,0.0,0.0,0.0,0.0,0.0,0.0,0.0,0.0,0.0,0.0,0.0,0.0,0.0,0.0,0.0,0.0,0.0,0.0,0.0,0.0,0.0,0.0,0.0,0.0,0.0,0.0,0.0,0.0,0.0,0.0,0.0,0.0,0.0,0.0,0.0,0.0,0.0,0.0,0.0,0.0,0.0,0.0,0.0,0.0,0.0,0.0,0.0,0.0,0.0,0.0,-0.0182,-0.0292,-0.0292,-0.1058,-0.1495,-0.1495,-0.2005,-0.2296,-0.2296,-0.2296,-0.2296,-0.2296,-0.2296,-0.2296,-0.2296,-0.2296,-0.2296,-0.2296,-0.2296,-0.2296,-0.2296,-0.2296,-0.2296,-0.2296,-0.2296,-0.2296,-0.2296,-0.2296,-0.2296,-0.2296,0.0,0.0,0.0,0.0,0.0,0.0,0.0,0.0,0.0,0.0,0.0,0.0,0.0,0.0,0.0,0.0,0.0,0.0,0.0,0.0,0.0,0.0,0.0,0.0,0.0,0.0,0.0,0.0,0.0,0.0,0.0,0.0,0.0,0.0,0.0,0.0,0.0,0.0,0.0,0.0,0.0,0.0,0.0,0.0,0.0,0.0,0.0,0.0,0.0,0.0,0.0,0.0,0.0,0.0,0.0,0.0,0.0,0.0,0.0,0.0,0.0,0.0,0.0,0.0,0.0,0.0,0.0,0.0,0.0,0.0,0.0,0.0,0.0,0.0,0.0,0.0,0.0,0.0,0.0,0.0,0.0,0.0,0.0,0.0,0.0,0.0,0.0,-0.0146,-0.0474,-0.0949,-0.1349,-0.1677,-0.2078,-0.2296,-0.2296,-0.2296,-0.2296,-0.2296,-0.2296,-0.2296,-0.2296,-0.2296,-0.2296,-0.2296,-0.2296,-0.2296,-0.2296,-0.2296,-0.2296,-0.2296,-0.2296,-0.2296,-0.2296,-0.2296,-0.2296,-0.2296,0.0,0.0,0.0,0.0,0.0,0.0,0.0,0.0,0.0,0.0,0.0,0.0,0.0,0.0,0.0,0.0,0.0,0.0,0.0,0.0,0.0,0.0,0.0,0.0,0.0,0.0,0.0,0.0,0.0,0.0,0.0,0.0,0.0,0.0,0.0,0.0,0.0,0.0,0.0,0.0,0.0,0.0,0.0,0.0,0.0,0.0,0.0,0.0,0.0,0.0,0.0,0.0,0.0,0.0,0.0,0.0,0.0,0.0,0.0,0.0,0.0,0.0,0.0,0.0,0.0,0.0,0.0,0.0,0.0,0.0,0.0,0.0,0.0,0.0,0.0,0.0,0.0,0.0,0.0,0.0,0.0,0.0,0.0,0.0,0.0,0.0,0.0,-0.0036,-0.0073,-0.0803,-0.1241,-0.1277,-0.1932,-0.2296,-0.2296,-0.2296,-0.2296,-0.2296,-0.2296,-0.2296,-0.2296,-0.2296,-0.2296,-0.2296,-0.2296,-0.2296,-0.2296,-0.2296,-0.2296,-0.2296,-0.2296,-0.2296,-0.2296,-0.2296,-0.2296,-0.2296,0.0,0.0,0.0,0.0,0.0,0.0,0.0,0.0,0.0,0.0,0.0,0.0,0.0,0.0,0.0,0.0,0.0,0.0,0.0,0.0,0.0,0.0,0.0,0.0,0.0,0.0,0.0,0.0,0.0,0.0,0.0,0.0,0.0,0.0,0.0,0.0,0.0,0.0,0.0,0.0,0.0,0.0,0.0,0.0,0.0,0.0,0.0,0.0,0.0,0.0,0.0,0.0,0.0,0.0,0.0,0.0,0.0,0.0,0.0,0.0,0.0,0.0,0.0,0.0,0.0,0.0,0.0,0.0,0.0,0.0,0.0,0.0,0.0,0.0,0.0,0.0,0.0,0.0,0.0,0.0,0.0,0.0,0.0,0.0,0.0,0.0,0.0,-0.0109,-0.0328,-0.0876,-0.1313,-0.1532,-0.2042,-0.2296,-0.2296,-0.2296,-0.2296,-0.2296,-0.2296,-0.2296,-0.2296,-0.2296,-0.2296,-0.2296,-0.2296,-0.2296,-0.2296,-0.2296,-0.2296,-0.2296,-0.2296,-0.2296,-0.2296,-0.2296,-0.2296,-0.2296]},{"header":{"parameterUnit":"m.s-1","parameterCategory":1,"la1":30.6,"la2":28.766,"lo1":-90.7593,"lo2":-88.6598,"dy":0.0162,"dx":0.0183,"nx":116,"ny":114,"refTime":"2023-05-27T12:00:00:Z","depth":0,"parameterNumber":3,"parameterNumberName":"V-component_of_WINDS"},"data":[0.0,0.0,0.0,0.0,0.0,0.0,0.0,0.0,0.0,0.0,0.0,0.0,0.0,0.0,0.0,0.0,0.0,0.0,0.0,0.0,0.0,0.0,0.0,0.0,0.0,0.0,0.0,0.0,0.0,0.0,0.0,0.0,0.0,0.0,0.0,0.0,0.0,0.0,0.0,0.0,0.0,0.0,0.0,0.0,0.0,0.0,0.0,0.0,0.0,0.0,0.0,0.0,0.0,0.0,0.0,0.0,0.0,0.0,0.0,0.0,0.0,0.0,0.0,0.0,0.0,0.0,0.0,0.0,0.0,0.0,0.0,0.0,0.0,0.0,0.0,0.0,0.0,0.0,0.0,0.0,0.0,0.0,0.0,0.0,0.0,0.0,0.0,0.0,0.0,0.0,0.0,0.0,0.0,0.0,0.0,0.0,0.0,0.0,0.0,0.0,0.0,0.0,0.0,0.0,0.0,0.0,0.0,0.0,0.0,0.0,0.0,0.0,0.0,0.0,0.0,0.0,0.0,0.0,0.0,0.0,0.0,0.0,0.0,0.0,0.0,0.0,0.0,0.0,0.0,0.0,0.0,0.0,0.0,0.0,0.0,0.0,0.0,0.0,0.0,0.0,0.0,0.0,0.0,0.0,0.0,0.0,0.0,0.0,0.0,0.0,0.0,0.0,0.0,0.0,0.0,0.0,0.0,0.0,0.0,0.0,0.0,0.0,0.0,0.0,0.0,0.0,0.0,0.0,0.0,0.0,0.0,0.0,0.0,0.0,0.0,0.0,0.0,0.0,0.0,0.0,0.0,0.0,0.0,0.0,0.0,0.0,0.0,0.0,0.0,0.0,0.0,0.0,0.0,0.0,0.0,0.0,0.0,0.0,0.0,0.0,0.0,0.0,0.0,0.0,0.0,0.0,0.0,0.0,0.0,0.0,0.0,0.0,0.0,0.0,0.0,0.0,0.0,0.0,0.0,0.0,0.0,0.0,0.0,0.0,0.0,0.0,0.0,0.0,0.0,0.0,0.0,0.0,0.0,0.0,0.0,0.0,0.0,0.0,0.0,0.0,0.0,0.0,0.0,0.0,0.0,0.0,0.0,0.0,0.0,0.0,0.0,0.0,0.0,0.0,0.0,0.0,0.0,0.0,0.0,0.0,0.0,0.0,0.0,0.0,0.0,0.0,0.0,0.0,0.0,0.0,0.0,0.0,0.0,0.0,0.0,0.0,0.0,0.0,0.0,0.0,0.0,0.0,0.0,0.0,0.0,0.0,0.0,0.0,0.0,0.0,0.0,0.0,0.0,0.0,0.0,0.0,0.0,0.0,0.0,0.0,0.0,0.0,0.0,0.0,0.0,0.0,0.0,0.0,0.0,0.0,0.0,0.0,0.0,0.0,0.0,0.0,0.0,0.0,0.0,0.0,0.0,0.0,0.0,0.0,0.0,0.0,0.0,0.0,0.0,0.0,0.0,0.0,0.0,0.0,0.0,0.0,0.0,0.0,0.0,0.0,0.0,0.0,0.0,0.0,0.0,0.0,0.0,0.0,0.0,0.0,0.0,0.0,0.0,0.0,0.0,0.0,0.0,0.0,0.0,0.0,0.0,0.0,0.0,0.0,0.0,0.0,0.0,0.0,0.0,0.0,0.0,0.0,0.0,0.0,0.0,0.0,0.0,0.0,0.0,0.0,0.0,0.0,0.0,0.0,0.0,0.0,0.0,0.0,0.0,0.0,0.0,0.0,0.0,0.0,0.0,0.0,0.0,0.0,0.0,0.0,0.0,0.0,0.0,0.0,0.0,0.0,0.0,0.0,0.0,0.0,0.0,0.0,0.0,0.0,0.0,0.0,0.0,0.0,0.0,0.0,0.0,0.0,0.0,0.0,0.0,0.0,0.0,0.0,0.0,0.0,0.0,0.0,0.0,0.0,0.0,0.0,0.0,0.0,0.0,0.0,0.0,0.0,0.0,0.0,0.0,0.0,0.0,0.0,0.0,0.0,0.0,0.0,0.0,0.0,0.0,0.0,0.0,0.0,0.0,0.0,0.0,0.0,0.0,0.0,0.0,0.0,0.0,0.0,0.0,0.0,0.0,0.0,0.0,0.0,0.0,0.0,0.0,0.0,0.0,0.0,0.0,0.0,0.0,0.0,0.0,0.0,0.0,0.0,0.0,0.0,0.0,0.0,0.0,0.0,0.0,0.0,0.0,0.0,0.0,0.0,0.0,0.0,0.0,0.0,0.0,0.0,0.0,0.0,0.0,0.0,0.0,0.0,0.0,0.0,0.0,0.0,0.0,0.0,0.0,0.0,0.0,0.0,0.0,0.0,0.0,0.0,0.0,0.0,0.0,0.0,0.0,0.0,0.0,0.0,0.0,0.0,0.0,0.0,0.0,0.0,0.0,0.0,0.0,0.0,0.0,0.0,0.0,0.0,0.0,0.0,0.0,0.0,0.0,0.0,0.0,0.0,0.0,0.0,0.0,0.0,0.0,0.0,0.0,0.0,0.0,0.0,0.0,0.0,0.0,0.0,0.0,0.0,0.0,0.0,0.0,0.0,0.0,0.0,0.0,0.0,0.0,0.0,0.0,0.0,0.0,0.0,0.0,0.0,0.0,0.0,0.0,0.0,0.0,0.0,0.0,0.0,0.0,0.0,0.0,0.0,0.0,0.0,0.0,0.0,0.0,0.0,0.0,0.0,0.0,0.0,0.0,0.0,0.0,0.0,0.0,0.0,0.0,0.0,0.0,0.0,0.0,0.0,0.0,0.0,0.0,0.0,0.0,0.0,0.0,0.0,0.0,0.0,0.0,0.0,0.0,0.0,0.0,0.0,0.0,0.0,0.0,0.0,0.0,0.0,0.0,0.0,0.0,0.0,0.0,0.0,0.0,0.0,0.0,0.0,0.0,0.0,0.0,0.0,0.0,0.0,0.0,0.0,0.0,0.0,0.0,0.0,0.0,0.0,0.0,0.0,0.0,0.0,0.0,0.0,0.0,0.0,0.0,0.0,0.0,0.0,0.0,0.0,0.0,0.0,0.0,0.0,0.0,0.0,0.0,0.0,0.0,0.0,0.0,0.0,0.0,0.0,0.0,0.0,0.0,0.0,0.0,0.0,0.0,0.0,0.0,0.0,0.0,0.0,0.0,0.0,0.0,0.0,0.0,0.0,0.0,0.0,0.0,0.0,0.0,0.0,0.0,0.0,0.0,0.0,0.0,0.0,0.0,0.0,0.0,0.0,0.0,0.0,0.0,0.0,0.0,0.0,0.0,0.0,0.0,0.0,0.0,0.0,0.0,0.0,0.0,0.0,0.0,0.0,0.0,0.0,0.0,0.0,0.0,0.0,0.0,0.0,0.0,0.0,0.0,0.0,0.0,0.0,0.0,0.0,0.0,0.0,0.0,0.0,0.0,0.0,0.0,0.0,0.0,0.0,0.0,0.0,0.0,0.0,0.0,0.0,0.0,0.0,0.0,0.0,0.0,0.0,0.0,0.0,0.0,0.0,0.0,0.0,0.0,0.0,0.0,0.0,0.0,0.0,0.0,0.0,0.0,0.0,0.0,0.0,0.0,0.0,0.0,0.0,0.0,0.0,0.0,0.0,0.0,0.0,0.0,0.0,0.0,0.0,0.0,0.0,0.0,0.0,0.0,0.0,0.0,0.0,0.0,0.0,0.0,0.0,0.0,0.0,0.0,0.0,0.0,0.0,0.0,0.0,0.0,0.0,0.0,0.0,0.0,0.0,0.0,0.0,0.0,0.0,0.0,0.0,0.0,0.0,0.0,0.0,0.0,0.0,0.0,0.0,0.0,0.0,0.0,0.0,0.0,0.0,0.0,0.0,0.0,0.0,0.0,0.0,0.0,0.0,0.0,0.0,0.0,0.0,0.0,0.0,0.0,0.0,0.0,0.0,0.0,0.0,0.0,0.0,0.0,0.0,0.0,0.0,0.0,0.0,0.0,0.0,0.0,0.0,0.0,0.0,0.0,0.0,0.0,0.0,0.0,0.0,0.0,0.0,0.0,0.0,0.0,0.0,0.0,0.0,0.0,0.0,0.0,0.0,0.0,0.0,0.0,0.0,0.0,0.0,0.0,0.0,0.0,0.0,0.0,0.0,0.0,0.0,0.0,0.0,0.0,0.0,0.0,0.0,0.0,0.0,0.0,0.0,0.0,0.0,0.0,0.0,0.0,0.0,0.0,0.0,0.0,0.0,0.0,0.0,0.0,0.0,0.0,0.0,0.0,0.0,0.0,0.0,0.0,0.0,0.0,0.0,0.0,0.0,0.0,0.0,0.0,0.0,0.0,0.0,0.0,0.0,0.0,0.0,0.0,0.0,0.0,0.0,0.0,0.0,0.0,0.0,0.0,0.0,0.0,0.0,0.0,0.0,0.0,0.0,0.0,0.0,0.0,0.0,0.0,0.0,0.0,0.0,0.0,0.0,0.0,0.0,0.0,0.0,0.0,0.0,0.0,0.0,0.0,0.0,0.0,0.0,0.0,0.0,0.0,0.0,0.0,0.0,0.0,0.0,0.0,0.0,0.0,0.0,0.0,0.0,0.0,0.0,0.0,0.0,0.0,0.0,0.0,0.0,0.0,0.0,0.0,0.0,0.0,0.0,0.0,0.0,0.0,0.0,0.0,0.0,0.0,0.0,0.0,0.0,0.0,0.0,0.0,0.0,0.0,0.0,0.0,0.0,0.0,0.0,0.0,0.0,0.0,0.0,0.0,0.0,0.0,0.0,0.0,0.0,0.0,0.0,0.0,0.0,0.0,0.0,0.0,0.0,0.0,0.0,0.0,0.0,0.0,0.0,0.0,0.0,0.0,0.0,0.0,0.0,0.0,0.0,0.0,0.0,0.0,0.0,0.0,0.0,0.0,0.0,0.0,0.0,0.0,0.0,0.0,0.0,0.0,0.0,0.0,0.0,0.0,0.0,0.0,0.0,0.0,0.0,0.0,0.0,0.0,0.0,0.0,0.0,0.0,0.0,0.0,0.0,0.0,0.0,0.0,0.0,0.0,0.0,0.0,0.0,0.0,0.0,0.0,0.0,0.0,0.0,0.0,0.0,0.0,0.0,0.0,0.0,0.0,0.0,0.0,0.0,0.0,0.0,0.0,0.0,0.0,0.0,0.0,0.0,0.0,0.0,0.0,0.0,0.0,0.0,0.0,0.0,0.0,0.0,0.0,0.0,0.0,0.0,0.0,0.0,0.0,0.0,0.0,0.0,0.0,0.0,0.0,0.0,0.0,0.0,0.0,0.0,0.0,0.0,0.0,0.0,0.0,0.0,0.0,0.0,0.0,0.0,0.0,0.0,0.0,0.0,0.0,0.0,0.0,0.0,0.0,0.0,0.0,0.0,0.0,0.0,0.0,0.0,0.0,0.0,0.0,0.0,0.0,0.0,0.0,0.0,0.0,0.0,0.0,0.0,0.0,0.0,0.0,0.0,0.0,0.0,0.0,0.0,0.0,0.0,0.0,0.0,0.0,0.0,0.0,0.0,0.0,0.0,0.0,0.0,0.0,0.0,0.0,0.0,0.0,0.0,0.0,0.0,0.0,0.0,0.0,0.0,0.0,0.0,0.0,0.0,0.0,0.0,0.0,0.0,0.0,0.0,0.0,0.0,0.0,0.0,0.0,0.0,0.0,0.0,0.0,0.0,0.0,0.0,0.0,0.0,0.0,0.0,0.0,0.0,0.0,0.0,0.0,0.0,0.0,0.0,0.0,0.0,0.0,0.0,0.0,0.0,0.0,0.0,0.0,0.0,0.0,0.0,0.0,0.0,0.0,0.0,0.0,0.0,0.0,0.0,0.0,0.0,0.0,0.0,0.0,0.0,0.0,0.0,0.0,0.0,0.0,0.0,0.0,0.0,0.0,0.0,0.0,0.0,0.0,0.0,0.0,0.0,0.0,0.0,0.0,0.0,0.0,0.0,0.0,0.0,0.0,0.0,0.0,0.0,0.0,0.0,0.0,0.0,0.0,0.0,0.0,0.0,0.0,0.0,0.0,0.0,0.0,0.0,0.0,0.0,0.0,0.0,0.0,0.0,0.0,0.0,0.0,0.0,0.0,0.0,0.0,0.0,0.0,0.0,0.0,0.0,0.0,0.0,5.0098,0.0,0.0,0.0,0.0,0.0,0.0,0.0,0.0,0.0,0.0,0.0,0.0,0.0,0.0,0.0,0.0,0.0,0.0,0.0,0.0,0.0,0.0,0.0,0.0,0.0,0.0,0.0,0.0,0.0,0.0,0.0,0.0,0.0,0.0,0.0,0.0,0.0,0.0,4.6422,4.7256,4.8349,4.9642,4.9218,4.8755,4.825,0.0,0.0,0.0,0.0,0.0,0.0,0.0,0.0,0.0,0.0,0.0,0.0,0.0,0.0,0.0,0.0,0.0,0.0,0.0,0.0,0.0,0.0,0.0,0.0,0.0,0.0,0.0,0.0,0.0,0.0,0.0,0.0,0.0,0.0,0.0,0.0,0.0,0.0,0.0,0.0,0.0,0.0,0.0,0.0,0.0,0.0,0.0,0.0,0.0,0.0,0.0,0.0,0.0,0.0,0.0,0.0,0.0,0.0,0.0,0.0,0.0,0.0,0.0,0.0,0.0,0.0,0.0,0.0,0.0,0.0,0.0,5.0739,0.0,0.0,0.0,0.0,0.0,0.0,0.0,0.0,0.0,0.0,0.0,0.0,0.0,0.0,0.0,0.0,0.0,0.0,0.0,0.0,0.0,0.0,0.0,4.5547,4.5929,4.5817,4.5803,4.5803,0.0,0.0,0.0,0.0,0.0,0.0,4.6016,4.6042,4.6549,4.7555,4.9305,5.097,5.253,5.1706,5.1379,5.1379,4.895,0.0,0.0,0.0,0.0,0.0,0.0,0.0,0.0,0.0,0.0,0.0,0.0,0.0,0.0,0.0,0.0,0.0,0.0,0.0,0.0,0.0,0.0,0.0,0.0,0.0,0.0,0.0,0.0,0.0,0.0,0.0,0.0,0.0,0.0,0.0,0.0,0.0,0.0,0.0,0.0,0.0,0.0,0.0,0.0,0.0,0.0,0.0,0.0,0.0,0.0,0.0,0.0,0.0,0.0,0.0,0.0,0.0,0.0,0.0,0.0,0.0,0.0,0.0,5.4482,5.4129,5.4148,5.4142,5.4492,5.5001,5.2955,5.2369,5.2738,5.1343,0.0,0.0,0.0,0.0,0.0,0.0,0.0,0.0,0.0,0.0,0.0,0.0,0.0,0.0,0.0,0.0,0.0,0.0,0.0,0.0,0.0,4.5831,4.5827,4.5807,4.5803,4.5803,4.5803,0.0,0.0,0.0,0.0,0.0,4.6906,4.6996,4.7787,4.9356,5.1153,5.2547,5.3508,5.2638,5.2634,5.3265,5.1408,5.1039,5.1749,0.0,0.0,0.0,0.0,0.0,0.0,0.0,0.0,0.0,0.0,0.0,0.0,0.0,0.0,0.0,0.0,0.0,0.0,0.0,0.0,0.0,0.0,0.0,0.0,0.0,0.0,0.0,0.0,0.0,0.0,0.0,0.0,0.0,0.0,0.0,0.0,0.0,0.0,0.0,0.0,0.0,5.3284,5.3497,0.0,0.0,0.0,0.0,0.0,0.0,0.0,0.0,0.0,0.0,0.0,0.0,0.0,5.6295,5.6295,5.6194,5.6136,5.6136,5.5951,5.5876,5.5876,5.5864,5.5919,5.6013,5.5687,0.0,5.4539,5.4326,0.0,0.0,0.0,0.0,0.0,0.0,0.0,0.0,0.0,0.0,0.0,0.0,0.0,0.0,0.0,0.0,0.0,0.0,0.0,0.0,0.0,4.6906,4.7417,4.7376,4.8238,4.8369,4.7378,4.7322,0.0,0.0,0.0,4.6945,4.7811,4.8335,4.9697,5.1955,5.2741,5.3832,5.5149,5.4773,5.4793,5.5129,5.4356,5.3375,5.2306,5.2445,0.0,0.0,0.0,0.0,0.0,0.0,0.0,0.0,0.0,0.0,0.0,0.0,0.0,0.0,0.0,0.0,0.0,0.0,0.0,0.0,0.0,0.0,0.0,0.0,0.0,0.0,0.0,0.0,0.0,0.0,0.0,0.0,0.0,0.0,0.0,0.0,0.0,0.0,0.0,5.365,5.4427,5.4427,5.4857,5.5498,0.0,0.0,0.0,0.0,0.0,0.0,0.0,0.0,0.0,5.6295,5.678,5.7033,5.7033,5.7476,5.7718,5.7698,5.7636,5.7614,5.7614,5.7614,5.7579,5.754,5.754,5.733,5.6864,5.5475,5.4477,5.3751,0.0,0.0,0.0,0.0,5.3271,5.3406,0.0,0.0,0.0,0.0,0.0,0.0,0.0,0.0,0.0,0.0,0.0,0.0,4.6812,4.8124,4.9045,4.9228,5.0386,5.0451,4.8939,4.8829,4.8437,4.7578,4.7465,4.7831,4.8701,5.0014,5.1782,5.4029,5.4262,5.5032,5.6295,5.6295,5.6295,5.6295,5.6295,5.5197,5.3342,5.3772,5.3571,5.294,0.0,0.0,0.0,0.0,0.0,0.0,0.0,0.0,0.0,0.0,0.0,0.0,0.0,0.0,0.0,0.0,0.0,0.0,0.0,0.0,0.0,0.0,0.0,0.0,0.0,0.0,0.0,0.0,0.0,0.0,0.0,0.0,0.0,0.0,0.0,0.0,0.0,5.4776,5.5417,5.5631,5.6039,5.6644,0.0,0.0,0.0,0.0,0.0,0.0,5.6932,5.6932,5.6949,5.6939,5.7563,5.791,5.7876,5.8489,5.8761,5.8761,5.8715,5.8676,5.8676,5.8664,5.8647,5.8602,5.8602,5.86,5.8458,5.6601,5.5723,5.5533,5.547,5.5303,5.5234,5.6044,5.6336,5.6452,0.0,0.0,0.0,0.0,0.0,0.0,0.0,0.0,0.0,0.0,0.0,4.7669,4.8484,4.9263,5.0083,5.0907,5.1056,5.0704,4.9795,4.9681,4.9285,4.8468,4.8375,4.874,4.9629,5.2115,5.3915,5.4929,5.5767,5.6214,5.6295,5.6295,5.6295,5.6295,5.6295,5.6233,5.6055,5.5256,5.487,5.463,5.3032,0.0,0.0,0.0,0.0,0.0,0.0,0.0,0.0,0.0,0.0,0.0,0.0,0.0,0.0,0.0,0.0,0.0,0.0,0.0,0.0,0.0,0.0,0.0,0.0,0.0,0.0,0.0,0.0,0.0,0.0,0.0,0.0,0.0,0.0,0.0,0.0,0.0,0.0,5.7366,5.678,0.0,0.0,0.0,0.0,5.7522,5.7561,5.7868,5.8622,5.8677,5.8664,5.8667,5.8725,5.8703,5.8657,5.8672,5.8711,5.8692,5.8636,5.86,5.8619,5.8615,5.8593,5.8593,5.8593,5.8593,5.8589,5.8477,5.7962,5.7271,5.7205,5.6715,5.6128,5.6934,5.7226,5.7361,0.0,0.0,0.0,0.0,0.0,0.0,0.0,0.0,4.6302,4.6303,4.7478,4.8418,4.873,5.0922,5.2501,5.281,5.3817,5.3835,5.2398,5.1722,5.1006,5.0208,4.9566,5.0178,5.217,5.3677,5.4909,5.5845,5.6155,5.6295,5.6295,5.6295,5.6295,5.6295,5.6295,5.6295,5.6275,5.5961,5.5508,5.4912,5.4272,5.3352,0.0,0.0,0.0,0.0,0.0,0.0,0.0,0.0,0.0,0.0,0.0,0.0,0.0,0.0,0.0,0.0,0.0,0.0,0.0,0.0,0.0,0.0,0.0,0.0,0.0,0.0,0.0,0.0,0.0,0.0,0.0,0.0,0.0,0.0,0.0,0.0,0.0,5.6722,5.6974,0.0,5.8292,5.8098,5.8263,5.9151,5.8685,5.8476,5.8719,5.8734,5.875,5.8735,5.9281,5.9565,5.9545,6.0039,6.0317,6.0317,6.0235,6.0212,6.0212,6.0218,6.0209,6.0209,6.0209,6.0209,6.0209,6.0209,5.9406,5.822,5.8763,5.8806,5.8645,5.9459,5.974,5.9779,0.0,0.0,0.0,0.0,0.0,0.0,0.0,0.0,4.6496,4.707,4.8355,4.9533,5.0399,5.2717,5.4317,5.4628,5.5655,5.555,5.3812,5.3097,5.2376,5.1545,5.1188,5.1958,5.3994,5.4601,5.5369,5.6295,5.6295,5.6295,5.6295,5.6295,5.6295,5.6295,5.6295,5.6295,5.6295,5.6295,5.5961,5.5414,5.5065,5.4252,5.3188,0.0,0.0,0.0,0.0,0.0,0.0,0.0,0.0,0.0,0.0,0.0,0.0,0.0,0.0,0.0,0.0,0.0,0.0,0.0,0.0,0.0,0.0,0.0,0.0,0.0,0.0,0.0,0.0,0.0,0.0,0.0,0.0,0.0,0.0,5.6971,5.7243,5.7557,5.7829,5.8328,5.9165,5.8971,5.9147,5.9999,5.9533,5.9309,5.9568,5.9583,5.9575,5.954,6.0106,6.0392,6.0375,6.0906,6.1164,6.1164,6.1113,6.1099,6.1099,6.1099,6.1099,6.1099,6.1099,6.1099,6.1099,6.1099,6.0441,5.9498,6.0074,6.0306,6.0364,6.0905,6.1099,6.1099,0.0,0.0,0.0,0.0,0.0,0.0,4.6305,4.6296,4.6904,4.8586,4.9524,5.0993,5.3533,5.455,5.5378,5.6236,5.6291,5.5579,5.3854,5.3668,5.3242,5.238,5.3181,5.4036,5.4883,5.4925,5.5388,5.6295,5.6295,5.6295,5.6295,5.6295,5.6295,5.6295,5.6295,5.6295,5.6295,5.6295,5.6295,5.6236,5.5378,5.499,5.4731,0.0,0.0,0.0,0.0,0.0,0.0,0.0,0.0,0.0,0.0,0.0,0.0,0.0,0.0,0.0,0.0,0.0,0.0,0.0,0.0,0.0,0.0,0.0,0.0,0.0,0.0,0.0,0.0,0.0,0.0,0.0,0.0,0.0,5.7751,5.8311,5.9108,5.9963,5.9341,5.9165,6.0018,5.9358,5.9207,5.9975,6.0029,6.0402,6.1259,6.1297,6.1253,6.1206,6.1201,6.1164,6.1099,6.1099,6.1118,6.1137,6.1137,6.1157,6.1176,6.1176,6.1176,6.1176,6.1176,6.1176,6.1176,6.1176,6.1176,6.1176,6.1118,6.1099,6.1099,6.1099,6.1099,6.1099,0.0,0.0,0.0,0.0,0.0,0.0,4.6303,4.6297,4.6907,4.8589,5.0054,5.1674,5.3591,5.5075,5.6039,5.6275,5.6268,5.5766,5.4634,5.4512,5.4099,5.3274,5.4089,5.4652,5.4886,5.5569,5.6032,5.6295,5.6295,5.6295,5.6295,5.6295,5.6295,5.6295,5.6295,5.6295,5.6295,5.6295,5.6295,5.6275,5.6039,5.5547,5.4919,0.0,0.0,0.0,0.0,0.0,0.0,0.0,0.0,0.0,0.0,0.0,0.0,0.0,0.0,0.0,0.0,0.0,0.0,0.0,0.0,0.0,0.0,0.0,0.0,0.0,0.0,0.0,0.0,0.0,0.0,0.0,5.8764,5.9438,5.8583,5.8661,5.8891,5.9127,5.9469,5.9777,6.0076,6.0402,6.0677,6.0859,6.0874,6.0958,6.114,6.1159,6.115,6.1137,6.1137,6.1127,6.1099,6.1099,6.1427,6.2042,6.2042,6.2375,6.2999,6.2999,6.2999,6.2999,6.2999,6.2999,6.2999,6.2999,6.2999,6.2863,6.1582,6.1099,6.1099,6.1099,6.1099,6.1099,0.0,0.0,0.0,0.0,0.0,0.0,4.6306,4.6302,4.7147,4.9549,5.0701,5.2199,5.4554,5.5669,5.6265,5.6267,5.5897,5.5301,5.4414,5.4293,5.4204,5.4107,5.4947,5.5414,5.5445,5.5973,5.6459,5.6838,5.6822,5.6997,5.734,5.734,5.734,5.734,5.734,5.734,5.7321,5.6994,5.6838,5.6819,5.645,5.6,5.5495,5.5142,5.4699,5.4197,5.3828,5.3391,5.2935,5.2416,0.0,0.0,0.0,0.0,0.0,0.0,0.0,0.0,0.0,0.0,0.0,0.0,0.0,0.0,0.0,0.0,0.0,0.0,0.0,0.0,0.0,0.0,0.0,0.0,5.9724,6.0423,5.9919,5.986,5.986,5.986,6.0251,6.0546,6.0565,6.0971,6.1232,6.1159,6.1155,6.1146,6.1099,6.1447,6.1635,6.1635,6.2008,6.2182,6.2182,6.2182,6.2433,6.2936,6.2936,6.3212,6.3695,6.3695,6.3695,6.3695,6.3695,6.3695,6.3695,6.3695,6.3695,0.0,0.0,0.0,0.0,0.0,6.2182,6.2182,0.0,0.0,0.0,0.0,0.0,0.0,4.6308,4.6288,4.7499,5.0866,5.1286,5.2545,5.5835,5.6199,5.6204,5.6203,5.5404,5.4552,5.3797,5.3681,5.4048,5.4917,5.5695,5.6137,5.6192,5.6295,5.674,5.7586,5.761,5.8037,5.8783,5.8806,5.881,5.881,5.8794,5.8794,5.8755,5.8043,5.7732,5.7674,5.6897,5.6466,5.6214,5.5437,5.5145,5.5048,5.4274,5.3995,5.3985,5.3873,0.0,0.0,0.0,0.0,0.0,0.0,0.0,0.0,0.0,0.0,0.0,0.0,0.0,0.0,0.0,0.0,0.0,0.0,0.0,0.0,0.0,0.0,0.0,0.0,6.0778,6.1295,6.1295,6.1291,6.1287,6.1295,6.1298,6.1277,6.121,6.1182,6.1198,6.1234,6.1253,6.1292,6.1389,0.0,0.0,0.0,0.0,6.3695,6.3695,6.3695,6.3753,6.385,6.385,6.3889,6.3985,6.3985,6.3985,6.3985,6.3985,6.3985,6.3985,6.3985,6.3985,6.3966,6.3773,6.3695,6.3695,6.3695,6.3695,6.3695,0.0,0.0,0.0,0.0,0.0,0.0,4.6308,4.6248,4.7442,5.0841,5.1246,5.248,5.5847,5.6199,5.6204,5.6203,5.5358,5.4758,5.4578,5.4564,5.4947,5.5807,5.6052,5.6195,5.6191,5.6839,5.7269,5.7439,5.8126,5.8552,5.8715,5.8772,5.8791,5.8791,5.8803,5.8794,5.8794,5.8622,5.8564,5.8545,5.8389,5.7515,5.6275,5.6117,5.6058,5.6019,5.5867,5.5797,5.5687,5.4988,5.4685,5.4349,5.2858,5.3158,0.0,0.0,0.0,0.0,0.0,0.0,0.0,0.0,0.0,0.0,0.0,0.0,0.0,0.0,0.0,0.0,0.0,0.0,0.0,6.0022,6.0736,6.1294,6.1294,6.1257,6.1249,6.1286,6.1249,6.1214,6.1206,6.115,6.1417,6.21,6.2158,6.2453,6.3154,6.3366,6.3444,6.3444,6.3618,6.3695,6.3695,6.3695,6.4043,6.4759,0.0,0.0,6.5721,6.5721,6.5721,6.5721,6.5721,6.5721,6.5721,6.5721,6.5721,6.5586,6.4237,6.3695,6.3695,6.3695,6.3695,6.3695,0.0,0.0,0.0,0.0,0.0,0.0,4.6308,4.6243,4.7269,5.0262,5.0566,5.1622,5.4589,5.4904,5.4889,5.4847,5.4417,5.4335,5.4774,5.4795,5.5175,5.6003,5.6086,5.6319,5.6784,5.7167,5.7799,5.8696,5.9098,5.9544,5.9994,6.0038,6.0049,6.0049,6.0049,6.0061,6.0022,5.9613,5.9446,5.9407,5.8981,5.8292,5.7541,5.7595,5.7578,5.7564,5.7595,5.7576,5.7484,5.7052,5.6959,5.6835,5.5907,5.5947,5.6095,0.0,0.0,0.0,0.0,0.0,0.0,0.0,0.0,0.0,0.0,0.0,0.0,0.0,0.0,5.9409,5.9394,0.0,6.065,6.0647,6.0983,6.1245,6.1245,6.1569,6.1652,6.1294,6.1182,6.1324,6.177,6.1766,6.2104,6.2994,6.3052,6.325,6.3676,6.4101,6.4353,6.4353,6.474,6.4952,6.4952,6.4952,6.5165,6.561,6.561,6.5799,6.6205,6.6205,6.6205,6.6205,6.6205,6.6205,6.6205,6.6205,6.6205,6.6127,6.5281,6.4952,6.4952,6.4952,6.4952,6.4952,0.0,0.0,0.0,0.0,0.0,0.0,0.0,4.6241,4.7047,4.9434,4.9782,5.0708,5.308,5.3491,5.3569,5.3506,5.3656,5.4039,5.4755,5.4948,5.5316,5.5969,5.6008,5.6431,5.7355,5.7495,5.8349,5.997,6.0091,6.0517,6.1253,6.1261,6.1285,6.1285,6.1297,6.1301,6.1263,6.0616,6.0336,6.0263,5.9566,5.9288,5.9289,5.9372,5.9148,5.8814,5.8888,5.887,5.8823,5.8828,5.888,5.891,5.8868,5.854,5.7991,5.6873,5.6673,0.0,0.0,0.0,0.0,0.0,0.0,0.0,0.0,5.8245,5.8331,5.9141,5.9846,6.0317,6.0263,6.0828,6.1285,6.1285,6.1359,6.1425,6.1425,6.2147,6.2409,6.1768,6.1644,6.1872,6.2588,6.2646,6.3013,6.3889,6.3947,6.4024,6.4179,6.4856,6.5223,6.5223,6.5857,6.6205,6.6205,6.6205,6.6205,6.6205,6.6205,6.6205,6.6205,6.6205,6.6205,6.6205,6.6205,6.6205,6.6205,6.6205,6.6205,6.6205,6.6205,6.6205,6.6205,6.6205,6.6205,6.6205,0.0,0.0,0.0,0.0,0.0,0.0,0.0,0.0,4.6834,4.8618,4.9395,5.0475,5.2251,5.3143,5.3569,5.3506,5.4213,5.4697,5.4793,5.547,5.5911,5.6008,5.6008,5.6414,5.7288,5.8067,5.8922,5.9918,6.0624,6.1011,6.1117,6.1177,6.1214,6.1214,6.1261,6.1301,6.1282,6.1209,6.117,6.1154,6.1058,6.1015,6.1033,6.1167,6.0201,5.8814,5.8888,5.8899,5.8903,5.8957,5.8979,5.8983,5.8977,5.9451,5.9661,5.7953,5.805,5.8313,5.6543,5.686,5.7879,5.8729,5.8925,5.9316,0.0,6.0518,6.0132,6.0936,6.1146,6.1151,6.1154,6.1186,6.1214,6.1214,6.1794,6.2264,6.2264,6.3018,6.3526,6.3434,6.341,6.3444,6.354,6.354,6.3927,6.4798,6.4856,6.5165,6.5876,6.6011,6.6069,6.6069,6.6147,6.6205,6.6205,6.6205,6.6205,6.6205,6.6205,6.6205,6.6205,6.6205,6.6205,6.6205,6.6205,6.6205,6.6205,6.6205,6.6205,6.6205,6.6205,6.6205,6.6205,6.6205,6.6205,6.6205,0.0,0.0,0.0,0.0,0.0,0.0,0.0,0.0,4.6617,4.7749,4.8112,4.8934,5.0603,5.1533,5.2434,5.3405,5.3826,5.4465,5.5427,5.5814,5.6008,5.6008,5.6008,5.6646,5.8023,5.8415,5.9266,6.0596,6.0944,6.1099,6.1099,6.1137,6.1146,6.1146,6.1168,6.1177,6.1182,6.1227,6.1259,6.1292,6.1346,6.141,6.1485,6.1543,6.1088,6.0378,5.989,5.9713,0.0,5.9749,5.9757,5.9838,6.0315,6.0389,6.005,5.8824,5.8713,5.8933,5.8652,5.8546,5.8726,5.9637,5.9853,6.0034,6.0683,6.0569,6.0546,6.1356,6.1401,6.1306,6.1292,6.1638,6.19,6.19,6.2602,6.3154,6.3154,6.3908,6.445,6.445,6.4875,6.4972,6.4508,6.445,6.4798,6.5649,6.5702,6.5857,6.6185,6.6205,6.6205,6.6205,6.6205,6.6205,6.6205,6.6205,6.6205,6.6205,6.6205,6.6205,6.6205,6.6205,6.6205,6.6205,6.6205,6.6205,6.6205,6.6205,6.6205,6.6205,6.6205,6.6205,6.6205,6.6205,6.6205,6.6205,0.0,0.0,0.0,0.0,0.0,0.0,0.0,0.0,0.0,0.0,4.7361,4.8243,4.9907,5.0561,5.1501,5.3018,5.3366,5.4116,5.5563,5.5872,5.6008,5.6008,5.6008,5.6824,5.855,5.8608,5.942,6.1099,6.1099,6.1099,6.1099,6.1099,6.1099,6.1099,6.1134,6.1161,6.1165,6.1225,6.1283,6.1322,6.139,6.1488,6.1572,6.1588,6.1463,6.1175,6.052,6.0301,6.0278,6.0033,5.9978,6.0115,6.0943,6.0803,6.0156,5.9328,5.8703,5.8502,5.939,5.9392,5.9339,6.019,6.0584,6.075,6.0703,6.0719,6.0901,6.1472,6.166,6.1692,6.1661,6.2277,6.2789,6.2752,6.3482,6.4063,6.4063,6.4798,6.5339,6.5339,6.5857,6.5973,6.5397,6.5339,6.5571,6.6166,6.6205,6.6205,6.6205,6.6205,6.6205,6.6205,6.6205,6.6205,6.6205,6.6205,6.6205,6.6205,6.6205,6.6205,6.6205,6.6205,6.6205,6.6205,6.6205,6.6205,6.6205,6.6205,6.6205,6.6205,6.6205,6.6205,6.6205,6.6205,6.6205,6.6205,0.0,0.0,0.0,0.0,0.0,0.0,0.0,0.0,0.0,0.0,0.0,0.0,0.0,5.0956,5.125,5.2167,5.3018,5.3884,5.4774,5.5563,5.6008,5.6008,5.6008,5.6824,5.855,5.8608,5.942,6.1099,6.1099,6.1099,6.1099,6.1099,6.1099,6.1103,6.1248,6.128,6.129,6.1379,6.1405,6.1391,6.1472,6.1502,6.1516,6.1575,6.1122,6.042,6.0328,6.0291,6.0174,5.9391,5.9132,5.9288,6.0168,6.0421,6.0211,5.927,5.7846,5.6772,5.7715,5.8572,5.9391,6.0207,6.1045,6.165,6.1651,6.1601,6.157,6.1581,6.2221,6.2715,6.2581,6.3229,6.374,6.3671,6.4392,6.4952,6.4952,6.5644,6.6166,6.6166,6.6185,6.6185,6.6166,6.6166,6.6166,6.6205,6.6205,6.6205,6.6205,6.6205,6.6205,6.6205,6.6205,6.6205,6.6205,6.6205,6.6205,6.6205,6.6205,6.6205,6.6205,6.6205,6.6205,6.6205,6.6205,6.6205,6.6205,6.6205,6.6205,6.6205,6.6205,6.6205,6.6205,6.6205,6.6205,6.6205,0.0,0.0,0.0,0.0,0.0,0.0,0.0,0.0,0.0,0.0,0.0,0.0,0.0,0.0,0.0,0.0,5.2481,5.325,5.4716,5.5045,5.5447,5.5988,5.6008,5.6549,5.7709,5.8299,5.9172,6.0368,6.0953,6.1258,6.1295,6.1295,6.1295,6.1295,6.1359,6.1379,6.1362,6.1398,6.145,6.1537,6.1561,6.1585,6.1571,6.1014,6.0644,6.0254,0.0,5.8711,5.8671,5.8395,5.8687,5.9312,6.0148,6.0403,6.0232,5.9374,5.8728,5.8474,5.9335,5.9763,6.0192,6.1047,6.1478,6.1695,6.1695,6.2129,6.2538,6.2537,6.3161,6.3725,6.3673,6.4212,6.4652,6.4632,6.529,6.5799,6.5799,6.6031,6.6205,6.6205,6.6205,6.6205,6.6205,6.6205,0.0,6.6205,6.6205,6.6205,6.6205,6.6205,6.6205,6.6205,6.6205,6.6205,6.6205,6.6205,6.6205,6.6205,6.6205,6.6205,6.6205,6.6205,6.6205,6.6205,6.6205,6.6205,6.6205,6.6205,6.6205,6.6205,6.6205,6.6205,6.6205,6.6205,6.6205,6.6205,0.0,0.0,0.0,0.0,0.0,0.0,0.0,0.0,0.0,0.0,0.0,0.0,0.0,0.0,0.0,0.0,0.0,5.2789,5.3892,5.4514,5.5068,5.559,5.5859,5.6414,5.7284,5.7849,5.8587,5.9495,6.0404,6.0867,6.0909,6.124,6.1393,6.1393,6.1448,6.1461,6.1463,6.149,6.1386,6.1177,6.1177,6.101,6.0742,6.0175,5.9784,0.0,5.828,5.7694,5.7479,5.7792,5.8261,5.8925,6.0055,6.0408,6.0292,5.9785,5.9433,5.9375,6.0175,6.0409,6.0604,6.1481,6.1697,6.1776,6.2089,6.2597,6.3086,6.3398,6.4117,6.4689,6.4634,6.517,6.5638,6.5638,6.6248,6.6631,6.6316,6.6534,6.6603,6.6234,6.6205,6.6205,6.6205,6.6205,6.6205,6.6205,6.6205,6.6205,6.6205,6.6205,6.6205,6.6205,6.6205,6.6205,6.6205,6.6205,6.6205,6.6205,6.6205,6.6205,6.6205,6.6205,6.6205,6.6205,6.6205,6.6205,6.6205,6.6205,6.6205,6.6205,6.6205,6.6205,6.6205,6.6205,6.6205,6.6205,0.0,0.0,0.0,0.0,0.0,0.0,0.0,0.0,0.0,0.0,0.0,0.0,0.0,0.0,0.0,0.0,0.0,0.0,5.2509,5.3938,5.4795,5.4834,5.5548,5.6319,5.7093,5.7248,5.7701,5.8493,5.947,5.9951,5.998,6.0874,6.129,6.1294,6.1429,6.1472,6.1474,6.154,6.1094,6.0332,6.0332,5.9883,5.9199,5.914,5.8613,5.789,5.7851,5.7324,5.6797,5.7617,5.7969,5.8301,5.9941,6.0469,6.0469,6.0469,5.9922,5.9492,6.0254,6.0469,6.0664,6.1484,6.1738,6.1973,6.2812,6.3066,6.3379,6.4199,6.5058,6.5623,6.5499,6.6095,6.6592,6.6592,6.7188,6.734,6.6516,6.7103,6.726,6.6307,6.6205,6.6205,6.6205,6.6205,6.6205,6.6205,0.0,6.6205,6.6205,6.6205,6.6205,6.6205,6.6205,6.6205,6.6205,6.6205,6.6205,6.6205,6.6205,6.6205,6.6205,6.6205,6.6205,6.6205,6.6205,6.6205,6.6205,6.6205,6.6205,6.6205,6.6205,6.6205,6.6205,6.6205,6.6205,6.6205,0.0,0.0,0.0,0.0,0.0,0.0,0.0,0.0,0.0,0.0,0.0,0.0,0.0,0.0,0.0,0.0,0.0,0.0,5.2461,5.2885,5.3383,5.3988,5.4804,5.505,5.4621,5.6535,5.7353,5.7036,5.854,5.9317,5.9412,5.9654,5.9755,5.9756,5.98,5.9802,5.9802,5.9824,5.9707,5.9512,5.9512,5.9375,5.9121,5.8476,5.8086,5.7812,5.7168,5.7207,5.7598,5.7832,5.873,5.9941,6.1034,6.1367,6.1367,6.1367,6.1211,6.1113,6.1308,6.1367,6.1426,6.164,6.2187,6.2734,6.2949,6.4004,6.5,6.5215,6.5957,6.6562,6.6521,6.6561,6.6592,6.6592,6.659,6.6501,6.6283,6.6443,6.6482,6.6229,6.6205,6.6205,6.6205,6.6205,6.6205,0.0,6.6205,6.6205,6.6205,6.6205,6.6205,6.6205,6.6205,6.6205,6.6205,6.6205,6.6205,6.6205,6.6205,6.6205,6.6205,6.6205,6.6205,6.6205,6.6205,6.6205,6.6205,6.6205,6.6205,6.6205,6.6205,6.6205,6.6205,6.6205,6.6205,6.6205,0.0,0.0,0.0,0.0,0.0,0.0,0.0,0.0,0.0,0.0,0.0,0.0,0.0,0.0,0.0,0.0,0.0,0.0,0.0,5.2354,5.274,5.3208,5.4006,5.42,5.3706,5.5142,5.5686,5.5267,5.7016,5.7903,5.8021,5.8827,5.9199,5.9199,5.9199,5.9199,5.9199,5.9199,5.8984,0.0,0.0,5.8398,5.8008,5.7519,5.7324,5.7265,5.6777,5.7402,5.8515,5.8885,5.9881,6.1053,6.1558,6.1697,6.1699,6.1699,6.1699,6.1699,6.1699,6.1699,6.1797,6.2168,6.2637,6.3203,6.3965,6.4902,6.5703,6.6094,6.6562,6.7012,6.7402,6.6982,6.6724,6.714,6.7012,6.6712,6.6339,6.6615,6.668,6.6253,6.6205,6.6205,6.6205,6.6205,6.6205,6.6205,6.6205,6.6205,6.6205,6.6205,6.6205,6.6205,6.6205,6.6205,6.6205,6.6205,6.6205,6.6205,6.6205,6.6205,6.6205,6.6205,6.6205,6.6205,0.0,6.6205,6.6205,6.6205,6.6205,6.6205,6.6205,6.6205,6.6205,6.6205,6.6205,6.6205,0.0,0.0,0.0,0.0,0.0,0.0,0.0,0.0,0.0,0.0,0.0,0.0,0.0,0.0,0.0,0.0,0.0,0.0,0.0,0.0,5.2434,5.2434,5.3159,5.3509,5.3394,5.3613,5.3732,5.3732,5.5424,5.6333,5.6556,5.8122,5.8848,5.8848,5.8848,5.8848,5.8848,5.8848,5.8418,5.7734,5.7734,5.7265,5.6601,0.0,5.6601,5.6621,5.6855,5.7929,5.9333,6.0266,6.1064,6.1709,6.1708,6.1692,6.1696,6.1697,6.1698,6.1699,6.1699,6.1699,6.1914,6.2773,6.3086,6.3594,6.5234,6.5683,6.5996,6.6738,6.6894,6.7129,6.789,6.7243,6.6874,6.7676,6.764,6.7266,6.6477,6.7025,6.7185,6.6307,6.6205,6.6205,6.6205,6.6205,6.6205,6.6205,6.6205,6.6205,6.6205,6.6205,6.6205,6.6205,6.6205,6.6205,6.6205,6.6205,6.6205,6.6205,6.6205,6.6205,6.6205,6.6321,6.6379,6.6379,6.6495,0.0,6.6553,6.6553,6.6553,6.6553,6.6553,6.6553,6.6553,6.6553,6.6553,6.6553,0.0,0.0,0.0,0.0,0.0,0.0,0.0,0.0,0.0,0.0,4.9668,5.0508,0.0,0.0,0.0,0.0,0.0,0.0,0.0,0.0,0.0,5.1608,5.2423,5.254,5.1805,5.3209,5.3954,5.3959,5.4978,5.5877,5.6581,5.6894,5.7051,5.7051,5.7051,5.7051,5.7051,5.7051,5.6953,5.6836,5.6836,5.6738,5.6601,5.6601,0.0,0.0,5.8223,5.8945,5.9431,6.0969,6.1572,6.1708,6.1702,6.1705,6.1692,6.1696,6.1697,6.1698,6.1699,6.1699,6.1914,6.2773,6.3535,6.4336,6.5371,6.6152,6.6719,6.6875,6.6894,6.6953,6.7109,6.6878,6.6727,6.6826,6.6721,6.6539,6.6264,6.6361,6.6404,6.6229,6.6205,6.6205,6.6205,6.6205,6.6205,6.6205,6.6205,6.6205,6.6205,6.6205,6.6205,6.6205,6.6205,6.6205,6.6205,6.6205,6.6205,6.6205,6.6205,6.6205,6.6224,6.6959,6.7268,6.7307,6.8037,0.0,6.8346,6.8346,6.8346,6.8346,6.8346,6.8346,6.8346,6.8346,6.8346,6.8346,0.0,0.0,0.0,0.0,0.0,0.0,0.0,4.6308,4.6758,4.8047,4.8984,5.0,5.1269,5.1406,5.1406,0.0,0.0,0.0,0.0,0.0,0.0,5.1404,5.1794,5.2048,5.2088,5.2907,5.3552,5.4003,0.0,5.5507,5.5937,5.6387,5.6601,5.6601,5.6601,5.6601,5.6601,5.6601,5.6601,5.6601,5.6601,5.6601,5.6601,0.0,0.0,0.0,5.8066,5.8515,5.8786,6.0464,6.1026,6.1096,6.1556,6.1697,6.1705,6.1692,6.1695,6.1698,6.1699,6.2031,6.2598,6.3457,6.4336,6.5195,6.6074,6.6601,6.6894,6.6894,6.6894,6.7031,6.748,6.7098,6.6982,6.7867,6.7102,6.654,6.6926,6.653,6.6205,6.6205,6.6205,6.6205,6.6205,6.6205,6.6205,6.6205,6.6205,6.6205,6.6205,6.6205,6.6205,6.6205,6.6205,6.6205,6.6205,6.6205,6.6205,6.6205,6.6669,6.6882,6.6901,6.7791,6.8172,6.8192,6.8617,0.0,6.8791,6.8791,6.8791,6.8791,6.8791,6.8791,6.8791,6.8791,6.8791,6.8791,0.0,0.0,0.0,0.0,0.0,0.0,0.0,4.6308,4.6601,4.748,4.8203,4.9277,5.0957,5.1308,5.1406,0.0,0.0,0.0,0.0,0.0,0.0,0.0,0.0,0.0,5.2675,0.0,0.0,5.4276,5.496,0.0,0.0,0.0,0.0,0.0,5.6601,5.6601,5.6601,5.6601,5.6601,0.0,0.0,5.6601,0.0,0.0,0.0,0.0,0.0,5.8027,5.8416,5.99,6.0521,6.0803,6.1476,6.1691,6.1697,6.1707,6.1693,6.1697,6.1699,6.2344,6.3203,6.4082,6.4961,6.582,6.6699,6.6894,6.6894,6.6894,6.6894,6.7109,6.7793,6.7278,6.7238,6.8772,6.7572,6.674,6.7577,6.6859,6.6235,6.619,6.6205,6.6205,6.6205,6.6205,6.6205,6.6205,6.6205,6.6205,6.6205,6.6205,6.6205,6.6205,6.6205,6.6205,6.6205,6.6398,6.6475,6.6495,6.7365,6.7791,6.781,6.868,6.9067,6.9067,6.9255,0.0,0.0,6.9338,6.9338,6.9338,6.9338,6.9338,6.9338,6.9338,6.9338,6.9338,0.0,0.0,0.0,0.0,0.0,0.0,0.0,4.6308,4.6601,4.748,4.7676,4.8379,5.0117,5.0957,5.1406,0.0,0.0,0.0,0.0,0.0,0.0,0.0,0.0,0.0,0.0,0.0,0.0,5.5176,5.5254,0.0,0.0,0.0,0.0,0.0,0.0,5.6601,5.6601,5.6601,0.0,0.0,0.0,0.0,0.0,0.0,0.0,0.0,0.0,5.8418,5.9219,6.0096,6.0935,6.1598,6.167,6.1697,6.1705,6.1705,6.1709,6.1692,6.1696,6.2343,6.3203,6.4082,6.4961,6.582,6.6699,6.6894,6.6894,6.6894,6.6894,6.6914,6.6992,6.6933,6.7145,6.7976,6.7315,6.6908,6.761,6.6948,6.6346,6.621,6.6205,6.6205,6.6205,6.6205,6.6205,6.6205,6.6205,6.6205,6.6205,6.6205,6.6205,6.6205,6.6205,6.6205,6.6205,6.6998,6.7384,6.7384,6.825,6.8675,6.8714,6.9512,6.9885,6.9924,7.0736,0.0,0.0,7.1059,7.1059,7.1059,7.1059,7.1059,7.1059,7.1059,7.1059,7.1059,0.0,0.0,0.0,0.0,0.0,0.0,4.6308,4.6308,4.6426,4.6777,4.7266,4.7851,4.8555,4.9863,5.0879,5.1367,0.0,0.0,0.0,0.0,0.0,0.0,0.0,0.0,0.0,0.0,5.3301,5.4512,5.4512,0.0,0.0,0.0,0.0,0.0,0.0,5.582,5.5781,5.5254,0.0,0.0,0.0,0.0,0.0,0.0,0.0,0.0,0.0,0.0,5.7832,5.9218,5.9901,6.0369,6.1385,6.1692,6.1701,6.1707,6.1709,6.1691,6.1696,6.2713,6.3867,6.4219,6.4961,6.582,6.6699,6.6484,6.6269,6.6797,6.6894,6.6894,6.6894,6.6894,6.7168,6.7983,6.7322,6.7151,6.8477,6.7431,6.6665,6.7058,6.664,6.6281,6.622,6.6205,6.6205,6.6205,6.6205,6.6205,6.6205,6.6205,6.6205,6.6205,6.6708,6.6978,6.6978,6.7849,6.8269,6.8288,6.9125,6.9512,6.9551,7.0407,7.0775,7.0794,7.1161,0.0,0.0,7.1297,7.1297,7.1297,7.1297,7.1297,7.1297,7.1297,7.1297,7.1297,0.0,0.0,0.0,0.0,0.0,4.6308,4.6308,4.6308,4.6308,4.6308,4.7051,4.7695,4.7969,4.9316,5.0527,5.1328,5.1406,0.0,0.0,0.0,0.0,0.0,0.0,0.0,0.0,0.0,5.3125,5.4004,5.4004,5.4004,0.0,0.0,5.4922,5.4922,0.0,0.0,0.0,0.0,0.0,0.0,0.0,0.0,0.0,0.0,0.0,0.0,0.0,0.0,0.0,0.0,0.0,5.9804,6.125,6.1698,6.1694,6.1692,6.1691,6.1691,6.1696,6.2966,6.4295,6.4297,6.4961,6.582,6.6699,6.623,6.5859,6.6719,6.6894,6.6894,6.6894,6.6894,6.7187,6.8066,6.7396,6.736,6.9066,6.7988,6.7187,6.7671,6.7184,6.6671,6.6297,6.622,6.6205,6.6205,6.6205,6.6205,6.6205,6.6437,6.6572,6.6572,6.7172,6.7617,6.7882,6.8738,6.9145,6.9164,6.9996,7.0388,7.0407,7.1026,7.1297,7.1297,7.1297,0.0,0.0,7.1297,7.1297,7.1297,7.1297,7.1297,7.1297,7.1297,7.1297,7.1297,0.0,0.0,0.0,0.0,0.0,0.0,4.6308,4.6308,4.6308,4.6308,4.7051,4.793,4.8789,4.9668,5.0527,5.1328,5.1406,0.0,0.0,0.0,0.0,0.0,0.0,0.0,0.0,0.0,5.3125,5.4004,5.4004,5.4004,5.4004,5.4004,5.4004,5.4004,0.0,0.0,0.0,0.0,0.0,0.0,0.0,0.0,5.6601,0.0,0.0,0.0,0.0,0.0,0.0,0.0,0.0,0.0,0.0,6.1699,6.1699,6.1698,6.1694,6.1691,6.1696,6.2966,6.4295,6.4297,6.4961,6.582,6.6699,6.623,6.5859,6.6719,6.6894,6.6894,6.6894,6.6894,6.7187,6.8066,6.7461,6.7459,6.907,6.8535,6.7945,6.7818,6.7784,6.7425,6.6481,6.6287,6.6205,6.6205,6.6205,0.0,6.6205,6.7017,6.7501,6.7501,6.7501,6.7901,6.8772,6.9589,6.9982,7.0001,7.0871,7.1297,7.1297,7.1297,7.1297,0.0,0.0,0.0,0.0,7.1297,7.1297,7.1297,7.1297,7.1297,7.1297,7.1297,7.1297,7.1297,0.0,0.0,0.0,0.0,0.0,0.0,0.0,4.7695,4.7851,4.7266,4.7949,4.8594,4.8867,4.9687,5.0293,5.0566,5.1074,0.0,0.0,0.0,0.0,0.0,0.0,0.0,0.0,5.1816,5.1953,5.2226,5.2226,5.2226,5.2246,5.2832,5.3105,5.3105,5.3105,5.3105,0.0,0.0,0.0,0.0,0.0,5.4922,5.5781,0.0,0.0,0.0,0.0,0.0,0.0,0.0,0.0,0.0,0.0,0.0,0.0,6.1699,6.1698,6.1695,6.1697,6.2537,6.3416,6.3418,6.3613,6.4219,6.5683,6.5332,6.5137,6.6601,6.6894,6.6894,6.6894,6.6894,6.6992,6.7265,6.707,6.748,6.9196,6.8086,6.7496,6.8564,6.7512,6.6588,6.6292,6.6225,6.6205,6.6205,6.6205,6.6456,6.7056,6.7346,6.7501,6.7501,6.8603,6.9343,6.9609,7.0465,7.0891,7.0891,7.1181,7.1297,7.1297,7.1297,7.1297,0.0,0.0,0.0,0.0,7.1297,7.1297,7.1297,7.1297,7.1297,7.1297,7.1297,7.1297,7.1297,0.0,0.0,0.0,0.0,0.0,0.0,0.0,4.8555,4.8711,4.8164,4.8848,4.9394,4.9394,5.0156,5.0644,5.0644,5.1113,0.0,0.0,0.0,0.0,0.0,0.0,0.0,5.1406,5.1406,5.1406,5.1406,5.1406,5.1406,5.1406,5.1953,5.2207,5.2207,5.2207,5.2207,0.0,0.0,0.0,0.0,5.3789,5.4726,5.5859,0.0,0.0,0.0,0.0,0.0,0.0,0.0,0.0,0.0,0.0,0.0,0.0,0.0,6.1699,6.1698,6.1698,6.2342,6.3006,6.3008,6.3008,6.3457,6.5195,6.4922,6.4785,6.6543,6.6894,6.6894,6.6894,6.6894,6.6894,6.6894,6.6894,6.7382,6.8745,6.7928,6.7535,6.8503,6.7223,6.6282,6.6282,6.623,6.6205,6.6205,6.6495,6.694,6.7481,6.81,6.8448,6.8448,6.9459,7.0156,7.0484,7.1026,7.1297,7.1297,7.1297,7.1297,7.1297,7.1297,7.1297,0.0,0.0,0.0,0.0,7.1269,7.1275,7.1291,7.1269,7.1275,7.1297,7.1297,7.128,7.1264,0.0,0.0,0.0,0.0,0.0,0.0,0.0,4.9043,4.9062,4.9004,4.9746,5.0293,5.0293,5.0957,5.1406,5.1406,0.0,0.0,0.0,0.0,0.0,0.0,0.0,0.0,5.1406,5.1406,5.1406,5.1406,5.1406,5.1406,5.1406,5.1406,5.1406,5.1406,5.1406,5.1426,5.1484,0.0,0.0,0.0,5.4062,5.5058,0.0,0.0,0.0,0.0,0.0,0.0,0.0,0.0,0.0,0.0,0.0,0.0,0.0,0.0,0.0,0.0,0.0,6.2285,6.2909,6.291,6.291,6.3359,6.5117,6.4883,0.0,6.6543,6.6894,6.6894,6.6894,6.6894,6.6894,6.6894,6.6894,6.7166,6.7898,6.7982,6.7913,6.7728,6.6918,6.6396,6.6408,6.6287,6.6224,6.6282,6.7036,6.7559,6.7675,6.915,7.004,7.0098,7.0098,7.0484,7.1297,7.1297,7.1297,7.1297,7.1297,7.1297,7.1297,7.1311,7.1311,0.0,0.0,0.0,0.0,7.123,7.1236,7.1275,7.1224,7.1236,7.128,7.128,7.1247,7.1182,0.0,0.0,0.0,0.0,0.0,0.0,0.0,0.0,0.0,0.0,5.0605,5.1113,5.1113,5.1289,5.1406,0.0,0.0,0.0,0.0,0.0,0.0,0.0,0.0,0.0,5.1406,5.1406,5.1406,5.1406,5.1406,5.1406,5.1406,5.1406,5.1406,5.1406,5.1406,5.1777,5.2383,5.2383,0.0,0.0,5.4726,5.5234,0.0,0.0,0.0,0.0,5.6601,5.6601,0.0,0.0,0.0,0.0,0.0,0.0,0.0,0.0,6.1699,6.1699,6.1699,0.0,6.2011,6.2012,6.2012,6.2461,0.0,6.4453,6.4785,6.6543,6.6894,6.6894,6.6894,6.6894,6.6894,6.6894,6.6894,6.7166,6.7898,6.7867,6.7506,6.68,6.6435,6.63,6.6396,6.6287,6.6475,6.7133,6.7384,6.8061,6.9343,6.9788,7.031,7.0968,7.0987,7.1084,7.1297,7.1297,7.1297,7.1297,7.1297,7.1297,7.1291,7.1247,7.1253,0.0,0.0,0.0,7.1224,7.1213,7.1184,7.1148,7.113,7.1136,7.1148,7.1148,7.1136,7.1124,0.0,0.0,0.0,0.0,0.0,0.0,0.0,0.0,0.0,0.0,0.0,0.0,0.0,0.0,0.0,0.0,0.0,0.0,0.0,0.0,0.0,0.0,0.0,5.1406,5.1406,5.1406,5.1406,5.1406,5.1406,5.1406,5.1406,5.1406,5.1406,5.1426,5.1816,5.248,5.3301,5.3301,5.3808,5.4648,5.5117,0.0,0.0,0.0,0.0,0.0,5.6601,5.6601,0.0,5.7148,5.8144,5.9277,0.0,0.0,0.0,0.0,6.1699,6.1699,6.1699,6.1699,6.1699,6.1699,6.1699,6.2168,6.3906,6.4297,6.4785,6.6543,6.6894,6.6894,6.6894,6.6853,6.6831,6.6894,6.6853,6.6959,6.7348,6.7277,6.6999,6.6458,6.6346,6.6294,6.6308,6.6211,6.6522,6.7437,6.7847,6.862,6.9924,7.0388,7.0813,7.1297,7.1297,7.1297,7.1297,7.1269,7.1269,7.1297,7.1269,7.1253,7.1253,7.1224,7.1207,0.0,0.0,0.0,7.1154,7.113,7.1112,7.11,7.1068,7.1075,7.11,7.11,7.1081,7.1056,0.0,0.0,0.0,0.0,0.0,0.0,0.0,0.0,0.0,0.0,0.0,0.0,0.0,0.0,0.0,0.0,0.0,0.0,0.0,0.0,0.0,0.0,5.1406,5.1406,5.1406,5.1406,5.1406,5.1406,5.1406,5.1406,5.1406,5.1543,5.168,5.1836,5.2578,5.3379,5.4199,5.4199,5.4707,5.5508,5.5508,0.0,0.0,0.0,0.0,0.0,0.0,0.0,0.0,5.6758,5.7871,5.9219,5.9336,0.0,0.0,0.0,0.0,0.0,6.1699,6.1797,6.1875,6.1738,6.1797,6.2324,6.3926,6.4394,6.4961,6.6562,6.6894,6.6894,6.6874,6.6785,6.6758,6.6853,6.6777,6.6681,6.6652,6.6593,6.6504,6.6403,6.6361,6.6314,6.6216,6.6255,6.6667,6.7604,6.8428,6.9259,7.0139,7.0885,7.1311,7.128,7.128,7.1275,7.1264,7.1224,7.123,7.1264,7.1219,7.117,7.117,7.1164,7.1129,7.11,0.0,0.0,7.1081,7.1024,7.103,7.1062,7.1011,7.1024,7.1068,7.1068,7.1037,7.0985,0.0,0.0,0.0,0.0,0.0,0.0,0.0,0.0,0.0,0.0,0.0,0.0,0.0,0.0,0.0,0.0,0.0,0.0,0.0,0.0,0.0,5.1406,5.1406,5.1406,5.1406,5.1406,5.1406,5.1406,5.1406,5.1406,5.1426,5.2168,5.2891,5.3613,5.373,5.4277,5.5098,5.5098,5.5605,5.6406,5.6406,0.0,0.0,0.0,0.0,0.0,0.0,0.0,0.0,5.7441,5.8379,5.9316,6.0,0.0,0.0,0.0,0.0,0.0,6.1699,6.2246,6.2617,6.1875,6.2246,6.3066,6.4062,6.4863,6.5683,6.6699,6.6894,6.6874,6.6755,6.6808,6.6832,6.6753,6.6677,6.6585,6.6458,6.634,6.629,6.6396,6.6239,6.6182,6.6282,6.6789,6.7471,6.8351,6.9222,7.01,7.0967,7.1192,7.1269,7.1224,7.1219,7.119,7.113,7.1184,7.1184,7.113,7.1124,7.1118,7.1118,7.1062,7.1062,7.11,0.0,7.1018,7.1018,7.1005,7.0972,7.0932,7.0919,7.0919,7.0932,7.0932,7.0925,7.0912,0.0,0.0,0.0,0.0,0.0,0.0,0.0,0.0,0.0,0.0,0.0,0.0,0.0,0.0,0.0,0.0,0.0,0.0,0.0,0.0,5.1406,5.1406,5.1406,5.1406,5.1406,5.1406,5.1621,5.2109,5.2109,5.2344,5.2812,5.3203,5.3867,5.4707,5.4707,5.5195,5.5996,5.5996,5.623,5.6601,0.0,0.0,0.0,0.0,0.0,0.0,0.0,0.0,0.0,0.0,5.8476,5.9336,6.0156,0.0,0.0,0.0,0.0,0.0,6.1699,6.1992,6.2305,6.2383,6.3066,6.3926,6.4805,6.5312,6.5859,6.6719,6.6894,6.6854,6.6728,6.6713,6.6688,6.6561,6.6568,6.6574,6.6516,6.6454,6.6396,6.6361,6.6264,6.6371,6.6805,6.71,6.7823,6.9209,6.9663,7.0266,7.109,7.1213,7.1219,7.1154,7.1148,7.1118,7.105,7.1081,7.11,7.11,7.1062,7.105,7.1043,7.1018,7.0998,7.0992,0.0,7.0946,7.0946,7.0946,7.0925,7.0898,7.0898,7.0898,7.0898,7.0898,7.0898,7.0898,0.0,0.0,0.0,0.0,0.0,0.0,0.0,0.0,0.0,0.0,0.0,0.0,0.0,0.0,0.0,0.0,0.0,0.0,0.0,5.1406,5.1406,5.1406,5.1406,5.1406,5.1406,5.1406,5.1836,5.2695,5.2695,5.3242,5.4297,5.4297,5.4765,5.5605,5.5605,5.5976,5.6601,5.6601,5.6601,5.6601,0.0,0.0,0.0,0.0,0.0,0.0,0.0,0.0,0.0,0.0,0.0,0.0,0.0,0.0,0.0,6.1699,6.1699,6.1699,6.1699,6.1855,6.2168,6.2832,6.3652,6.4531,6.539,6.5762,6.6094,6.6758,6.6894,6.6854,6.6728,6.6641,6.6563,6.6464,6.6507,6.654,6.6481,6.6475,6.642,6.6245,6.6233,6.6516,6.7203,6.7389,6.8147,6.972,7.0033,7.0431,7.1042,7.1142,7.1154,7.1081,7.1075,7.1043,7.0979,7.0979,7.1005,7.1056,7.1005,7.0979,7.0979,7.0979,7.0952,7.0898,7.0898,7.0898,7.0898,7.0898,7.0898,7.0898,7.0898,7.0898,7.0898,7.0898,7.0898,7.0898,0.0,0.0,0.0,0.0,0.0,0.0,0.0,0.0,0.0,0.0,0.0,0.0,0.0,0.0,0.0,0.0,0.0,0.0,0.0,5.1403,5.1405,5.1405,5.1406,5.1406,5.1406,5.1406,5.1836,5.2695,5.2695,5.3555,5.5215,5.5215,5.5664,5.6504,5.6504,5.6543,5.6601,5.6601,5.6601,5.6601,5.6601,0.0,0.0,0.0,0.0,0.0,0.0,0.0,0.0,0.0,0.0,0.0,0.0,0.0,6.1699,6.1699,6.1699,6.1699,6.1699,6.2285,6.293,6.2988,6.3652,6.4531,6.539,6.623,6.6816,6.6894,6.6894,6.6854,6.6728,6.6641,6.6609,6.6582,6.6491,6.636,6.6152,6.6135,6.6104,6.6027,6.6015,6.634,6.7133,6.7879,6.8693,6.9642,7.0452,7.0953,7.1011,7.1075,7.1075,7.1011,7.1011,7.0979,7.0905,7.0905,7.0912,7.0912,7.0912,7.0905,7.0905,7.0905,7.0905,7.0898,7.0898,7.0898,7.0898,7.0898,7.0898,7.0898,7.0898,7.0898,7.0898,7.0898,7.0898,7.0898,0.0,0.0,0.0,0.0,0.0,0.0,0.0,0.0,0.0,0.0,0.0,0.0,0.0,0.0,0.0,0.0,0.0,0.0,0.0,5.14,5.1401,5.1401,5.1404,5.1406,5.1406,5.1406,5.1836,5.2695,5.3789,5.4922,5.6113,5.6113,5.6289,5.6601,5.6601,5.6601,5.6601,5.6601,5.6601,5.6601,5.6601,5.6601,0.0,0.0,0.0,0.0,0.0,0.0,0.0,0.0,6.0156,6.0547,6.1426,6.1699,6.1699,6.1699,6.1699,6.1699,6.1699,6.2344,6.3008,6.3008,6.3652,6.4531,6.539,6.6269,6.6894,6.6894,6.6894,6.6854,6.6728,6.6573,6.6474,6.6474,6.6364,6.624,6.6118,6.6096,6.6083,6.6005,6.6432,6.7057,6.7872,6.8712,6.9552,7.0379,7.0792,7.0985,7.0939,7.1005,7.1011,7.0939,7.0939,7.0925,7.0898,7.0898,7.0898,7.0898,7.0898,7.0898,7.0898,7.0898,7.0898,7.0898,7.0898,7.0898,7.0898,7.0898,7.0898,7.0898,7.0898,7.0898,7.0898,7.0898,7.0898,7.0898,0.0,0.0,0.0,0.0,0.0,0.0,0.0,0.0,0.0,0.0,0.0,0.0,0.0,0.0,0.0,0.0,0.0,0.0,5.1393,5.1395,5.1396,5.1396,5.1401,5.152,5.1794,5.1816,5.2246,5.3105,5.4863,5.5879,5.6191,5.6465,5.6601,5.6601,5.6601,5.6601,5.6601,5.6601,5.6601,5.6601,5.6601,5.6601,0.0,0.0,0.0,0.0,0.0,0.0,0.0,0.0,6.0371,6.0918,6.1504,6.1699,6.1699,6.1699,6.1894,6.2109,6.2109,6.2558,6.3066,6.334,6.3867,6.4531,6.539,6.6055,6.6562,6.6836,6.6894,6.6854,6.6728,6.6569,6.6447,6.6419,6.63,6.6179,6.608,6.6069,6.6049,6.5984,6.6678,6.7481,6.8321,6.918,7.0033,7.0841,7.0946,7.0952,7.0898,7.0946,7.0946,7.0898,7.0898,7.0898,7.0898,7.0898,7.0898,7.0898,7.0898,7.0898,7.0898,7.0898,7.0898,7.0898,7.0898,7.0898,7.0898,7.0898,7.0898,7.0898,7.0898,7.0898,7.0898,7.0898,7.0898,7.0898,0.0,0.0,0.0,0.0,0.0,0.0,0.0,0.0,0.0,0.0,0.0,0.0,0.0,0.0,0.0,0.0,0.0,0.0,5.1394,5.1404,5.1409,5.1409,5.1415,5.1828,5.2688,5.2712,5.3144,5.4004,5.5742,5.6152,5.5332,5.6191,5.6601,5.6601,5.6601,5.6601,5.6601,5.6601,5.6601,5.6601,5.6601,5.6601,5.6601,0.0,0.0,0.0,0.0,0.0,0.0,0.0,6.0332,6.1699,6.1699,6.1699,6.1699,6.1699,6.2305,6.2988,6.2988,6.3008,6.3223,6.4062,6.4297,6.4531,6.539,6.5605,6.5859,6.6719,6.6894,6.6854,6.6728,6.6639,6.6552,6.6414,6.63,6.6144,6.6024,6.6007,6.598,6.5916,6.6615,6.7455,6.8314,6.9206,7.0033,7.0841,7.0898,7.0898,7.0898,7.0898,7.0898,7.0898,7.0898,7.0898,7.0898,7.0898,7.0898,7.0898,7.0898,7.0898,7.0898,7.0898,7.0898,7.0898,7.0898,7.0898,7.0898,7.0898,7.0898,7.0898,7.0898,7.0898,7.0898,7.0898,7.0898,7.0898,0.0,0.0,0.0,0.0,0.0,0.0,0.0,0.0,0.0,0.0,0.0,0.0,0.0,0.0,0.0,0.0,0.0,0.0,5.1394,5.1397,5.1672,5.2298,5.2305,5.2719,5.3598,5.4229,5.4665,5.4902,5.543,5.5879,5.6211,5.6484,5.6601,5.6601,5.6601,5.6601,5.6601,5.6601,5.6601,5.6601,5.6601,5.6601,5.6601,0.0,0.0,0.0,0.0,0.0,0.0,0.0,0.0,0.0,6.1699,6.1699,6.1699,6.1699,6.1875,6.209,6.209,6.2988,6.3828,6.3476,6.4316,6.5273,6.5547,6.6074,6.6582,6.6855,6.6811,6.6754,6.6701,6.6566,6.6443,6.6415,6.63,6.6144,6.6024,6.6007,6.598,6.5916,6.7148,6.8129,6.8372,6.9699,7.0648,7.0879,7.0898,7.0898,7.0898,7.0898,7.0898,7.0898,7.0898,7.0898,7.0898,7.0898,7.0898,7.0898,7.0898,7.0898,7.0898,7.0898,7.0898,7.0898,7.0898,7.0898,7.0898,7.0898,7.0898,7.0898,7.0898,7.0898,7.0898,7.0898,7.0898,7.0898,0.0,0.0,0.0,0.0,0.0,0.0,0.0,0.0,0.0,0.0,5.3678,5.3678,0.0,0.0,0.0,0.0,0.0,0.0,5.1394,5.1394,5.1629,5.2157,5.2514,5.3279,5.4494,5.5379,5.5815,5.582,5.582,5.5918,5.6094,5.6445,5.6601,5.6601,5.6601,5.6601,5.6601,5.6601,5.6601,5.6601,5.6601,5.6601,5.664,0.0,0.0,0.0,0.0,0.0,0.0,0.0,0.0,0.0,6.1699,6.1699,6.1699,6.1699,6.1953,6.2285,6.2637,6.3496,6.4336,6.4512,6.5037,6.5618,6.5951,6.6483,6.6894,6.6894,6.6785,6.6691,6.6665,6.6527,6.6388,6.6338,6.623,6.6118,6.6019,6.6009,6.6091,6.6359,6.7571,6.8545,6.8872,7.0129,7.0898,7.0898,7.0898,7.0898,7.0898,7.0898,7.0898,7.0898,7.0898,7.0898,7.0898,7.0898,7.0898,7.0898,7.0898,7.0898,7.0898,7.0898,7.0898,7.0898,7.0898,7.0898,7.0898,7.0898,7.0898,7.0898,7.0898,7.0898,7.0898,7.0898,7.0898,7.0898,0.0,0.0,0.0,0.0,0.0,0.0,0.0,0.0,0.0,0.0,5.4186,5.3873,0.0,0.0,0.0,0.0,0.0,0.0,0.0,5.1394,5.1433,5.1511,5.243,5.3723,5.5372,5.6197,5.6594,5.6599,5.6599,5.619,5.5449,5.623,5.6601,5.6601,5.6601,5.6601,5.6601,5.6601,5.6601,5.6601,5.6601,5.664,5.6797,5.7598,0.0,0.0,0.0,0.0,0.0,0.0,0.0,0.0,6.1699,6.1699,6.1699,6.1699,6.2324,6.3164,6.3965,6.4297,6.4805,6.6387,6.6144,6.5747,6.6524,6.6786,6.6874,6.6874,6.6778,6.6643,6.6595,6.6471,6.6335,6.6215,6.6139,6.608,6.6013,6.5999,6.6248,6.691,6.7821,6.8718,6.9494,7.0379,7.0898,7.0898,7.0898,7.0898,7.0898,7.0898,7.0898,7.0898,7.0898,7.0898,7.0898,7.0898,7.0898,7.0898,7.0898,7.0898,7.0898,7.0898,7.0898,7.0898,7.0898,7.0898,7.0898,7.0898,7.0898,7.0898,7.0898,7.0898,7.0898,7.0898,7.0898,7.0898,0.0,0.0,0.0,0.0,0.0,0.0,0.0,0.0,0.0,0.0,0.0,0.0,0.0,0.0,0.0,0.0,0.0,0.0,0.0,5.1394,5.1707,5.2391,5.3913,5.5242,5.6297,5.6494,5.6602,5.6594,5.66,5.6504,5.6328,5.6504,5.6601,5.6601,5.6601,5.6601,5.6601,5.6601,5.6601,5.6601,5.6601,5.7012,5.7637,5.7832,0.0,0.0,0.0,0.0,0.0,0.0,0.0,0.0,6.1699,6.1699,6.1699,6.1699,6.2324,6.3047,6.3223,6.4277,6.541,6.5781,6.623,6.6597,6.6687,6.6727,6.6733,6.6733,6.6596,6.6458,6.6447,6.6323,6.624,6.6195,6.6139,6.608,6.6013,6.5999,6.6036,6.6141,6.7475,6.8468,6.866,7.0033,7.0898,7.0898,7.0898,7.0898,7.0898,7.0898,7.0898,7.0898,7.0898,7.0898,7.0898,7.0898,7.0898,0.0,7.0898,7.0898,7.0898,7.0898,7.0898,7.0898,7.0898,7.0898,7.0898,7.0898,7.0898,7.0898,7.0898,7.0898,7.0898,7.0898,7.0898,7.0898,0.0,0.0,0.0,0.0,0.0,0.0,0.0,0.0,0.0,0.0,0.0,0.0,0.0,0.0,0.0,0.0,0.0,0.0,0.0,0.0,5.1785,5.2664,5.3972,5.5083,5.5962,5.6396,5.6601,5.6593,5.6599,5.6601,5.6601,5.6601,5.6601,5.6601,5.6601,5.6601,5.6601,5.6601,5.6601,5.664,5.7051,5.748,5.7988,5.8789,5.9648,6.0449,6.0879,0.0,0.0,0.0,0.0,0.0,0.0,0.0,6.1699,6.1699,6.2012,6.2558,6.3398,6.4297,6.5155,6.5891,6.6494,6.6852,6.6694,6.6678,6.6691,6.6658,6.6524,6.6408,6.6408,6.6285,6.6205,6.6205,6.6112,6.6041,6.5994,6.597,6.6076,6.6423,6.7609,6.8564,6.8968,7.0167,7.0898,7.0898,7.0898,7.0898,7.0898,7.0898,7.0898,7.0898,7.0898,7.0898,7.0898,7.0898,7.0898,7.0898,7.0898,7.0898,7.0898,7.0898,7.0898,7.0898,7.0898,7.0898,7.0898,7.0898,7.0898,7.0898,7.0898,7.0898,7.0898,7.0898,7.0898,7.0898,0.0,0.0,0.0,0.0,0.0,0.0,0.0,0.0,0.0,0.0,0.0,0.0,0.0,0.0,0.0,0.0,0.0,0.0,0.0,0.0,0.0,5.2898,5.3756,5.4635,5.5514,5.6225,5.6603,5.6591,5.6597,5.66,5.6601,5.6601,5.6601,5.6601,5.6601,5.6601,5.6601,5.6758,5.6816,5.6894,5.7773,5.8203,5.8476,5.9863,6.0488,6.0722,6.1445,6.1699,6.1699,6.1699,0.0,0.0,0.0,0.0,6.1699,6.1699,6.1816,6.2246,6.3672,6.4297,6.486,6.6308,6.6788,6.6851,6.6658,6.666,6.6678,6.6573,6.6478,6.638,6.6372,6.6263,6.6205,6.6205,6.6085,6.6007,6.6007,6.594,6.6154,6.6808,6.7782,6.868,6.9417,7.0341,7.0898,7.0898,7.0898,7.0898,7.0898,7.0898,7.0898,7.0898,7.0898,7.0898,7.0898,7.0898,7.0898,7.0898,7.0898,7.0898,7.0898,7.0898,7.0898,7.0898,7.0898,7.0898,7.0898,7.0898,7.0898,7.0898,7.0898,7.0898,7.0898,7.0898,7.0898,7.0898,0.0,0.0,0.0,0.0,0.0,0.0,0.0,0.0,0.0,0.0,5.6605,5.6216,0.0,0.0,0.0,0.0,0.0,0.0,5.2742,0.0,0.0,5.3795,5.4654,5.5532,5.6411,5.6549,5.6594,5.6603,5.6591,5.6596,5.66,5.6601,5.6601,5.6601,5.6601,5.6601,5.664,5.7402,5.7734,5.7793,5.8672,5.9433,6.0096,6.0312,6.0879,6.1542,6.166,6.1699,6.1699,6.1699,6.1699,0.0,0.0,0.0,6.1699,6.1699,6.2226,6.2871,6.3105,6.4277,6.5664,6.6619,6.6874,6.6854,6.6721,6.6694,6.6645,6.6461,6.6403,6.6364,6.624,6.6205,6.6205,6.6205,6.6085,6.6007,6.6007,6.594,6.5936,6.6058,6.7455,6.8449,6.8564,6.9975,7.0898,7.0898,7.0898,7.0898,7.0898,7.0898,7.0898,7.0898,7.0898,7.0898,7.0898,7.0898,7.0898,7.0898,7.0898,7.0898,7.0898,7.0898,7.0898,7.0898,7.0898,7.0898,7.0898,7.0898,7.0898,7.0898,7.0898,7.0898,7.0898,7.0898,7.0898,7.0898,0.0,0.0,0.0,0.0,0.0,0.0,0.0,0.0,0.0,0.0,0.0,5.6274,0.0,0.0,0.0,5.4752,5.4283,5.3834,5.3444,5.3424,5.36,5.3971,5.483,5.5475,5.5864,5.6352,5.6848,5.7331,5.7334,5.7573,5.8066,5.8066,5.7793,5.7324,5.7324,5.7598,5.8086,5.8476,5.8633,5.8691,5.9531,6.0077,6.0447,6.0934,6.1363,6.1694,6.1698,6.1698,6.1699,6.1699,6.1699,6.1699,6.1699,0.0,0.0,0.0,6.1973,6.248,6.3457,6.4648,6.5781,6.6592,6.6833,6.6854,6.6729,6.6757,6.6777,6.6605,6.6544,6.6447,6.6245,6.6205,6.6205,6.6205,6.6118,6.6047,6.6013,6.5976,6.5941,6.5904,6.6955,6.7859,6.8353,6.9513,7.0417,7.086,7.0898,7.0898,7.0898,7.0898,7.0898,7.0898,7.0898,7.0898,7.0898,7.0898,7.0898,7.0898,7.0898,7.0898,7.0898,7.0898,7.0898,7.0898,7.0898,7.0898,7.0898,7.0898,7.0898,7.0898,7.0898,7.0898,7.0898,7.0898,7.0898,7.0898,0.0,0.0,0.0,0.0,0.0,0.0,0.0,0.0,0.0,0.0,0.0,0.0,0.0,0.0,0.0,0.0,5.5044,5.4576,5.4342,5.4322,5.4322,5.4322,5.5358,5.5943,5.5943,5.6785,5.7555,5.8192,5.8215,5.8551,5.9199,5.9199,5.8965,5.8535,5.832,5.8594,5.9219,5.9414,5.9492,5.9589,6.0409,6.0739,6.0795,6.1456,6.1708,6.1707,6.1694,6.1696,6.1697,6.1699,6.1699,6.1699,6.1699,6.1699,0.0,0.0,0.0,6.2031,6.3555,6.4433,6.5175,6.6175,6.6499,6.6601,6.6722,6.6831,6.6854,6.6729,6.6643,6.6528,6.629,6.622,6.6205,6.6205,6.6139,6.6085,6.6036,6.6011,6.5984,6.5935,6.6622,6.7359,6.8013,6.9071,6.9956,7.0552,7.0783,7.0898,7.0898,7.0898,7.0898,7.0898,7.0898,7.0898,7.0898,7.0898,7.0898,7.0898,7.0898,7.0898,7.0898,7.0898,7.0898,7.0898,7.0898,7.0898,7.0898,7.0898,7.0898,7.0898,7.0898,7.0898,7.0898,7.0898,7.0898,7.0898,0.0,0.0,0.0,0.0,0.0,0.0,0.0,0.0,0.0,0.0,0.0,0.0,5.6546,5.6527,5.6527,5.6527,5.6488,5.6118,5.5299,5.5221,5.5221,5.5221,5.6802,0.0,5.7661,5.8511,5.8984,5.9044,5.9095,5.9158,5.9197,5.9199,5.957,6.0234,5.9473,5.916,5.9258,6.0019,6.0332,6.0408,6.1287,6.1634,6.1641,6.1687,6.1705,6.17,6.1707,6.1694,0.0,0.0,0.0,0.0,0.0,6.1699,6.1699,0.0,0.0,0.0,6.2812,6.3105,6.3535,6.5234,6.5664,6.5879,6.6699,6.6894,6.6854,6.6729,6.6643,6.6555,6.6426,6.6296,6.6205,6.6205,6.6139,6.6096,6.6096,6.604,6.6002,6.5996,6.6653,6.7116,6.7154,6.8706,6.9725,6.9763,7.0475,7.0898,7.0898,7.0898,7.0898,7.0898,7.0898,7.0898,7.0898,7.0898,7.0898,7.0898,7.0898,7.0898,7.0898,7.0898,7.0898,7.0898,7.0898,7.0898,7.0898,7.0898,7.0898,7.0898,7.0898,7.0898,7.0898,7.0898,7.0898,7.0898,0.0,0.0,0.0,0.0,0.0,0.0,0.0,0.0,0.0,0.0,0.0,0.0,0.0,5.6605,5.6605,5.6605,5.7074,5.7231,5.6919,5.7426,5.7738,5.7738,5.8304,5.8639,5.8628,5.8944,5.9361,5.9935,5.9958,6.0252,6.08,6.0801,6.0957,6.1191,6.0351,6.0273,6.082,6.1113,6.123,6.1267,6.1577,6.1707,6.1697,6.1694,6.1709,6.1707,6.1699,0.0,0.0,0.0,0.0,0.0,0.0,0.0,6.1698,6.1699,6.1699,6.2012,6.3457,6.3437,6.3418,6.5156,6.5605,6.5683,6.5996,6.6504,6.6894,6.6832,6.6745,6.6639,6.6552,6.6344,6.6205,6.6205,6.6189,6.6144,6.6102,6.6049,6.6005,6.6008,6.6191,6.6538,6.7058,6.7654,6.8494,6.9629,6.9975,7.036,7.0879,7.0898,7.0898,7.0898,7.0898,7.0898,7.0898,7.0898,7.0898,7.0898,7.0898,7.0898,7.0898,7.0898,7.0898,7.0898,7.0898,7.0898,7.0898,7.0898,7.0898,7.0898,7.0898,7.0898,7.0898,7.0898,7.0898,7.0898,0.0,0.0,0.0,0.0,0.0,0.0,0.0,0.0,5.5416,5.5708,0.0,0.0,0.0,0.0,5.6702,5.6977,5.7484,5.7914,5.8226,5.8772,5.9103,5.9103,5.9381,5.9542,5.9531,5.981,6.0266,6.0838,6.0838,6.1132,6.1699,6.1699,6.1699,6.168,6.1094,6.1152,6.1699,6.1699,6.1698,6.1695,6.1691,6.1703,6.1692,6.1703,6.1699,6.1701,0.0,0.0,0.0,0.0,0.0,0.0,0.0,0.0,0.0,6.1699,6.1699,6.2012,6.3476,6.3223,6.3047,6.5098,6.5156,6.4961,6.584,6.6269,6.6523,6.6774,6.6747,6.665,6.6605,6.6384,6.6205,6.6205,6.6205,6.6175,6.6134,6.608,6.6038,6.5999,6.5953,6.614,6.6654,6.6942,6.7577,6.8744,6.9379,0.0,7.0475,7.0744,7.0898,7.0898,7.0898,7.0898,7.0898,7.0898,7.0898,7.0898,7.0898,7.0898,7.0898,7.0898,7.0898,7.0898,7.0898,7.0898,7.0898,7.0898,7.0898,7.0898,7.0898,7.0898,7.0898,7.0898,7.0898,7.0898,0.0,0.0,0.0,0.0,0.0,0.0,0.0,0.0,5.5651,5.6527,0.0,0.0,0.0,0.0,0.0,5.7777,5.7856,5.8246,5.9084,5.9162,5.9181,5.9181,5.9993,6.0448,6.0448,6.1263,6.1697,6.1697,6.1699,6.1699,6.1699,6.1699,6.1699,6.1699,6.1699,6.1699,6.1699,6.1699,6.1717,6.1748,6.1709,6.1719,6.1738,6.1719,6.1699,0.0,6.1699,6.1707,0.0,6.1697,0.0,0.0,0.0,0.0,0.0,0.0,6.1719,6.1933,0.0,0.0,0.0,6.4902,6.4297,6.3691,6.623,6.6211,6.5838,6.6554,6.6649,6.662,6.6592,6.6392,6.62,6.6215,6.621,6.6205,6.6205,6.6134,6.608,6.6013,6.5999,6.5978,6.591,6.6615,6.7077,6.7096,6.8667,6.9648,6.9706,7.0456,7.0898,7.0898,7.0898,7.0898,7.0898,7.0898,7.0898,7.0898,7.0898,7.0898,7.0898,7.0898,7.0898,7.0898,7.0898,7.0898,7.0898,7.0898,7.0898,7.0898,7.0898,7.0898,7.0898,7.0898,7.0898,7.0898,0.0,0.0,0.0,0.0,0.0,5.5961,5.6196,5.6235,5.6547,0.0,0.0,0.0,5.8342,5.8401,5.8498,5.8713,5.9319,5.9788,6.0022,6.0626,6.0982,6.097,6.1208,6.1333,6.1342,6.1579,6.1698,6.1699,6.1699,6.1699,6.1699,6.1699,6.1699,6.1699,6.1699,6.1699,6.1699,6.1699,6.205,6.2594,6.1945,6.2075,6.2571,6.1937,0.0,0.0,0.0,6.1702,6.1705,0.0,6.1706,6.1692,0.0,0.0,0.0,0.0,0.0,6.2832,6.3691,0.0,0.0,0.0,0.0,0.0,6.4844,6.5801,6.6601,6.6794,6.6829,6.6767,6.6619,6.654,6.6457,6.636,6.6263,6.6205,6.6205,6.6134,6.6091,6.6074,6.6029,6.5996,6.5978,6.6121,6.6481,0.0,6.7558,6.8359,6.9629,7.0456,7.0898,7.0898,7.0898,7.0898,7.0898,7.0898,7.0898,7.0898,7.0898,7.0898,7.0898,7.0898,7.0898,7.0898,7.0898,7.0898,7.0898,7.0898,7.0898,7.0898,7.0898,7.0898,7.0898,7.0898,7.0898,7.0898,0.0,0.0,0.0,0.0,5.6352,5.6605,5.6605,5.6605,5.6899,0.0,0.0,0.0,5.9006,5.9103,5.9259,5.9611,6.0119,6.0549,6.092,6.1426,6.1705,6.1697,6.1701,6.1709,6.1697,6.1698,6.1699,6.1699,6.1699,6.1699,6.1699,6.1699,6.1699,6.1699,6.1699,6.1699,6.1699,6.1699,6.1992,6.242,6.1909,6.2002,6.2405,6.1892,6.1692,0.0,0.0,0.0,6.1699,6.1699,6.1699,0.0,0.0,0.0,0.0,0.0,0.0,0.0,6.3613,6.2754,6.2129,6.3867,0.0,0.0,6.459,6.5351,6.6015,6.6674,6.6829,6.6779,6.6654,6.6622,6.6587,6.653,6.638,6.6276,6.6276,6.6249,6.6187,6.6112,6.606,6.6029,6.5999,6.5965,6.614,6.6621,6.6936,6.7859,6.961,7.0148,7.0552,7.0898,7.0898,7.0898,7.0898,7.0898,7.0898,7.0898,7.0898,7.0898,7.0898,7.0898,7.0898,7.0898,7.0898,7.0898,7.0898,7.0898,7.0898,7.0898,7.0898,7.0898,7.0898,7.0898,7.0898,7.0898,0.0,0.0,5.5475,5.5553,5.6216,5.6761,5.6859,5.6878,5.7172,0.0,5.8168,5.8538,5.9299,5.9396,5.9708,6.0471,6.0549,6.0861,6.1643,6.1702,6.1707,6.1701,6.1707,6.1693,6.1698,6.1699,6.1699,6.1699,6.1699,6.1699,6.1699,6.1699,6.1699,6.1699,6.1699,6.1699,6.1699,6.1699,6.1699,6.1717,6.1814,6.1832,6.1846,6.1846,6.1783,6.1699,6.1699,6.1693,6.1701,6.1699,6.1701,0.0,0.0,0.0,0.0,0.0,6.3008,6.3008,6.3008,6.2363,0.0,0.0,0.0,0.0,6.4785,6.4785,6.4706,6.6148,6.6434,6.6431,6.6406,6.6354,6.6347,6.6397,6.6342,6.6312,6.6396,6.6392,6.631,6.6139,6.6102,6.608,6.6024,6.5999,6.6002,6.6002,6.6673,6.7789,6.934,6.959,7.0033,7.0744,7.0841,7.0898,7.0898,7.0898,7.0898,7.0898,7.0898,7.0898,7.0898,7.0898,7.0898,7.0898,7.0898,7.0898,7.0898,7.0898,7.0898,7.0898,7.0898,7.0898,7.0898,7.0898,7.0898,7.0898,0.0,5.5747,5.6547,5.7193,5.7445,5.7797,5.8518,5.8615,5.8928,5.9788,6.051,6.0997,6.1172,6.1192,6.125,6.1426,6.1446,6.1528,6.1694,6.1695,6.1702,6.1695,6.1696,6.1698,6.1699,6.1699,6.1699,6.1699,6.1699,6.1699,6.1699,6.1699,6.1699,6.1699,6.1699,6.1699,6.1699,6.1699,6.1699,6.1758,6.246,6.2751,6.275,6.2746,6.2313,6.1707,6.1707,6.1702,6.1694,6.1703,6.1706,6.1852,0.0,0.0,0.0,0.0,0.0,0.0,0.0,0.0,0.0,0.0,0.0,0.0,6.3398,6.3926,6.4394,6.4706,6.4764,6.4741,6.4634,6.4597,6.4593,6.4605,6.5154,6.5771,6.6328,6.6308,6.623,6.6194,6.6128,6.6096,6.608,6.6029,6.6002,6.6002,6.6673,6.725,6.7596,6.8936,6.9763,6.9937,7.0552,7.0898,7.0898,7.0898,7.0898,7.0898,7.0898,7.0898,7.0898,7.0898,7.0898,7.0898,7.0898,7.0898,7.0898,7.0898,7.0898,7.0898,7.0898,7.0898,7.0898,7.0898,7.0898,7.0898,5.6373,5.6899,5.7465,5.8304,5.8441,5.8597,5.9025,5.9103,5.9416,6.0295,6.1153,6.1702,6.1708,6.1703,6.1699,6.1699,6.1699,6.1705,6.1697,6.1697,6.1705,6.1697,6.1697,6.1698,6.1699,6.1699,6.1699,6.1699,6.1699,6.1699,6.1699,6.1699,6.1699,6.1699,6.1699,6.1699,6.1738,6.2168,6.2344,6.2344,6.2343,6.2343,6.2343,6.2342,6.2086,6.1694,6.1694,6.1708,6.1697,6.1692,6.1983,0.0,0.0,6.3302,6.3561,0.0,6.3006,6.2909,0.0,0.0,0.0,6.2246,0.0,0.0,0.0,6.334,6.3769,6.4219,6.4297,6.4277,6.4211,6.4208,6.4208,6.4208,6.4877,6.5367,6.528,6.5917,6.6376,6.6308,6.6206,6.6144,6.6144,6.6083,6.6048,6.6008,6.6364,6.6751,6.7084,6.834,6.9244,6.9687,7.0475,7.0898,7.0898,7.0898,7.0898,7.0898,7.0898,7.0898,7.0898,7.0898,7.0898,7.0898,7.0898,7.0898,7.0898,7.0898,7.0898,7.0898,7.0898,7.0898,7.0898,7.0898,7.0898,7.0898,5.7524,5.7933,5.8324,5.9201,5.9357,5.9416,5.9572,5.9594,5.985,6.0552,6.1255,6.1706,6.1694,6.1705,6.1699,6.1699,6.1699,6.1706,6.1699,6.17,6.1707,6.1698,6.1698,6.1698,6.1699,6.1699,6.1699,6.1699,6.1699,6.1699,6.1699,6.1699,6.1699,6.1699,6.1699,6.1797,6.1992,6.2695,6.3008,6.2949,6.2226,6.2051,6.2207,6.2207,6.2109,6.1932,6.1756,6.1693,6.1722,6.1894,6.2416,6.3055,6.3392,6.3748,0.0,0.0,0.0,0.0,0.0,0.0,0.0,0.0,0.0,6.1875,0.0,0.0,0.0,6.3652,6.3808,6.3808,6.3808,6.3808,6.373,6.3574,0.0,0.0,0.0,6.5076,0.0,6.5941,6.6141,6.6205,6.605,6.5974,6.5977,6.6074,6.5946,6.616,6.687,6.7693,6.8545,6.9417,7.0244,7.0744,7.0898,7.0898,7.0898,7.0898,7.0898,7.0898,7.0898,7.0898,7.0898,7.0898,7.0898,7.0898,7.0898,7.0898,7.0898,7.0898,7.0898,7.0898,7.0898,7.0898,7.0898,7.0898,5.7759,5.8421,5.922,6.01,6.0256,6.051,6.1289,6.1397,6.1443,6.154,6.1638,6.1693,6.1703,6.1699,6.1699,6.1699,6.1699,6.1708,6.1707,6.1708,6.1693,6.1699,6.1699,6.1699,6.1699,6.1699,6.1699,6.1699,6.1699,6.1699,6.1699,6.1699,6.1699,6.1699,6.1699,6.2129,6.2851,6.2969,6.3008,6.2988,6.289,6.332,0.0,6.4004,6.3515,6.2754,6.1971,6.1697,6.1812,0.0,6.2912,6.3267,0.0,6.4313,6.3426,0.0,0.0,0.0,0.0,0.0,0.0,0.0,6.1699,0.0,0.0,0.0,6.1875,6.1973,0.0,6.1992,6.1992,0.0,0.0,0.0,0.0,0.0,6.2109,6.3359,6.4356,6.4276,6.562,6.626,6.5475,6.5343,6.5581,6.6302,6.5488,6.5314,6.6169,6.6874,6.7648,6.8526,6.9398,7.0187,7.0898,7.0898,7.0898,7.0898,7.0898,7.0898,7.0898,7.0898,7.0898,7.0898,7.0898,7.0898,7.0898,7.0898,7.0898,7.0898,7.0898,7.0898,7.0898,7.0898,7.0898,7.0898,5.93,5.9592,6.0139,6.0997,6.114,6.1282,6.1632,6.1699,6.1707,6.1691,6.1707,6.1705,6.1707,6.1698,6.1693,6.1698,0.0,6.1699,0.0,0.0,6.1697,6.1699,6.1699,0.0,6.1699,6.1699,6.1699,6.1699,6.1699,6.1699,6.1699,6.1699,6.1699,6.1699,6.1699,6.1894,6.2285,6.2793,6.3281,6.375,6.375,6.4277,0.0,6.3379,6.2558,6.2207,6.1836,6.1698,6.1755,0.0,6.2921,0.0,0.0,0.0,0.0,0.0,0.0,0.0,0.0,0.0,0.0,0.0,0.0,0.0,6.1699,0.0,6.1699,0.0,0.0,0.0,0.0,0.0,0.0,0.0,6.2187,0.0,0.0,0.0,6.4181,0.0,0.0,0.0,6.528,6.5779,6.6137,0.0,6.6007,6.5892,6.5988,6.679,6.7386,6.7635,6.8975,6.986,7.0206,7.0667,7.0898,7.0898,7.0898,7.0898,7.0898,7.0898,7.0898,7.0898,7.0898,7.0898,7.0898,7.0898,7.0898,7.0898,7.0898,7.0898,7.0898,7.0898,7.0898,7.0898,6.0705,6.0764,6.096,6.1587,6.1693,6.1699,6.1705,6.1709,6.1693,6.1697,6.1695,6.1693,6.1695,6.1708,6.1703,6.1709,6.1705,6.1707,0.0,0.0,6.1952,0.0,0.0,0.0,0.0,0.0,6.2305,6.2051,6.2051,6.2051,6.2051,6.2051,6.2187,6.2402,6.2402,6.2402,6.2441,6.3086,6.3574,6.3945,6.3945,6.418,6.4355,6.2695,6.1914,6.1699,6.1699,6.1699,6.1737,6.197,6.2907,0.0,6.2745,0.0,0.0,0.0,0.0,0.0,6.2949,0.0,0.0,0.0,0.0,0.0,0.0,0.0,0.0,0.0,0.0,0.0,0.0,0.0,6.1621,0.0,0.0,6.2344,0.0,6.2637,0.0,0.0,0.0,0.0,0.0,6.5636,6.6022,0.0,0.0,6.613,6.6019,6.6669,6.7092,6.719,6.841,6.9278,6.9706,7.0283,7.0687,7.0898,7.0898,7.0898,7.0898,7.0898,7.0898,7.0898,7.0898,7.0898,7.0898,7.0898,7.0898,7.0898,7.0898,7.0898,7.0898,7.0898,7.0898,7.0898,6.1485,6.166,6.1664,6.1696,6.1697,6.1704,6.1696,6.1697,6.1697,6.1697,6.1697,6.1695,6.169,0.0,0.0,0.0,0.0,6.1692,6.1697,0.0,6.2577,0.0,0.0,6.3828,0.0,0.0,0.0,6.2969,6.2969,6.2969,6.2969,6.2969,6.3418,6.4219,6.4219,6.4219,6.4219,6.4258,6.3789,6.3047,6.3047,6.2558,6.1914,0.0,6.2422,6.1699,6.1699,0.0,0.0,6.2674,6.3007,0.0,0.0,0.0,0.0,0.0,0.0,0.0,0.0,0.0,0.0,6.1699,0.0,0.0,0.0,0.0,6.1699,0.0,0.0,0.0,0.0,6.1699,6.1426,0.0,0.0,0.0,0.0,0.0,0.0,0.0,0.0,0.0,0.0,6.4354,6.4632,0.0,6.5216,0.0,6.626,6.6191,6.6528,6.735,6.7446,6.8187,6.9687,6.9725,7.0129,7.0898,7.0898,7.0898,7.0898,7.0898,7.0898,7.0898,7.0898,7.0898,7.0898,7.0898,7.0898,7.0898,7.0898,7.0898,7.0898,7.0898,7.0898,7.0898,6.1632,6.1692,6.1694,6.1697,6.1707,6.189,6.246,6.2558,6.2558,6.2558,6.205,0.0,0.0,6.1696,6.1696,0.0,0.0,6.1697,6.1699,6.2519,0.0,0.0,0.0,6.3887,0.0,0.0,0.0,6.3867,6.3867,6.3867,6.3867,6.3867,6.4023,6.4297,6.4297,6.3984,6.3437,6.3437,6.3262,6.3008,0.0,6.2812,6.2539,0.0,0.0,6.1699,6.1699,6.1699,0.0,6.2031,6.2519,6.2949,6.2675,6.3164,6.3808,6.3515,6.3027,0.0,0.0,0.0,6.1699,6.1699,0.0,0.0,0.0,0.0,0.0,0.0,0.0,0.0,0.0,0.0,0.0,0.0,0.0,0.0,0.0,0.0,0.0,0.0,0.0,0.0,0.0,0.0,0.0,0.0,6.5877,0.0,6.6362,6.6411,6.6496,6.6672,6.723,6.7777,6.8307,6.945,7.0166,7.0437,7.1028,7.1227,7.1089,7.1089,7.1036,7.0898,7.0898,7.0898,7.0898,7.0898,7.0898,7.0898,7.0898,7.0898,7.0898,7.0898,7.0898,7.0898,6.1701,6.1705,6.1707,6.1707,6.1968,6.2343,6.291,6.3262,6.3359,0.0,6.2519,0.0,6.1738,0.0,6.1699,0.0,6.1699,6.1835,6.2148,6.2695,0.0,6.2187,6.3535,0.0,0.0,0.0,0.0,0.0,6.4609,6.4765,6.4765,6.4765,6.4922,6.5215,6.5215,6.457,6.3457,6.3457,6.3105,6.2539,0.0,6.2539,0.0,0.0,6.1894,6.2129,0.0,6.1699,6.1699,6.1699,6.207,6.2441,6.1875,6.2461,6.3262,6.2695,6.2539,6.2539,6.2539,6.2129,0.0,6.1699,6.1699,0.0,6.1699,0.0,0.0,0.0,0.0,0.0,0.0,0.0,0.0,0.0,0.0,0.0,0.0,6.1699,0.0,0.0,0.0,0.0,0.0,0.0,0.0,6.5273,6.5892,6.633,0.0,0.0,6.653,6.6416,6.6954,6.7353,6.7608,6.8711,6.9585,7.0206,7.0774,7.1126,7.129,7.1232,7.113,7.1005,7.0926,7.0898,7.0898,7.0898,7.0898,7.0898,7.0898,7.0898,7.0898,7.0898,7.0898,7.0898,6.1825,6.1831,6.1834,6.1834,6.2558,6.3125,6.3125,0.0,6.4004,0.0,6.2988,6.2617,6.1797,6.1699,6.1699,6.1699,6.1699,6.2051,6.2871,6.2988,0.0,0.0,6.3808,6.3887,6.3027,0.0,0.0,0.0,0.0,6.5664,6.5664,6.5664,6.6113,6.6894,6.6894,6.5937,6.4297,6.4297,6.3281,6.1699,6.1699,6.1738,6.1758,6.1719,6.2246,6.289,6.2012,6.1699,6.1699,6.1699,6.1699,6.1699,6.1699,6.1699,6.1699,6.1699,6.1699,6.1699,6.1699,6.1699,6.1699,6.1699,0.0,0.0,0.0,0.0,6.1699,0.0,0.0,0.0,0.0,0.0,0.0,0.0,0.0,0.0,0.0,0.0,0.0,0.0,0.0,0.0,0.0,0.0,6.3667,6.5142,6.5292,6.5707,0.0,0.0,6.6568,6.66,6.66,6.6916,6.7553,6.7592,6.8466,7.0095,7.0172,7.0658,7.1431,7.1286,7.1222,7.12,7.1005,7.0919,7.0919,7.0905,7.0898,7.0898,7.0898,7.0898,7.0898,7.0898,7.0898,7.0898,6.3628,6.3632,6.3633,6.3633,6.4355,6.4922,0.0,0.0,0.0,0.0,6.2832,6.1953,6.1719,6.1699,6.1699,6.1699,6.1699,0.0,0.0,0.0,0.0,6.2051,6.3496,6.3887,6.3027,6.4707,0.0,6.5273,0.0,6.6562,6.6562,6.6562,6.6699,6.6894,6.6894,6.5937,6.4297,6.4297,6.3281,6.1699,6.1699,6.209,6.2598,0.0,6.2246,6.289,6.2012,6.1699,6.1699,6.1699,6.1699,6.1699,6.1699,6.1699,6.1699,6.1699,6.1699,6.1699,6.1699,6.1699,6.1699,6.1699,6.1699,6.1699,0.0,0.0,0.0,0.0,0.0,0.0,0.0,0.0,0.0,0.0,0.0,0.0,0.0,0.0,0.0,6.1699,0.0,0.0,0.0,6.3203,6.4121,6.4527,6.5167,6.5903,0.0,0.0,0.0,6.6733,6.6753,6.6821,6.6996,6.7657,6.8203,6.865,6.9958,7.0603,7.0693,7.1303,7.1517,7.1399,7.1206,7.1124,7.1106,7.0966,7.0898,7.0898,7.0898,7.0898,7.0898,7.0898,7.0898,7.0898,6.4296,6.4609,6.4863,6.4863,0.0,0.0,6.5098,6.5254,0.0,6.4394,6.3457,0.0,6.2305,6.1933,6.1699,6.1699,6.1699,0.0,6.2246,0.0,0.0,6.2265,6.2832,6.293,6.2441,6.3769,0.0,6.5039,0.0,6.6523,6.6894,6.6894,6.6894,6.6894,6.6894,6.6133,6.4824,6.4062,6.3164,6.2246,6.1855,6.1992,0.0,6.1894,6.1992,6.2363,6.1875,6.1699,6.1699,6.1699,6.1699,6.1699,6.1699,6.1699,6.1699,6.1699,6.1699,6.1699,6.1699,6.1699,6.1699,6.1699,6.1699,6.1699,6.1699,6.1699,6.1699,0.0,0.0,0.0,0.0,0.0,0.0,0.0,0.0,0.0,0.0,0.0,0.0,0.0,6.2129,0.0,0.0,6.3281,6.4297,6.4297,6.4745,6.5249,0.0,0.0,0.0,6.6269,6.6621,6.6796,6.6796,6.7283,6.7712,6.8102,6.9097,6.9897,7.0535,7.0941,7.1289,7.158,7.1408,7.1289,7.1184,7.1084,7.0973,7.0898,7.0898,7.0898,7.0898,7.0898,7.0898,7.0898,6.4648,6.5254,6.5762,0.0,0.0,0.0,0.0,6.5488,0.0,6.4336,0.0,6.3672,6.291,6.2148,6.1699,6.1699,0.0,6.2012,6.2773,6.2129,6.2031,6.2793,6.2109,6.1699,6.1699,6.2558,0.0,0.0,0.0,6.6055,6.6894,6.6894,6.6894,6.6894,6.6894,6.6348,6.5312,6.3691,6.293,6.2754,6.1992,6.1699,6.1699,6.1699,6.1699,6.1699,6.1699,6.1699,6.1699,6.1699,6.1699,6.1699,6.1699,6.1699,6.1699,6.1699,6.1699,6.1699,6.1699,6.1699,6.1699,6.1699,6.1699,6.1699,6.1699,6.1699,6.1699,6.1699,6.1699,6.1894,0.0,0.0,0.0,0.0,0.0,0.0,0.0,0.0,0.0,0.0,0.0,0.0,0.0,0.0,6.4121,6.4121,6.412,0.0,0.0,0.0,0.0,6.5741,6.6445,6.6796,6.6796,0.0,6.7185,6.7927,6.8043,6.8882,7.0364,7.0414,7.0841,7.1579,7.1545,7.1413,7.1238,7.1206,7.109,7.0898,7.0898,7.0898,7.0898,7.0898,7.0898,7.0898,6.6445,6.6562,6.668,6.668,0.0,6.5312,6.4433,6.3945,6.3574,6.3262,6.2598,6.2109,6.1933,6.1797,6.1699,6.1699,6.1699,0.0,0.0,0.0,0.0,6.1914,6.1777,6.1699,6.1699,6.2558,6.3437,0.0,0.0,6.6055,6.6894,6.6894,6.6894,6.6894,6.6894,6.6015,6.4453,6.3437,0.0,6.1914,6.1758,6.1699,6.1699,6.1699,6.1699,6.1699,6.1699,6.1699,6.1699,6.1699,6.1699,6.1699,6.1699,6.1699,6.1699,6.1699,6.1699,6.1699,6.1699,6.1699,6.1699,6.1699,6.1699,6.1699,6.1699,6.1699,6.1699,6.1699,6.1699,6.1523,6.0957,0.0,0.0,0.0,0.0,0.0,0.0,0.0,0.0,0.0,0.0,6.3281,0.0,0.0,0.0,0.0,0.0,0.0,0.0,0.0,0.0,0.0,6.6738,0.0,0.0,0.0,6.6874,6.7031,6.7752,6.8258,6.8609,7.0003,7.072,7.0893,7.1446,7.1572,7.1422,7.1274,7.109,7.0898,7.0898,7.0898,7.0898,7.0898,7.0898,7.0898,6.6894,6.6894,6.6758,6.6308,0.0,0.0,0.0,6.289,6.248,6.2949,6.2637,6.2363,6.2363,6.1973,6.1699,6.1699,6.1699,6.1699,6.1699,6.1699,6.1699,6.1699,6.1699,0.0,6.1699,6.2109,6.2969,6.4297,0.0,0.0,6.6894,6.6894,6.6894,6.6875,6.6426,6.5762,6.4883,0.0,0.0,6.2324,6.1875,6.1699,6.1699,6.1699,6.1699,6.1699,6.1699,6.1699,6.1699,6.1699,6.1699,6.1699,6.1699,6.1699,6.1699,6.1699,6.1699,6.1699,6.1699,6.1699,6.1699,6.1699,6.1699,6.1699,6.1699,6.1699,6.1699,6.1699,6.1699,6.1562,6.1152,6.1426,0.0,0.0,0.0,0.0,0.0,0.0,0.0,0.0,0.0,0.0,0.0,0.0,0.0,0.0,0.0,0.0,0.0,0.0,0.0,0.0,0.0,0.0,0.0,0.0,0.0,6.6816,6.7224,6.7654,6.8121,6.896,6.9839,7.0716,7.1035,7.1299,7.148,7.1181,7.0985,7.0898,7.0898,7.0898,7.0898,7.0898,7.0898,7.0898,6.666,6.6621,6.6348,0.0,6.4609,0.0,6.3105,6.2265,6.1953,6.2637,6.2715,6.2715,6.2715,6.2109,6.1699,6.1699,6.1699,6.1699,6.1699,6.1699,6.1699,6.1699,6.1699,6.1699,6.1699,6.1699,6.2461,0.0,0.0,0.0,0.0,6.6816,6.6797,6.6582,6.5918,0.0,0.0,0.0,6.289,6.2656,6.1973,6.1699,6.1699,6.1699,6.1699,6.1699,6.1699,6.1699,6.1699,6.1699,6.1699,6.1699,6.1699,6.1699,6.1699,6.1699,6.1699,6.1699,6.1699,6.1699,6.1699,6.1699,6.1699,6.1699,6.1699,6.1699,6.1699,6.1699,6.1699,6.1699,6.1699,6.1855,0.0,0.0,0.0,0.0,0.0,0.0,0.0,0.0,0.0,0.0,0.0,0.0,0.0,0.0,0.0,0.0,0.0,0.0,0.0,0.0,0.0,6.6543,6.6543,0.0,6.6796,6.6796,6.6796,6.7166,6.783,6.8023,6.8843,7.0171,7.0541,7.0995,7.1476,7.1106,7.0933,7.0898,7.0898,7.0898,7.0898,7.0898,7.0898,7.0898,0.0,6.5723,0.0,0.0,0.0,0.0,6.3008,6.2265,6.1738,6.1816,6.1816,6.1816,6.1816,6.1758,6.1699,6.1699,6.1699,6.1699,6.1699,6.1699,6.1699,6.1699,6.1699,6.1699,6.1699,6.1699,6.2168,0.0,0.0,0.0,0.0,0.0,0.0,0.0,0.0,0.0,0.0,6.3066,6.2539,6.1816,6.1738,6.1699,6.1699,6.1699,6.1699,6.1699,6.1699,6.1699,6.1699,6.1699,6.1699,6.1699,6.1699,6.1699,6.1699,6.1699,6.1699,6.1699,6.1699,6.1699,6.1699,6.1699,6.1699,6.1699,6.1699,6.1699,6.1699,6.1699,6.1699,6.1699,6.1699,6.2344,6.289,0.0,0.0,0.0,0.0,0.0,0.0,0.0,0.0,0.0,0.0,6.4101,0.0,0.0,0.0,0.0,0.0,0.0,0.0,6.5565,0.0,6.5702,6.5702,6.6445,6.6796,6.6796,6.6796,6.6835,6.6952,6.7732,6.818,6.8433,7.0014,7.0995,7.1488,7.1269,7.1066,7.0898,7.0898,7.0898,7.0898,7.0898,7.0898,7.0898,0.0,0.0,0.0,0.0,0.0,0.0,0.0,6.1914,6.1699,6.1699,6.1699,6.1699,6.1699,6.1699,6.1699,6.1699,6.1699,6.1699,6.1699,6.1699,6.1699,6.1699,6.1699,6.1699,6.1699,6.1699,6.2129,0.0,0.0,0.0,0.0,0.0,0.0,0.0,0.0,6.3652,6.2969,6.2441,6.2012,6.1699,6.1699,6.1699,6.1699,6.1699,6.1699,6.1699,6.1699,6.1699,6.1699,6.1699,6.1699,6.1699,6.1699,6.1699,6.1699,6.1699,6.1699,6.1699,6.1699,6.1699,6.1699,6.1699,6.1699,6.1699,6.1699,6.1699,6.1699,6.1699,6.1699,6.1699,6.1699,6.1973,6.2558,0.0,0.0,0.0,0.0,0.0,0.0,0.0,0.0,0.0,0.0,0.0,0.0,0.0,0.0,0.0,0.0,0.0,0.0,6.5594,0.0,6.6327,6.6327,6.664,6.6796,6.6796,6.6796,6.6796,6.6816,6.7166,6.7615,6.8198,6.9812,7.06,7.0742,7.1071,7.109,7.0898,7.0898,7.0898,7.0898,7.0898,7.0898,7.0898,6.3965,0.0,6.3633,0.0,6.2617,6.2402,6.1797,6.1699,6.1699,6.1699,6.1699,6.1699,6.1699,6.1699,6.1699,6.1699,6.1699,6.1699,6.1699,6.1699,6.1699,6.1699,6.1699,0.0,6.1699,6.1699,6.1992,6.2617,6.3496,0.0,0.0,0.0,0.0,0.0,6.3262,6.2851,6.2578,6.1953,6.1699,6.1699,6.1699,6.1699,6.1699,6.1699,6.1699,6.1699,6.1699,6.1699,6.1699,6.1699,6.1699,6.1699,6.1699,6.1699,6.1699,6.1699,6.1699,6.1699,6.1699,6.1699,6.1699,6.1699,6.1699,6.1699,6.1699,6.1699,6.1699,6.1699,6.1699,6.1699,6.1699,6.1699,6.2187,6.3672,0.0,0.0,0.0,0.0,0.0,0.0,6.5976,6.5605,6.5605,6.5039,0.0,0.0,0.0,0.0,0.0,0.0,0.0,0.0,0.0,0.0,0.0,6.6679,6.6796,6.6796,6.6796,6.6796,6.6796,6.6796,6.7283,6.8159,6.9256,6.9924,7.0292,7.0777,7.0965,7.0985,7.0985,7.0953,7.0898,7.0898,7.0898,7.0898,6.3183,6.3027,6.2734,6.1875,6.1719,6.1719,6.1699,6.1699,6.1699,6.1699,6.1699,6.1699,6.1699,6.1699,6.1699,6.1699,6.1699,6.1699,6.1699,6.1699,6.1699,0.0,0.0,6.1699,6.1699,6.1699,6.1719,6.1719,0.0,0.0,6.3047,0.0,6.3848,6.3027,6.3008,6.2519,6.1719,6.1699,6.1699,6.1699,6.1699,6.1699,6.1699,6.1699,6.1699,6.1699,6.1699,6.1699,6.1699,6.1699,6.1699,6.1699,6.1699,6.1699,6.1699,6.1699,6.1699,6.1699,6.1699,6.1699,6.1699,6.1699,6.1699,6.1699,6.1699,6.1699,6.1699,6.1699,6.1699,6.1699,6.1699,6.1699,6.1992,6.2871,0.0,0.0,0.0,0.0,0.0,0.0,6.5605,6.5605,6.5605,0.0,0.0,0.0,0.0,0.0,0.0,0.0,0.0,6.5606,6.5604,0.0,6.5604,6.6406,6.6796,6.6796,6.6796,6.6796,6.6796,6.6796,6.7283,6.8102,6.8121,6.8997,7.0406,7.0406,7.0724,7.1189,7.1189,7.1059,7.0898,7.0898,7.0898,7.0898,6.2168,6.2109,6.2031,6.1758,6.1699,6.1699,6.1699,6.1699,6.1699,6.1699,6.1699,6.1699,6.1699,6.1699,6.1699,0.0,6.1699,6.1699,0.0,6.1699,6.1699,6.1699,6.1699,6.1699,6.1699,6.1699,6.1699,6.1699,0.0,0.0,0.0,6.3281,6.2949,6.2109,6.2109,6.1953,6.1699,6.1699,6.1699,6.1699,6.1699,6.1699,6.1699,6.1699,6.1699,6.1699,6.1699,6.1699,6.1699,6.1699,6.1699,6.1699,6.1699,6.1699,6.1699,6.1699,6.1699,6.1699,6.1699,6.1699,6.1699,6.1699,6.1699,6.1699,6.1699,6.1699,6.1699,6.1699,6.1699,6.1699,6.1699,6.1699,6.2187,6.3652,6.4121,0.0,0.0,0.0,0.0,0.0,6.6484,6.6484,0.0,6.6484,0.0,0.0,0.0,0.0,0.0,0.0,0.0,0.0,6.6136,0.0,6.6425,6.6679,6.6796,6.6796,6.6796,6.6796,6.6796,6.6796,6.6952,6.7244,6.7849,6.8335,6.875,6.9298,6.9915,7.0528,7.0528,7.0845,7.132,7.132,7.132,7.1295,6.1699,6.1699,6.1699,6.1699,6.1699,6.1699,6.1699,6.1699,6.1699,6.1699,6.1699,6.1699,6.1699,6.1699,0.0,6.1699,6.1699,6.1699,6.1699,6.1699,6.1699,6.1699,6.1699,6.1699,6.1699,0.0,0.0,6.1699,6.2246,6.2519,6.2519,6.2519,6.2226,6.1699,6.1699,6.1699,6.1699,6.1699,6.1699,6.1699,6.1699,6.1699,6.1699,6.1699,6.1699,6.1699,6.1699,6.1699,6.1699,6.1699,6.1699,6.1699,6.1699,6.1699,6.1699,6.1699,6.1699,6.1699,6.1699,6.1699,6.1699,6.1699,6.1699,6.1699,6.1699,6.1699,6.1699,6.1699,6.1699,6.1699,6.1699,6.1699,6.2265,6.4023,6.4297,6.4902,6.664,0.0,0.0,0.0,0.0,0.0,0.0,6.6406,6.6328,0.0,0.0,0.0,0.0,0.0,0.0,6.6064,6.6546,0.0,6.6796,6.6796,6.6796,6.6796,6.6796,6.6796,6.6796,6.6796,6.6796,6.6835,6.7381,6.7748,6.8009,6.8518,6.9137,6.9812,7.0143,7.0576,7.105,7.1384,7.1501,7.1488,6.1699,6.1699,6.1699,0.0,6.1699,0.0,6.1699,6.1699,6.1699,6.1699,6.1699,6.1699,6.1699,6.1699,6.1699,6.1699,0.0,0.0,0.0,6.1699,6.1699,6.1699,6.1699,6.1699,6.1699,6.1699,6.1699,6.1699,6.1699,6.1699,6.1699,6.1699,6.1699,6.1699,6.1699,6.1699,6.1699,6.1699,6.1699,6.1699,6.1699,6.1699,6.1699,6.1699,6.1699,6.1699,6.1699,6.1699,6.1699,6.1699,6.1699,6.1699,6.1699,6.1699,6.1699,6.1699,6.1699,6.1699,6.1699,6.1699,6.1699,6.1699,6.1699,6.1699,6.1699,6.1699,6.1699,6.1699,6.1699,6.1699,6.1699,6.1699,6.2265,6.4023,6.4297,6.4902,6.664,0.0,0.0,0.0,0.0,0.0,0.0,6.5683,6.5996,0.0,0.0,0.0,0.0,0.0,6.5977,6.6777,6.6796,6.6796,6.6796,6.6796,6.6796,6.6796,6.6796,6.6796,6.6796,6.6796,6.6796,6.6796,6.6796,6.7264,6.8005,6.8005,6.8415,6.9116,6.9913,7.0194,7.0242,7.1125,7.1439,7.1459,0.0,0.0,6.1699,6.1699,6.1699,6.1699,6.1699,6.1699,6.1699,6.1699,6.1699,6.1699,6.1699,6.1699,6.1699,6.1699,6.1699,6.1699,6.1699,6.1699,6.1699,6.1699,6.1699,6.1699,6.1699,6.1699,6.1699,6.1699,6.1699,6.1699,6.1699,6.1699,6.1699,6.1699,6.1699,6.1699,6.1699,6.1699,6.1699,6.1699,6.1699,6.1699,6.1699,6.1699,6.1699,6.1699,6.1699,6.1699,6.1699,6.1699,6.1699,6.1699,6.1699,6.1699,6.1699,6.1699,6.1699,6.1699,6.1699,6.1699,6.1699,6.1699,6.1699,6.1699,6.1699,6.1699,6.1699,6.1699,6.1699,6.1699,6.1699,6.1699,6.2265,6.4023,6.4297,6.4902,6.664,6.6894,0.0,0.0,6.6582,6.6582,6.6582,6.6582,6.6406,0.0,0.0,0.0,0.0,6.5705,6.5969,6.6777,6.6796,6.6796,6.6796,6.6796,6.6796,6.6796,6.6796,6.6796,6.6796,6.6796,6.6796,6.6796,6.6796,6.6913,6.7109,6.7109,6.7587,6.8353,6.8567,6.9025,6.9691,7.0569,7.0881,7.0968,6.1699,6.1699,6.1699,6.1699,6.1699,6.1699,6.1699,6.1699,6.1699,6.1699,6.1699,6.1699,6.1699,6.1699,6.1699,6.1699,6.1699,6.1699,6.1699,6.1699,6.1699,6.1699,6.1699,6.1699,6.1699,6.1699,6.1699,6.1699,6.1699,6.1699,6.1699,6.1699,6.1699,6.1699,6.1699,6.1699,6.1699,6.1699,6.1699,6.1699,6.1699,6.1699,6.1699,6.1699,6.1699,6.1699,6.1699,6.1699,6.1699,6.1699,6.1699,6.1699,6.1699,6.1699,6.1699,6.1699,6.1699,6.1699,6.1699,6.1699,6.1699,6.1699,6.1699,6.1699,6.1699,6.1699,6.1699,6.1699,6.1699,6.1699,6.1699,6.1699,6.2265,6.4023,6.4297,6.4902,6.664,6.6894,0.0,6.6894,6.6894,6.6894,6.6894,6.6894,6.6699,6.623,6.6188,0.0,6.6156,6.6146,6.6353,6.6796,6.6796,6.6796,6.6796,6.6796,6.6796,6.6796,6.6796,6.6796,6.6796,6.6796,6.6796,6.6796,6.6796,6.6796,6.6796,6.6796,6.7089,6.7556,6.7947,6.8396,6.8903,6.9782,7.0367,7.0752,6.1699,6.1699,6.1699,6.1699,6.1699,6.1699,6.1699,6.1699,6.1699,6.1699,6.1699,6.1699,6.1699,6.1699,6.1699,6.1699,6.1699,6.1699,6.1699,6.1699,6.1699,6.1699,6.1699,6.1699,6.1699,6.1699,6.1699,6.1699,6.1699,6.1699,6.1699,6.1699,6.1699,6.1699,6.1699,6.1699,6.1699,6.1699,6.1699,6.1699,6.1699,6.1699,6.1699,6.1699,6.1699,6.1699,6.1699,6.1699,6.1699,6.1699,6.1699,6.1699,6.1699,6.1699,6.1699,6.1699,6.1699,6.1699,6.1699,6.1699,6.1699,6.1699,6.1699,6.1699,6.1699,6.1699,6.1699,6.1699,6.1699,6.1699,6.1699,6.1816,6.2422,6.4043,6.4414,6.5058,6.668,0.0,6.6894,6.6894,6.6894,6.6894,6.6894,6.6894,6.6894,6.6892,6.6907,6.686,6.6792,6.6802,6.6796,6.6796,6.6796,6.6796,6.6796,6.6796,6.6796,6.6796,6.6796,6.6796,6.6796,6.6796,6.6796,6.6796,6.6796,6.6796,6.6796,6.6796,6.6796,6.6874,6.7615,6.7908,6.8005,6.8884,6.9664,7.0327,6.1699,6.1699,6.1699,6.1699,6.1699,6.1699,6.1699,6.1699,6.1699,6.1699,6.1699,6.1699,6.1699,6.1699,6.1699,6.1699,6.1699,6.1699,6.1699,6.1699,6.1699,6.1699,6.1699,6.1699,6.1699,6.1699,6.1699,6.1699,6.1699,6.1699,6.1699,6.1699,6.1699,6.1699,6.1699,6.1699,6.1699,6.1699,6.1699,6.1699,6.1699,6.1699,6.1699,6.1699,6.1699,6.1699,6.1699,6.1699,6.1699,6.1699,6.1699,6.1699,6.1699,6.1699,6.1699,6.1699,6.1699,6.1699,6.1699,6.1699,6.1699,6.1699,6.1699,6.1699,6.1699,6.1699,6.1699,6.1699,6.1699,6.1699,6.1699,6.2305,6.3125,6.414,6.4922,6.5742,6.6758,0.0,6.6894,6.6894,6.6894,6.6894,6.6894,6.6894,6.6894,6.6892,6.6907,6.686,6.6792,6.6802,6.6796,6.6796,6.6796,6.6796,6.6796,6.6796,6.6796,6.6796,6.6796,6.6796,6.6796,6.6796,6.6796,6.6796,6.6796,6.6796,6.6796,6.6796,6.6796,6.6816,6.6952,6.6992,6.7109,6.7986,6.8394,6.8609,6.1699,6.1699,6.1699,6.1699,6.1699,6.1699,6.1699,6.1699,6.1699,6.1699,6.1699,6.1699,6.1699,6.1699,6.1699,6.1699,6.1699,6.1699,6.1699,6.1699,6.1699,6.1699,6.1699,6.1699,6.1699,6.1699,6.1699,6.1699,6.1699,6.1699,6.1699,6.1699,6.1699,6.1699,6.1699,6.1699,6.1699,6.1699,6.1699,6.1699,6.1699,6.1699,6.1699,6.1699,6.1699,6.1699,6.1699,6.1699,6.1699,6.1699,6.1699,6.1699,6.1699,6.1699,6.1699,6.1699,6.1699,6.1699,6.1699,6.1699,6.1699,6.1699,6.1699,6.1699,6.1699,6.1699,6.1699,6.1699,6.1699,6.1836,6.2305,6.2734,6.3437,6.4785,6.5332,0.0,0.0,6.6894,6.6894,6.6894,6.6894,6.6894,6.6894,6.6894,6.6894,6.6908,6.6905,6.6878,6.6805,6.6799,6.6796,6.6796,6.6796,6.6796,6.6796,6.6796,6.6796,6.6796,6.6796,6.6796,6.6796,6.6796,6.6796,6.6796,6.6796,6.6796,6.6796,6.6796,6.6796,6.6796,6.6796,6.6796,6.6855,6.7244,6.7693,6.816,6.1699,6.1699,6.1699,6.1699,6.1699,6.1699,6.1699,6.1699,6.1699,6.1699,6.1699,6.1699,6.1699,6.1699,6.1699,6.1699,6.1699,6.1699,6.1699,6.1699,6.1699,6.1699,6.1699,6.1699,6.1699,6.1699,6.1699,6.1699,6.1699,6.1699,6.1699,6.1699,6.1699,6.1699,6.1699,6.1699,6.1699,6.1699,6.1699,6.1699,6.1699,6.1699,6.1699,6.1699,6.1699,6.1699,6.1699,6.1699,6.1699,6.1699,6.1699,6.1699,6.1699,6.1699,6.1699,6.1699,6.1699,6.1699,6.1699,6.1699,6.1699,6.1699,6.1699,6.1699,6.1699,6.1699,6.1699,6.1699,6.1855,6.2207,6.2871,6.332,6.4043,6.5371,0.0,0.0,0.0,6.6894,6.6894,6.6894,6.6894,6.6894,6.6894,6.6894,6.6894,6.6904,6.6903,6.6877,6.6798,6.6796,6.6796,6.6796,6.6796,6.6796,6.6796,6.6796,6.6796,6.6796,6.6796,6.6796,6.6796,6.6796,6.6796,6.6796,6.6796,6.6796,6.6796,6.6796,6.6796,6.6796,6.6796,6.6796,6.6796,6.6796,6.7224,6.7791,6.1699,6.1699,6.1699,6.1699,6.1699,6.1699,6.1699,6.1699,6.1699,6.1699,6.1699,6.1699,6.1699,6.1699,6.1699,6.1699,6.1699,6.1699,6.1699,6.1699,6.1699,6.1699,6.1699,6.1699,6.1699,6.1699,6.1699,6.1699,6.1699,6.1699,6.1699,6.1699,6.1699,6.1699,6.1699,6.1699,6.1699,6.1699,6.1699,6.1699,6.1699,6.1699,6.1699,6.1699,6.1699,6.1699,6.1699,6.1699,6.1699,6.1699,6.1699,6.1699,6.1699,6.1699,6.1699,6.1699,6.1699,6.1699,6.1699,6.1699,6.1699,6.1699,6.1699,6.1699,6.1699,6.1699,6.1699,6.1699,6.2344,6.293,6.2988,6.4316,6.5449,6.5586,0.0,0.0,6.6894,6.6894,6.6894,6.6894,6.6894,6.6894,6.6894,6.6894,6.6894,6.6904,6.6903,6.6877,6.6798,6.6796,6.6796,6.6796,6.6796,6.6796,6.6796,6.6796,6.6796,6.6796,6.6796,6.6796,6.6796,6.6796,6.6796,6.6796,6.6796,6.6796,6.6796,6.6796,6.6796,6.6796,6.6796,6.6796,6.6796,6.6796,6.6835,6.6894,6.1699,6.1699,6.1699,6.1699,6.1699,6.1699,6.1699,6.1699,6.1699,6.1699,6.1699,6.1699,6.1699,6.1699,6.1699,6.1699,6.1699,6.1699,6.1699,6.1699,6.1699,6.1699,6.1699,6.1699,6.1699,6.1699,6.1699,6.1699,6.1699,6.1699,6.1699,6.1699,6.1699,6.1699,6.1699,6.1699,6.1699,6.1699,6.1699,6.1699,6.1699,6.1699,6.1699,6.1699,6.1699,6.1699,6.1699,6.1699,6.1699,6.1699,6.1699,6.1699,6.1699,6.1699,6.1699,6.1699,6.1699,6.1699,6.1699,6.1699,6.1699,6.1699,6.1699,6.1699,6.1699,6.1699,6.1855,6.2383,6.2773,6.332,6.4414,6.5156,6.5781,6.6328,0.0,6.6894,6.6894,6.6894,6.6894,6.6894,6.6894,6.6894,6.6894,6.6894,6.6894,6.6909,6.6906,6.6879,6.6807,6.68,6.6796,6.6796,6.6796,6.6796,6.6796,6.6796,6.6796,6.6796,6.6796,6.6796,6.6796,6.6796,6.6796,6.6796,6.6796,6.6796,6.6796,6.6796,6.6796,6.6796,6.6796,6.6796,6.6796,6.6796,6.6796,6.6796,6.1699,6.1699,6.1699,6.1699,6.1699,6.1699,6.1699,6.1699,6.1699,6.1699,6.1699,6.1699,6.1699,6.1699,6.1699,6.1699,6.1699,6.1699,6.1699,6.1699,6.1699,6.1699,6.1699,6.1699,6.1699,6.1699,6.1699,6.1699,6.1699,6.1699,6.1699,6.1699,6.1699,6.1699,6.1699,6.1699,6.1699,6.1699,6.1699,6.1699,6.1699,6.1699,6.1699,6.1699,6.1699,6.1699,6.1699,6.1699,6.1699,6.1699,6.1699,6.1699,6.1699,6.1699,6.1699,6.1699,6.1699,6.1699,6.1699,6.1894,6.2031,6.1777,6.1699,6.1777,6.2051,6.2109,6.2363,6.3223,6.3633,6.418,6.5371,6.582,6.6191,6.6797,6.6894,6.6894,6.6894,6.6894,6.6894,6.6894,6.6894,6.6894,6.6894,6.6894,6.6894,6.6892,6.6909,6.6863,6.6792,6.6802,6.6796,6.6796,6.6796,6.6796,6.6796,6.6796,6.6796,6.6796,6.6796,6.6796,6.6796,6.6796,6.6796,6.6796,6.6796,6.6796,6.6796,6.6796,6.6796,6.6796,6.6796,6.6796,6.6796,6.6796,6.6796,6.6796,6.1699,6.1699,6.1699,6.1699,6.1699,6.1699,6.1699,6.1699,6.1699,6.1699,6.1699,6.1699,6.1699,6.1699,6.1699,6.1699,6.1699,6.1699,6.1699,6.1699,6.1699,6.1699,6.1699,6.1699,6.1699,6.1699,6.1699,6.1699,6.1699,6.1699,6.1699,6.1699,6.1699,6.1699,6.1699,6.1699,6.1699,6.1699,6.1699,6.1699,6.1699,6.1699,6.1699,6.1699,6.1699,6.1699,6.1699,6.1699,6.1699,6.1699,6.1699,6.1699,6.1699,6.1699,6.1719,6.1719,6.1719,6.1719,6.1719,6.2344,6.2793,6.1933,6.1719,6.1953,6.2812,6.3008,6.3262,6.4121,6.5,6.5605,6.5605,6.6328,6.6894,6.6894,6.6894,6.6894,6.6894,6.6894,6.6894,6.6894,6.6894,6.6894,6.6894,6.6894,6.6894,6.6892,6.6892,6.6868,6.6793,6.6802,6.6796,6.6796,6.6796,6.6796,6.6796,6.6796,6.6796,6.6796,6.6796,6.6796,6.6796,6.6796,6.6796,6.6796,6.6796,6.6796,6.6796,6.6796,6.6796,6.6796,6.6796,6.6796,6.6796,6.6796,6.6796,6.6796,6.1699,6.1699,6.1699,6.1699,6.1699,6.1699,6.1699,6.1699,6.1699,6.1699,6.1699,6.1699,6.1699,6.1699,6.1699,6.1699,6.1699,6.1699,6.1699,6.1699,6.1699,6.1699,6.1699,6.1699,6.1699,6.1699,6.1699,6.1699,6.1699,6.1699,6.1699,6.1699,6.1699,6.1699,6.1699,6.1699,6.1699,6.1699,6.1699,6.1699,6.1699,6.1699,6.1699,6.1699,6.1699,6.1699,6.1699,6.1699,6.1699,6.1699,6.1699,6.1699,6.1699,6.2129,6.2617,6.2617,6.3047,6.3515,6.3515,6.3711,6.3691,6.2832,6.3066,6.3594,6.3848,6.3906,6.416,6.5039,6.543,6.5781,6.6406,6.6719,6.6894,6.6894,6.6894,6.6894,6.6894,6.6894,6.6894,6.6894,6.6894,6.6894,6.6894,6.6894,6.6894,6.6894,6.6891,6.6885,6.6861,6.6826,6.68,6.6807,6.68,6.6796,6.6796,6.6796,6.6796,6.6796,6.6796,6.6796,6.6796,6.6796,6.6796,6.6796,6.6796,6.6796,6.6796,6.6796,6.6796,6.6796,6.6796,6.6796,6.6796,6.6796,6.6796,6.6796,6.1699,6.1699,6.1699,6.1699,6.1699,6.1699,6.1699,6.1699,6.1699,6.1699,6.1699,6.1699,6.1699,6.1699,6.1699,6.1699,6.1699,6.1699,6.1699,6.1699,6.1699,6.1699,6.1699,6.1699,6.1699,6.1699,6.1699,6.1699,6.1699,6.1699,6.1699,6.1699,6.1699,6.1699,6.1699,6.1699,6.1699,6.1699,6.1699,6.1699,6.1699,6.1699,6.1699,6.1699,6.1699,6.1758,6.209,6.2207,6.2265,6.2617,6.2734,6.2734,6.2734,6.3086,6.3515,6.3515,6.3887,6.4297,6.4297,6.4551,6.4687,6.416,6.418,6.4394,6.4746,6.4805,6.5058,6.5937,6.6113,6.6289,6.6797,6.6894,6.6894,6.6894,6.6894,6.6894,6.6894,6.6894,6.6894,6.6894,6.6894,6.6894,6.6894,6.6894,6.6894,6.6894,6.6892,6.6907,6.6907,6.6834,6.6806,6.6791,6.6802,6.6796,6.6796,6.6796,6.6796,6.6796,6.6796,6.6796,6.6796,6.6796,6.6796,6.6796,6.6796,6.6796,6.6796,6.6796,6.6796,6.6796,6.6796,6.6796,6.6796,6.6796,6.6796,6.6796,6.1699,6.1699,6.1699,6.1699,6.1699,6.1699,6.1699,6.1699,6.1699,6.1699,6.1699,6.1699,6.1699,6.1699,6.1699,6.1699,6.1699,6.1699,6.1699,6.1699,6.1699,6.1699,6.1699,6.1699,6.1699,6.1699,6.1699,6.1699,6.1699,6.1699,6.1699,6.1699,6.1699,6.1699,6.1699,6.1699,6.1699,6.1699,6.1738,6.1816,6.1816,6.1855,6.1933,6.1933,6.1933,6.2031,6.2832,6.3125,6.3242,6.4023,6.4297,6.4297,6.4297,6.4355,6.4414,6.4414,6.4473,6.4531,6.4531,6.5117,6.5723,6.5723,6.5117,6.4746,6.5547,6.5723,6.5937,6.6738,6.6894,6.6894,6.6894,6.6894,6.6894,6.6894,6.6894,6.6894,6.6894,6.6894,6.6894,6.6894,6.6894,6.6894,6.6894,6.6894,6.6894,6.6894,6.6893,6.6892,6.6892,6.6842,6.6792,6.6813,6.6802,6.6796,6.6796,6.6796,6.6796,6.6796,6.6796,6.6796,6.6796,6.6796,6.6796,6.6796,6.6796,6.6796,6.6796,6.6796,6.6796,6.6796,6.6796,6.6796,6.6796,6.6796,6.6796,6.6796,6.1699,6.1699,6.1699,6.1699,6.1699,6.1699,6.1699,6.1699,6.1699,6.1699,6.1699,6.1699,6.1699,6.1699,6.1699,6.1699,6.1699,6.1699,6.1699,6.1699,6.1699,6.1699,6.1699,6.1699,6.1699,6.1699,6.1699,6.1699,6.1699,6.1699,6.1699,6.1699,6.1699,6.1699,6.1699,6.1699,6.1699,6.1699,6.209,6.2715,6.2715,6.3125,6.373,6.373,6.373,6.3769,6.3945,6.4023,6.4043,6.4238,6.4297,6.4297,6.4297,6.4765,6.5312,6.5312,6.5801,6.6348,6.6348,6.6465,6.6621,6.6621,6.6484,6.6387,6.6582,6.6621,6.668,6.6855,6.6894,6.6894,6.6894,6.6894,6.6894,6.6894,6.6894,6.6894,6.6894,6.6894,6.6894,6.6894,6.6894,6.6894,6.6894,6.6894,6.6894,6.6894,6.6893,6.6893,6.6894,6.6844,6.6816,6.6881,6.6826,6.6796,6.6796,6.6796,6.6796,6.6796,6.6796,6.6796,6.6796,6.6796,6.6796,6.6796,6.6796,6.6796,6.6796,6.6796,6.6796,6.6796,6.6796,6.6796,6.6796,6.6796,6.6796,6.6796,6.1699,6.1699,6.1699,6.1699,6.1699,6.1699,6.1699,6.1699,6.1699,6.1699,6.1699,6.1699,6.1699,6.1699,6.1699,6.1699,6.1699,6.1699,6.1699,6.1699,6.1699,6.1699,6.1699,6.1699,6.1699,6.1699,6.1699,6.1699,6.1699,6.1699,6.1699,6.1699,6.1914,6.2324,6.2324,6.2558,6.2949,6.2949,6.3203,6.3613,6.3613,6.3887,6.4297,6.4297,6.4297,6.4355,6.4765,6.5195,6.5547,6.5547,6.5547,6.5547,6.5547,6.5859,6.6211,6.6211,6.6543,6.6894,6.6894,6.6894,6.6894,6.6894,6.6894,6.6894,6.6894,6.6894,6.6894,6.6894,6.6894,6.6894,6.6894,6.6894,6.6894,6.6894,6.6894,6.6894,6.6894,6.6894,6.6894,6.6894,6.6894,6.6894,6.6894,6.6894,6.6894,6.6894,6.6894,6.6894,6.6894,6.6866,6.6858,6.6858,6.6825,6.6796,6.6796,6.6796,6.6796,6.6796,6.6796,6.6796,6.6796,6.6796,6.6796,6.6796,6.6796,6.6796,6.6796,6.6796,6.6796,6.6796,6.6796,6.6796,6.6796,6.6796,6.6796,6.6796,6.1699,6.1699,6.1699,6.1699,6.1699,6.1699,6.1699,6.1699,6.1699,6.1699,6.1699,6.1699,6.1699,6.1699,6.1699,6.1699,6.1699,6.1699,6.1699,6.1699,6.1699,6.1699,6.1699,6.1699,6.1699,6.1699,6.1699,6.1699,6.1699,6.1777,6.1914,6.1914,6.2383,6.3223,6.3223,6.3613,6.4297,6.4297,6.4394,6.4512,6.4512,6.4609,6.4746,6.4746,6.4746,6.4844,6.5566,6.6289,6.6894,6.6894,6.6894,6.6894,6.6894,6.6894,6.6894,6.6894,6.6894,6.6894,6.6894,6.6894,6.6894,6.6894,6.6894,6.6894,6.6894,6.6894,6.6894,6.6894,6.6894,6.6894,6.6894,6.6894,6.6894,6.6894,6.6894,6.6894,6.6894,6.6894,6.6894,6.6894,6.6894,6.6894,6.6894,6.6894,6.6894,6.6894,6.6894,6.6894,6.6893,6.6907,6.6861,6.6815,6.6803,6.6796,6.6796,6.6796,6.6796,6.6796,6.6796,6.6796,6.6796,6.6796,6.6796,6.6796,6.6796,6.6796,6.6796,6.6796,6.6796,6.6796,6.6796,6.6796,6.6796,6.6796,6.6796,6.6796,6.1699,6.1699,6.1699,6.1699,6.1699,6.1699,6.1699,6.1699,6.1699,6.1699,6.1699,6.1699,6.1699,6.1699,6.1699,6.1699,6.1699,6.1699,6.1699,6.1699,6.1699,6.1699,6.1699,6.1699,6.1699,6.1699,6.1699,6.1699,6.1699,6.209,6.2812,6.2812,6.3281,6.4121,6.4121,6.4199,6.4297,6.4297,6.4746,6.543,6.543,6.5879,6.6543,6.6543,6.6543,6.6562,6.668,6.6797,6.6894,6.6894,6.6894,6.6894,6.6894,6.6894,6.6894,6.6894,6.6894,6.6894,6.6894,6.6894,6.6894,6.6894,6.6894,6.6894,6.6894,6.6894,6.6894,6.6894,6.6894,6.6894,6.6894,6.6894,6.6894,6.6894,6.6894,6.6894,6.6894,6.6894,6.6894,6.6894,6.6894,6.6894,6.6894,6.6894,6.6894,6.6894,6.6894,6.6894,6.6894,6.6909,6.6902,6.6882,6.6827,6.6796,6.6796,6.6796,6.6796,6.6796,6.6796,6.6796,6.6796,6.6796,6.6796,6.6796,6.6796,6.6796,6.6796,6.6796,6.6796,6.6796,6.6796,6.6796,6.6796,6.6796,6.6796,6.6796,6.1699,6.1699,6.1699,6.1699,6.1699,6.1699,6.1699,6.1699,6.1699,6.1699,6.1699,6.1699,6.1699,6.1699,6.1699,6.1699,6.1699,6.1699,6.1699,6.1699,6.1699,6.1699,6.1699,6.1699,6.1699,6.1699,6.1933,6.2422,6.2422,6.2617,6.3008,6.3496,6.4199,6.5039,6.5039,6.5293,6.5742,6.5742,6.5976,6.6328,6.6328,6.6562,6.6894,6.6894,6.6894,6.6894,6.6894,6.6894,6.6894,6.6894,6.6894,6.6894,6.6894,6.6894,6.6894,6.6894,6.6894,6.6894,6.6894,6.6894,6.6894,6.6894,6.6894,6.6894,6.6894,6.6894,6.6894,6.6894,6.6894,6.6894,6.6894,6.6894,6.6894,6.6894,6.6894,6.6894,6.6894,6.6894,6.6894,6.6894,6.6894,6.6894,6.6894,6.6894,6.6894,6.6894,6.6894,6.6894,6.6894,6.6908,6.6881,6.6857,6.6824,6.6796,6.6796,6.6796,6.6796,6.6796,6.6796,6.6796,6.6796,6.6796,6.6796,6.6796,6.6796,6.6796,6.6796,6.6796,6.6796,6.6796,6.6796,6.6796,6.6796,6.6796,6.6796,6.6796]}]]